Black River (Missouri), Leeper (07062500)

StateMissouriLatestLow (546 cfs)
RiverBlack RiverRatingObservedEstimated
Updated2021-01-24 9:30 (55 minutes ago)Flood - The river is flooding. Obstacles can be treacherous or deadly. The river should be avoided at this stage for casual trips and definitely for the inexperienced. Trips should be attempted only with protective gear and equipment.Flood(none)3475
Discharge546 cfs (median: 716 cfs)High - The river is high and potentially dangerous, especially for the young and / or inexperienced. Normal stream obstacles are sometimes difficult to navigate. Extended distances can be attempted, but canoe travel may not be advisable.High(none)1150
Height2.91 feetGood - Conditions are ideal for a canoe or kayak. Boats typically will drag on fewer than one-quarter of riffles, if at all, and portages are unnecessary or rare. Normal float lengths can be attempted without a problem.Good(none)713
TrendSteady (rising over 24 hours)Low - River is low but can still be floated. Some riffles are okay but most come with significant dragging and might need a portage. Float lengths should be reduced to accommodate low flow, dragging, and portages.Low(none)418
USGSExternal icon USGS Site (External icon Google Maps)Poor - River is too low to float comfortably. Most or all riffles will drag or must be portaged and some obstacles (such as slick shelf rock) cause undue problems. Avoid the river at this stage for casual paddling trips.Poor(none)219

Trending Data

Plot Image

Trips for Black River (Missouri), Leeper (07062500)

DateStartEndDistanceConditionDischargeHeightFishingDetails

A total of 0 rows are displayed.

Condition Descriptions

Fishing Conditions

Fish Species

Notes

Classic Trip List

The classic River Trips application is still available for use. It is updated with the new system using a data retrofit. It is no longer maintained. The original River Trips application is no longer updated (as of 1 Dec 2016) but can be checked for errors or for the condition of the data before it was converted to the new system.

Gauge Data Table

ObservationHeightDischargeMaximum
Discharge
Minimum
Discharge
Mean
Discharge
P05P10P20P25P50
(Median)
P75P80P90P95
2021-01-24 09:30 2.91 546 4460 (1950) 206 (1956) 1380 282 293 379 403 716 2630 2980 3560 3990
2021-01-24 08:30 2.91 546 4460 (1950) 206 (1956) 1380 282 293 379 403 716 2630 2980 3560 3990
2021-01-24 07:30 2.91 546 4460 (1950) 206 (1956) 1380 282 293 379 403 716 2630 2980 3560 3990
2021-01-24 06:30 2.91 546 4460 (1950) 206 (1956) 1380 282 293 379 403 716 2630 2980 3560 3990
2021-01-24 05:30 2.91 546 4460 (1950) 206 (1956) 1380 282 293 379 403 716 2630 2980 3560 3990
2021-01-24 04:30 2.89 537 4460 (1950) 206 (1956) 1380 282 293 379 403 716 2630 2980 3560 3990
2021-01-24 03:30 2.88 533 4460 (1950) 206 (1956) 1380 282 293 379 403 716 2630 2980 3560 3990
2021-01-24 02:30 2.90 542 4460 (1950) 206 (1956) 1380 282 293 379 403 716 2630 2980 3560 3990
2021-01-24 01:30 2.91 546 4460 (1950) 206 (1956) 1380 282 293 379 403 716 2630 2980 3560 3990
2021-01-24 00:30 2.89 537 4460 (1950) 206 (1956) 1380 282 293 379 403 716 2630 2980 3560 3990
2021-01-23 23:30 2.89 537 4370 (1950) 221 (1956) 1360 247 286 375 406 687 2490 2740 3650 3970
2021-01-23 22:30 2.89 537 4370 (1950) 221 (1956) 1360 247 286 375 406 687 2490 2740 3650 3970
2021-01-23 21:30 2.90 542 4370 (1950) 221 (1956) 1360 247 286 375 406 687 2490 2740 3650 3970
2021-01-23 20:30 2.89 537 4370 (1950) 221 (1956) 1360 247 286 375 406 687 2490 2740 3650 3970
2021-01-23 19:30 2.90 542 4370 (1950) 221 (1956) 1360 247 286 375 406 687 2490 2740 3650 3970
2021-01-23 18:30 2.90 542 4370 (1950) 221 (1956) 1360 247 286 375 406 687 2490 2740 3650 3970
2021-01-23 17:30 2.90 542 4370 (1950) 221 (1956) 1360 247 286 375 406 687 2490 2740 3650 3970
2021-01-23 16:30 2.90 542 4370 (1950) 221 (1956) 1360 247 286 375 406 687 2490 2740 3650 3970
2021-01-23 15:30 2.88 533 4370 (1950) 221 (1956) 1360 247 286 375 406 687 2490 2740 3650 3970
2021-01-23 14:30 2.89 537 4370 (1950) 221 (1956) 1360 247 286 375 406 687 2490 2740 3650 3970
2021-01-23 13:30 2.89 537 4370 (1950) 221 (1956) 1360 247 286 375 406 687 2490 2740 3650 3970
2021-01-23 12:30 2.90 542 4370 (1950) 221 (1956) 1360 247 286 375 406 687 2490 2740 3650 3970
2021-01-23 11:30 2.89 537 4370 (1950) 221 (1956) 1360 247 286 375 406 687 2490 2740 3650 3970
2021-01-23 10:30 2.91 546 4370 (1950) 221 (1956) 1360 247 286 375 406 687 2490 2740 3650 3970
2021-01-23 09:30 2.92 551 4370 (1950) 221 (1956) 1360 247 286 375 406 687 2490 2740 3650 3970
2021-01-23 08:30 2.89 537 4370 (1950) 221 (1956) 1360 247 286 375 406 687 2490 2740 3650 3970
2021-01-23 07:30 2.91 546 4370 (1950) 221 (1956) 1360 247 286 375 406 687 2490 2740 3650 3970
2021-01-23 06:30 2.91 546 4370 (1950) 221 (1956) 1360 247 286 375 406 687 2490 2740 3650 3970
2021-01-23 05:30 2.90 542 4370 (1950) 221 (1956) 1360 247 286 375 406 687 2490 2740 3650 3970
2021-01-23 04:30 2.92 551 4370 (1950) 221 (1956) 1360 247 286 375 406 687 2490 2740 3650 3970
2021-01-23 03:30 2.91 546 4370 (1950) 221 (1956) 1360 247 286 375 406 687 2490 2740 3650 3970
2021-01-23 02:30 2.91 546 4370 (1950) 221 (1956) 1360 247 286 375 406 687 2490 2740 3650 3970
2021-01-23 01:30 2.91 546 4370 (1950) 221 (1956) 1360 247 286 375 406 687 2490 2740 3650 3970
2021-01-23 00:30 2.90 542 4370 (1950) 221 (1956) 1360 247 286 375 406 687 2490 2740 3650 3970
2021-01-22 23:30 2.90 542 4540 (1949) 228 (1956) 1320 234 304 383 420 680 1760 2790 3640 3980
2021-01-22 22:30 2.90 542 4540 (1949) 228 (1956) 1320 234 304 383 420 680 1760 2790 3640 3980
2021-01-22 21:30 2.91 546 4540 (1949) 228 (1956) 1320 234 304 383 420 680 1760 2790 3640 3980
2021-01-22 20:30 2.90 542 4540 (1949) 228 (1956) 1320 234 304 383 420 680 1760 2790 3640 3980
2021-01-22 19:30 2.89 537 4540 (1949) 228 (1956) 1320 234 304 383 420 680 1760 2790 3640 3980
2021-01-22 18:30 2.90 542 4540 (1949) 228 (1956) 1320 234 304 383 420 680 1760 2790 3640 3980
2021-01-22 17:30 2.90 542 4540 (1949) 228 (1956) 1320 234 304 383 420 680 1760 2790 3640 3980
2021-01-22 16:30 2.90 542 4540 (1949) 228 (1956) 1320 234 304 383 420 680 1760 2790 3640 3980
2021-01-22 15:30 2.90 542 4540 (1949) 228 (1956) 1320 234 304 383 420 680 1760 2790 3640 3980
2021-01-22 14:30 2.92 551 4540 (1949) 228 (1956) 1320 234 304 383 420 680 1760 2790 3640 3980
2021-01-22 13:30 2.91 546 4540 (1949) 228 (1956) 1320 234 304 383 420 680 1760 2790 3640 3980
2021-01-22 12:30 2.92 551 4540 (1949) 228 (1956) 1320 234 304 383 420 680 1760 2790 3640 3980
2021-01-22 11:30 2.92 551 4540 (1949) 228 (1956) 1320 234 304 383 420 680 1760 2790 3640 3980
2021-01-22 10:30 2.90 542 4540 (1949) 228 (1956) 1320 234 304 383 420 680 1760 2790 3640 3980
2021-01-22 09:30 2.91 546 4540 (1949) 228 (1956) 1320 234 304 383 420 680 1760 2790 3640 3980
2021-01-22 08:30 2.92 551 4540 (1949) 228 (1956) 1320 234 304 383 420 680 1760 2790 3640 3980
2021-01-22 07:30 2.92 551 4540 (1949) 228 (1956) 1320 234 304 383 420 680 1760 2790 3640 3980
2021-01-22 06:30 2.92 551 4540 (1949) 228 (1956) 1320 234 304 383 420 680 1760 2790 3640 3980
2021-01-22 05:30 2.91 546 4540 (1949) 228 (1956) 1320 234 304 383 420 680 1760 2790 3640 3980
2021-01-22 04:30 2.93 555 4540 (1949) 228 (1956) 1320 234 304 383 420 680 1760 2790 3640 3980
2021-01-22 03:30 2.93 555 4540 (1949) 228 (1956) 1320 234 304 383 420 680 1760 2790 3640 3980
2021-01-22 02:30 2.93 555 4540 (1949) 228 (1956) 1320 234 304 383 420 680 1760 2790 3640 3980
2021-01-22 01:30 2.94 560 4540 (1949) 228 (1956) 1320 234 304 383 420 680 1760 2790 3640 3980
2021-01-22 00:30 2.93 555 4540 (1949) 228 (1956) 1320 234 304 383 420 680 1760 2790 3640 3980
2021-01-21 23:30 2.94 560 5010 (1950) 228 (1956) 1310 234 296 376 405 581 1770 2980 3690 3970
2021-01-21 22:30 2.94 560 5010 (1950) 228 (1956) 1310 234 296 376 405 581 1770 2980 3690 3970
2021-01-21 21:30 2.94 560 5010 (1950) 228 (1956) 1310 234 296 376 405 581 1770 2980 3690 3970
2021-01-21 20:30 2.95 564 5010 (1950) 228 (1956) 1310 234 296 376 405 581 1770 2980 3690 3970
2021-01-21 19:30 2.97 573 5010 (1950) 228 (1956) 1310 234 296 376 405 581 1770 2980 3690 3970
2021-01-21 18:30 2.97 573 5010 (1950) 228 (1956) 1310 234 296 376 405 581 1770 2980 3690 3970
2021-01-21 17:30 2.98 578 5010 (1950) 228 (1956) 1310 234 296 376 405 581 1770 2980 3690 3970
2021-01-21 16:30 3.00 587 5010 (1950) 228 (1956) 1310 234 296 376 405 581 1770 2980 3690 3970
2021-01-21 15:30 3.02 596 5010 (1950) 228 (1956) 1310 234 296 376 405 581 1770 2980 3690 3970
2021-01-21 14:30 3.06 615 5010 (1950) 228 (1956) 1310 234 296 376 405 581 1770 2980 3690 3970
2021-01-21 13:30 3.11 638 5010 (1950) 228 (1956) 1310 234 296 376 405 581 1770 2980 3690 3970
2021-01-21 12:30 3.16 662 5010 (1950) 228 (1956) 1310 234 296 376 405 581 1770 2980 3690 3970
2021-01-21 11:30 3.22 691 5010 (1950) 228 (1956) 1310 234 296 376 405 581 1770 2980 3690 3970
2021-01-21 10:30 3.28 721 5010 (1950) 228 (1956) 1310 234 296 376 405 581 1770 2980 3690 3970
2021-01-21 09:30 3.32 740 5010 (1950) 228 (1956) 1310 234 296 376 405 581 1770 2980 3690 3970
2021-01-21 08:30 3.32 740 5010 (1950) 228 (1956) 1310 234 296 376 405 581 1770 2980 3690 3970
2021-01-21 07:30 3.31 735 5010 (1950) 228 (1956) 1310 234 296 376 405 581 1770 2980 3690 3970
2021-01-21 06:30 3.32 740 5010 (1950) 228 (1956) 1310 234 296 376 405 581 1770 2980 3690 3970
2021-01-21 05:30 3.32 740 5010 (1950) 228 (1956) 1310 234 296 376 405 581 1770 2980 3690 3970
2021-01-21 04:30 3.31 735 5010 (1950) 228 (1956) 1310 234 296 376 405 581 1770 2980 3690 3970
2021-01-21 03:30 3.32 740 5010 (1950) 228 (1956) 1310 234 296 376 405 581 1770 2980 3690 3970
2021-01-21 02:30 3.33 746 5010 (1950) 228 (1956) 1310 234 296 376 405 581 1770 2980 3690 3970
2021-01-21 01:30 3.31 735 5010 (1950) 228 (1956) 1310 234 296 376 405 581 1770 2980 3690 3970
2021-01-21 00:30 3.32 740 5010 (1950) 228 (1956) 1310 234 296 376 405 581 1770 2980 3690 3970
2021-01-20 23:30 3.32 740 5410 (1950) 226 (1956) 1310 234 300 375 407 619 1820 2810 3710 3940
2021-01-20 22:30 3.32 740 5410 (1950) 226 (1956) 1310 234 300 375 407 619 1820 2810 3710 3940
2021-01-20 21:30 3.32 740 5410 (1950) 226 (1956) 1310 234 300 375 407 619 1820 2810 3710 3940
2021-01-20 20:30 3.32 740 5410 (1950) 226 (1956) 1310 234 300 375 407 619 1820 2810 3710 3940
2021-01-20 19:30 3.32 740 5410 (1950) 226 (1956) 1310 234 300 375 407 619 1820 2810 3710 3940
2021-01-20 18:30 3.32 740 5410 (1950) 226 (1956) 1310 234 300 375 407 619 1820 2810 3710 3940
2021-01-20 17:30 3.32 740 5410 (1950) 226 (1956) 1310 234 300 375 407 619 1820 2810 3710 3940
2021-01-20 16:30 3.32 740 5410 (1950) 226 (1956) 1310 234 300 375 407 619 1820 2810 3710 3940
2021-01-20 15:30 3.30 730 5410 (1950) 226 (1956) 1310 234 300 375 407 619 1820 2810 3710 3940
2021-01-20 14:30 3.30 730 5410 (1950) 226 (1956) 1310 234 300 375 407 619 1820 2810 3710 3940
2021-01-20 13:30 3.31 735 5410 (1950) 226 (1956) 1310 234 300 375 407 619 1820 2810 3710 3940
2021-01-20 12:30 3.30 730 5410 (1950) 226 (1956) 1310 234 300 375 407 619 1820 2810 3710 3940
2021-01-20 11:30 3.30 730 5410 (1950) 226 (1956) 1310 234 300 375 407 619 1820 2810 3710 3940
2021-01-20 10:30 3.31 735 5410 (1950) 226 (1956) 1310 234 300 375 407 619 1820 2810 3710 3940
2021-01-20 09:30 3.32 740 5410 (1950) 226 (1956) 1310 234 300 375 407 619 1820 2810 3710 3940
2021-01-20 08:30 3.33 746 5410 (1950) 226 (1956) 1310 234 300 375 407 619 1820 2810 3710 3940
2021-01-20 07:30 3.33 746 5410 (1950) 226 (1956) 1310 234 300 375 407 619 1820 2810 3710 3940
2021-01-20 06:30 3.31 735 5410 (1950) 226 (1956) 1310 234 300 375 407 619 1820 2810 3710 3940
2021-01-20 05:30 3.32 740 5410 (1950) 226 (1956) 1310 234 300 375 407 619 1820 2810 3710 3940
2021-01-20 04:30 3.31 735 5410 (1950) 226 (1956) 1310 234 300 375 407 619 1820 2810 3710 3940
2021-01-20 03:30 3.31 735 5410 (1950) 226 (1956) 1310 234 300 375 407 619 1820 2810 3710 3940
2021-01-20 02:30 3.31 735 5410 (1950) 226 (1956) 1310 234 300 375 407 619 1820 2810 3710 3940
2021-01-20 01:30 3.32 740 5410 (1950) 226 (1956) 1310 234 300 375 407 619 1820 2810 3710 3940
2021-01-20 00:30 3.30 730 5410 (1950) 226 (1956) 1310 234 300 375 407 619 1820 2810 3710 3940
2021-01-19 23:30 3.31 735 5410 (1950) 208 (1956) 1290 236 291 357 376 641 1830 2360 3600 4010
2021-01-19 22:30 3.30 730 5410 (1950) 208 (1956) 1290 236 291 357 376 641 1830 2360 3600 4010
2021-01-19 21:30 3.30 730 5410 (1950) 208 (1956) 1290 236 291 357 376 641 1830 2360 3600 4010
2021-01-19 20:30 3.27 716 5410 (1950) 208 (1956) 1290 236 291 357 376 641 1830 2360 3600 4010
2021-01-19 19:30 3.28 721 5410 (1950) 208 (1956) 1290 236 291 357 376 641 1830 2360 3600 4010
2021-01-19 18:30 3.26 711 5410 (1950) 208 (1956) 1290 236 291 357 376 641 1830 2360 3600 4010
2021-01-19 17:30 3.25 706 5410 (1950) 208 (1956) 1290 236 291 357 376 641 1830 2360 3600 4010
2021-01-19 16:30 3.24 701 5410 (1950) 208 (1956) 1290 236 291 357 376 641 1830 2360 3600 4010
2021-01-19 15:30 3.22 691 5410 (1950) 208 (1956) 1290 236 291 357 376 641 1830 2360 3600 4010
2021-01-19 14:30 3.20 681 5410 (1950) 208 (1956) 1290 236 291 357 376 641 1830 2360 3600 4010
2021-01-19 13:30 3.16 662 5410 (1950) 208 (1956) 1290 236 291 357 376 641 1830 2360 3600 4010
2021-01-19 12:30 3.10 633 5410 (1950) 208 (1956) 1290 236 291 357 376 641 1830 2360 3600 4010
2021-01-19 11:30 3.06 615 5410 (1950) 208 (1956) 1290 236 291 357 376 641 1830 2360 3600 4010
2021-01-19 10:30 3.01 591 5410 (1950) 208 (1956) 1290 236 291 357 376 641 1830 2360 3600 4010
2021-01-19 09:30 2.99 582 5410 (1950) 208 (1956) 1290 236 291 357 376 641 1830 2360 3600 4010
2021-01-19 08:30 2.99 582 5410 (1950) 208 (1956) 1290 236 291 357 376 641 1830 2360 3600 4010
2021-01-19 07:30 2.99 582 5410 (1950) 208 (1956) 1290 236 291 357 376 641 1830 2360 3600 4010
2021-01-19 06:30 2.98 578 5410 (1950) 208 (1956) 1290 236 291 357 376 641 1830 2360 3600 4010
2021-01-19 05:30 2.99 582 5410 (1950) 208 (1956) 1290 236 291 357 376 641 1830 2360 3600 4010
2021-01-19 04:30 2.98 578 5410 (1950) 208 (1956) 1290 236 291 357 376 641 1830 2360 3600 4010
2021-01-19 03:30 2.98 578 5410 (1950) 208 (1956) 1290 236 291 357 376 641 1830 2360 3600 4010
2021-01-19 02:30 2.97 573 5410 (1950) 208 (1956) 1290 236 291 357 376 641 1830 2360 3600 4010
2021-01-19 01:30 2.99 582 5410 (1950) 208 (1956) 1290 236 291 357 376 641 1830 2360 3600 4010
2021-01-19 00:30 2.99 582 5410 (1950) 208 (1956) 1290 236 291 357 376 641 1830 2360 3600 4010
2021-01-18 23:30 2.98 578 4540 (1950) 202 (1956) 1270 236 291 356 372 663 2040 2540 3570 3940
2021-01-18 22:30 2.99 582 4540 (1950) 202 (1956) 1270 236 291 356 372 663 2040 2540 3570 3940
2021-01-18 21:30 2.97 573 4540 (1950) 202 (1956) 1270 236 291 356 372 663 2040 2540 3570 3940
2021-01-18 20:30 2.98 578 4540 (1950) 202 (1956) 1270 236 291 356 372 663 2040 2540 3570 3940
2021-01-18 19:30 2.98 578 4540 (1950) 202 (1956) 1270 236 291 356 372 663 2040 2540 3570 3940
2021-01-18 18:30 2.97 573 4540 (1950) 202 (1956) 1270 236 291 356 372 663 2040 2540 3570 3940
2021-01-18 17:30 2.97 573 4540 (1950) 202 (1956) 1270 236 291 356 372 663 2040 2540 3570 3940
2021-01-18 16:30 2.98 578 4540 (1950) 202 (1956) 1270 236 291 356 372 663 2040 2540 3570 3940
2021-01-18 15:30 2.98 578 4540 (1950) 202 (1956) 1270 236 291 356 372 663 2040 2540 3570 3940
2021-01-18 14:30 2.98 578 4540 (1950) 202 (1956) 1270 236 291 356 372 663 2040 2540 3570 3940
2021-01-18 13:30 2.99 582 4540 (1950) 202 (1956) 1270 236 291 356 372 663 2040 2540 3570 3940
2021-01-18 12:30 2.98 578 4540 (1950) 202 (1956) 1270 236 291 356 372 663 2040 2540 3570 3940
2021-01-18 11:30 2.98 578 4540 (1950) 202 (1956) 1270 236 291 356 372 663 2040 2540 3570 3940
2021-01-18 10:30 2.98 578 4540 (1950) 202 (1956) 1270 236 291 356 372 663 2040 2540 3570 3940
2021-01-18 09:30 2.98 578 4540 (1950) 202 (1956) 1270 236 291 356 372 663 2040 2540 3570 3940
2021-01-18 08:30 3.00 587 4540 (1950) 202 (1956) 1270 236 291 356 372 663 2040 2540 3570 3940
2021-01-18 07:30 3.00 587 4540 (1950) 202 (1956) 1270 236 291 356 372 663 2040 2540 3570 3940
2021-01-18 06:30 2.99 582 4540 (1950) 202 (1956) 1270 236 291 356 372 663 2040 2540 3570 3940
2021-01-18 05:30 3.00 587 4540 (1950) 202 (1956) 1270 236 291 356 372 663 2040 2540 3570 3940
2021-01-18 04:30 2.99 582 4540 (1950) 202 (1956) 1270 236 291 356 372 663 2040 2540 3570 3940
2021-01-18 03:30 2.99 582 4540 (1950) 202 (1956) 1270 236 291 356 372 663 2040 2540 3570 3940
2021-01-18 02:30 2.99 582 4540 (1950) 202 (1956) 1270 236 291 356 372 663 2040 2540 3570 3940
2021-01-18 01:30 2.99 582 4540 (1950) 202 (1956) 1270 236 291 356 372 663 2040 2540 3570 3940
2021-01-18 00:30 3.01 591 4540 (1950) 202 (1956) 1270 236 291 356 372 663 2040 2540 3570 3940
2021-01-17 23:30 2.98 578 4010 (1985) 202 (1956) 1230 237 302 359 382 584 1720 2580 3570 3760
2021-01-17 22:30 3.00 587 4010 (1985) 202 (1956) 1230 237 302 359 382 584 1720 2580 3570 3760
2021-01-17 21:30 2.98 578 4010 (1985) 202 (1956) 1230 237 302 359 382 584 1720 2580 3570 3760
2021-01-17 20:30 2.99 582 4010 (1985) 202 (1956) 1230 237 302 359 382 584 1720 2580 3570 3760
2021-01-17 19:30 2.98 578 4010 (1985) 202 (1956) 1230 237 302 359 382 584 1720 2580 3570 3760
2021-01-17 18:30 2.99 582 4010 (1985) 202 (1956) 1230 237 302 359 382 584 1720 2580 3570 3760
2021-01-17 17:30 2.99 582 4010 (1985) 202 (1956) 1230 237 302 359 382 584 1720 2580 3570 3760
2021-01-17 16:30 2.99 582 4010 (1985) 202 (1956) 1230 237 302 359 382 584 1720 2580 3570 3760
2021-01-17 15:30 3.00 587 4010 (1985) 202 (1956) 1230 237 302 359 382 584 1720 2580 3570 3760
2021-01-17 14:30 2.98 578 4010 (1985) 202 (1956) 1230 237 302 359 382 584 1720 2580 3570 3760
2021-01-17 13:30 2.98 578 4010 (1985) 202 (1956) 1230 237 302 359 382 584 1720 2580 3570 3760
2021-01-17 12:30 2.98 578 4010 (1985) 202 (1956) 1230 237 302 359 382 584 1720 2580 3570 3760
2021-01-17 11:30 2.99 582 4010 (1985) 202 (1956) 1230 237 302 359 382 584 1720 2580 3570 3760
2021-01-17 10:30 3.00 587 4010 (1985) 202 (1956) 1230 237 302 359 382 584 1720 2580 3570 3760
2021-01-17 09:30 3.00 587 4010 (1985) 202 (1956) 1230 237 302 359 382 584 1720 2580 3570 3760
2021-01-17 08:30 3.01 591 4010 (1985) 202 (1956) 1230 237 302 359 382 584 1720 2580 3570 3760
2021-01-17 07:30 3.00 587 4010 (1985) 202 (1956) 1230 237 302 359 382 584 1720 2580 3570 3760
2021-01-17 06:30 3.00 587 4010 (1985) 202 (1956) 1230 237 302 359 382 584 1720 2580 3570 3760
2021-01-17 05:30 3.01 591 4010 (1985) 202 (1956) 1230 237 302 359 382 584 1720 2580 3570 3760
2021-01-17 04:30 3.01 591 4010 (1985) 202 (1956) 1230 237 302 359 382 584 1720 2580 3570 3760
2021-01-17 03:30 3.01 591 4010 (1985) 202 (1956) 1230 237 302 359 382 584 1720 2580 3570 3760
2021-01-17 02:30 3.00 587 4010 (1985) 202 (1956) 1230 237 302 359 382 584 1720 2580 3570 3760
2021-01-17 01:30 3.00 587 4010 (1985) 202 (1956) 1230 237 302 359 382 584 1720 2580 3570 3760
2021-01-16 22:30 3.01 591 3990 (1985) 200 (1956) 1220 237 300 357 407 506 1900 2410 3590 3700
2021-01-16 21:30 3.01 591 3990 (1985) 200 (1956) 1220 237 300 357 407 506 1900 2410 3590 3700
2021-01-16 20:30 3.01 591 3990 (1985) 200 (1956) 1220 237 300 357 407 506 1900 2410 3590 3700
2021-01-16 19:30 3.01 591 3990 (1985) 200 (1956) 1220 237 300 357 407 506 1900 2410 3590 3700
2021-01-16 18:30 3.02 596 3990 (1985) 200 (1956) 1220 237 300 357 407 506 1900 2410 3590 3700
2021-01-16 17:30 3.00 587 3990 (1985) 200 (1956) 1220 237 300 357 407 506 1900 2410 3590 3700
2021-01-16 16:30 3.01 591 3990 (1985) 200 (1956) 1220 237 300 357 407 506 1900 2410 3590 3700
2021-01-16 15:30 3.00 587 3990 (1985) 200 (1956) 1220 237 300 357 407 506 1900 2410 3590 3700
2021-01-16 14:30 3.00 587 3990 (1985) 200 (1956) 1220 237 300 357 407 506 1900 2410 3590 3700
2021-01-16 13:30 3.01 591 3990 (1985) 200 (1956) 1220 237 300 357 407 506 1900 2410 3590 3700
2021-01-16 12:30 3.00 587 3990 (1985) 200 (1956) 1220 237 300 357 407 506 1900 2410 3590 3700
2021-01-16 11:30 3.02 596 3990 (1985) 200 (1956) 1220 237 300 357 407 506 1900 2410 3590 3700
2021-01-16 10:30 3.02 596 3990 (1985) 200 (1956) 1220 237 300 357 407 506 1900 2410 3590 3700
2021-01-16 09:30 3.00 587 3990 (1985) 200 (1956) 1220 237 300 357 407 506 1900 2410 3590 3700
2021-01-16 08:30 3.02 596 3990 (1985) 200 (1956) 1220 237 300 357 407 506 1900 2410 3590 3700
2021-01-16 07:30 3.00 587 3990 (1985) 200 (1956) 1220 237 300 357 407 506 1900 2410 3590 3700
2021-01-16 06:30 3.02 596 3990 (1985) 200 (1956) 1220 237 300 357 407 506 1900 2410 3590 3700
2021-01-16 05:30 3.02 596 3990 (1985) 200 (1956) 1220 237 300 357 407 506 1900 2410 3590 3700
2021-01-16 04:30 3.02 596 3990 (1985) 200 (1956) 1220 237 300 357 407 506 1900 2410 3590 3700
2021-01-16 03:30 3.04 605 3990 (1985) 200 (1956) 1220 237 300 357 407 506 1900 2410 3590 3700
2021-01-16 02:30 3.03 601 3990 (1985) 200 (1956) 1220 237 300 357 407 506 1900 2410 3590 3700
2021-01-16 01:30 3.03 601 3990 (1985) 200 (1956) 1220 237 300 357 407 506 1900 2410 3590 3700
2021-01-16 00:30 3.04 605 3990 (1985) 200 (1956) 1220 237 300 357 407 506 1900 2410 3590 3700
2021-01-15 23:30 3.04 605 3970 (1985) 200 (1956) 1200 237 279 361 409 537 1740 2590 3590 3670
2021-01-15 22:30 3.07 619 3970 (1985) 200 (1956) 1200 237 279 361 409 537 1740 2590 3590 3670
2021-01-15 21:30 3.09 629 3970 (1985) 200 (1956) 1200 237 279 361 409 537 1740 2590 3590 3670
2021-01-15 20:30 3.09 629 3970 (1985) 200 (1956) 1200 237 279 361 409 537 1740 2590 3590 3670
2021-01-15 19:30 3.11 638 3970 (1985) 200 (1956) 1200 237 279 361 409 537 1740 2590 3590 3670
2021-01-15 18:30 3.13 648 3970 (1985) 200 (1956) 1200 237 279 361 409 537 1740 2590 3590 3670
2021-01-15 17:30 3.13 648 3970 (1985) 200 (1956) 1200 237 279 361 409 537 1740 2590 3590 3670
2021-01-15 16:30 3.13 648 3970 (1985) 200 (1956) 1200 237 279 361 409 537 1740 2590 3590 3670
2021-01-15 15:30 3.13 648 3970 (1985) 200 (1956) 1200 237 279 361 409 537 1740 2590 3590 3670
2021-01-15 14:30 3.14 652 3970 (1985) 200 (1956) 1200 237 279 361 409 537 1740 2590 3590 3670
2021-01-15 13:30 3.14 652 3970 (1985) 200 (1956) 1200 237 279 361 409 537 1740 2590 3590 3670
2021-01-15 12:30 3.13 648 3970 (1985) 200 (1956) 1200 237 279 361 409 537 1740 2590 3590 3670
2021-01-15 11:30 3.13 648 3970 (1985) 200 (1956) 1200 237 279 361 409 537 1740 2590 3590 3670
2021-01-15 10:30 3.14 652 3970 (1985) 200 (1956) 1200 237 279 361 409 537 1740 2590 3590 3670
2021-01-15 09:30 3.13 648 3970 (1985) 200 (1956) 1200 237 279 361 409 537 1740 2590 3590 3670
2021-01-15 08:30 3.14 652 3970 (1985) 200 (1956) 1200 237 279 361 409 537 1740 2590 3590 3670
2021-01-15 07:30 3.15 657 3970 (1985) 200 (1956) 1200 237 279 361 409 537 1740 2590 3590 3670
2021-01-15 06:30 3.14 652 3970 (1985) 200 (1956) 1200 237 279 361 409 537 1740 2590 3590 3670
2021-01-15 05:30 3.14 652 3970 (1985) 200 (1956) 1200 237 279 361 409 537 1740 2590 3590 3670
2021-01-15 04:30 3.16 662 3970 (1985) 200 (1956) 1200 237 279 361 409 537 1740 2590 3590 3670
2021-01-15 03:30 3.15 657 3970 (1985) 200 (1956) 1200 237 279 361 409 537 1740 2590 3590 3670
2021-01-15 02:30 3.14 652 3970 (1985) 200 (1956) 1200 237 279 361 409 537 1740 2590 3590 3670
2021-01-15 01:30 3.14 652 3970 (1985) 200 (1956) 1200 237 279 361 409 537 1740 2590 3590 3670
2021-01-15 00:30 3.15 657 3970 (1985) 200 (1956) 1200 237 279 361 409 537 1740 2590 3590 3670
2021-01-14 23:30 3.13 648 3950 (1985) 200 (1956) 1210 237 288 394 416 585 1620 2410 3580 3700
2021-01-14 22:30 3.13 648 3950 (1985) 200 (1956) 1210 237 288 394 416 585 1620 2410 3580 3700
2021-01-14 21:30 3.13 648 3950 (1985) 200 (1956) 1210 237 288 394 416 585 1620 2410 3580 3700
2021-01-14 20:30 3.15 657 3950 (1985) 200 (1956) 1210 237 288 394 416 585 1620 2410 3580 3700
2021-01-14 19:30 3.15 657 3950 (1985) 200 (1956) 1210 237 288 394 416 585 1620 2410 3580 3700
2021-01-14 18:30 3.14 652 3950 (1985) 200 (1956) 1210 237 288 394 416 585 1620 2410 3580 3700
2021-01-14 17:30 3.14 652 3950 (1985) 200 (1956) 1210 237 288 394 416 585 1620 2410 3580 3700
2021-01-14 16:30 3.14 652 3950 (1985) 200 (1956) 1210 237 288 394 416 585 1620 2410 3580 3700
2021-01-14 15:30 3.14 652 3950 (1985) 200 (1956) 1210 237 288 394 416 585 1620 2410 3580 3700
2021-01-14 14:30 3.14 652 3950 (1985) 200 (1956) 1210 237 288 394 416 585 1620 2410 3580 3700
2021-01-14 13:30 3.14 652 3950 (1985) 200 (1956) 1210 237 288 394 416 585 1620 2410 3580 3700
2021-01-14 12:30 3.14 652 3950 (1985) 200 (1956) 1210 237 288 394 416 585 1620 2410 3580 3700
2021-01-14 11:30 3.13 648 3950 (1985) 200 (1956) 1210 237 288 394 416 585 1620 2410 3580 3700
2021-01-14 10:30 3.15 657 3950 (1985) 200 (1956) 1210 237 288 394 416 585 1620 2410 3580 3700
2021-01-14 09:30 3.16 662 3950 (1985) 200 (1956) 1210 237 288 394 416 585 1620 2410 3580 3700
2021-01-14 08:30 3.16 662 3950 (1985) 200 (1956) 1210 237 288 394 416 585 1620 2410 3580 3700
2021-01-14 07:30 3.15 657 3950 (1985) 200 (1956) 1210 237 288 394 416 585 1620 2410 3580 3700
2021-01-14 06:30 3.17 667 3950 (1985) 200 (1956) 1210 237 288 394 416 585 1620 2410 3580 3700
2021-01-14 05:30 3.16 662 3950 (1985) 200 (1956) 1210 237 288 394 416 585 1620 2410 3580 3700
2021-01-14 04:30 3.17 667 3950 (1985) 200 (1956) 1210 237 288 394 416 585 1620 2410 3580 3700
2021-01-14 03:30 3.17 667 3950 (1985) 200 (1956) 1210 237 288 394 416 585 1620 2410 3580 3700
2021-01-14 02:30 3.16 662 3950 (1985) 200 (1956) 1210 237 288 394 416 585 1620 2410 3580 3700
2021-01-14 01:30 3.15 657 3950 (1985) 200 (1956) 1210 237 288 394 416 585 1620 2410 3580 3700
2021-01-14 00:30 3.17 667 3950 (1985) 200 (1956) 1210 237 288 394 416 585 1620 2410 3580 3700
2021-01-13 23:30 3.17 667 3930 (1985) 200 (1956) 1200 239 283 402 415 566 1340 2310 3660 3730
2021-01-13 22:30 3.17 667 3930 (1985) 200 (1956) 1200 239 283 402 415 566 1340 2310 3660 3730
2021-01-13 21:30 3.18 672 3930 (1985) 200 (1956) 1200 239 283 402 415 566 1340 2310 3660 3730
2021-01-13 20:30 3.17 667 3930 (1985) 200 (1956) 1200 239 283 402 415 566 1340 2310 3660 3730
2021-01-13 19:30 3.18 672 3930 (1985) 200 (1956) 1200 239 283 402 415 566 1340 2310 3660 3730
2021-01-13 18:30 3.17 667 3930 (1985) 200 (1956) 1200 239 283 402 415 566 1340 2310 3660 3730
2021-01-13 17:30 3.19 676 3930 (1985) 200 (1956) 1200 239 283 402 415 566 1340 2310 3660 3730
2021-01-13 16:30 3.20 681 3930 (1985) 200 (1956) 1200 239 283 402 415 566 1340 2310 3660 3730
2021-01-13 15:30 3.21 686 3930 (1985) 200 (1956) 1200 239 283 402 415 566 1340 2310 3660 3730
2021-01-13 14:30 3.22 691 3930 (1985) 200 (1956) 1200 239 283 402 415 566 1340 2310 3660 3730
2021-01-13 13:30 3.23 696 3930 (1985) 200 (1956) 1200 239 283 402 415 566 1340 2310 3660 3730
2021-01-13 12:30 3.27 716 3930 (1985) 200 (1956) 1200 239 283 402 415 566 1340 2310 3660 3730
2021-01-13 11:30 3.28 721 3930 (1985) 200 (1956) 1200 239 283 402 415 566 1340 2310 3660 3730
2021-01-13 10:30 3.32 740 3930 (1985) 200 (1956) 1200 239 283 402 415 566 1340 2310 3660 3730
2021-01-13 09:30 3.32 740 3930 (1985) 200 (1956) 1200 239 283 402 415 566 1340 2310 3660 3730
2021-01-13 08:30 3.33 746 3930 (1985) 200 (1956) 1200 239 283 402 415 566 1340 2310 3660 3730
2021-01-13 07:30 3.33 746 3930 (1985) 200 (1956) 1200 239 283 402 415 566 1340 2310 3660 3730
2021-01-13 06:30 3.33 746 3930 (1985) 200 (1956) 1200 239 283 402 415 566 1340 2310 3660 3730
2021-01-13 05:30 3.32 740 3930 (1985) 200 (1956) 1200 239 283 402 415 566 1340 2310 3660 3730
2021-01-13 04:30 3.33 746 3930 (1985) 200 (1956) 1200 239 283 402 415 566 1340 2310 3660 3730
2021-01-13 03:30 3.34 751 3930 (1985) 200 (1956) 1200 239 283 402 415 566 1340 2310 3660 3730
2021-01-13 02:30 3.32 740 3930 (1985) 200 (1956) 1200 239 283 402 415 566 1340 2310 3660 3730
2021-01-13 01:30 3.31 735 3930 (1985) 200 (1956) 1200 239 283 402 415 566 1340 2310 3660 3730
2021-01-13 00:30 3.32 740 3930 (1985) 200 (1956) 1200 239 283 402 415 566 1340 2310 3660 3730
2021-01-12 23:30 3.32 740 3930 (1985) 200 (1956) 1160 245 286 355 436 535 1140 2050 3660 3840
2021-01-12 22:30 3.32 740 3930 (1985) 200 (1956) 1160 245 286 355 436 535 1140 2050 3660 3840
2021-01-12 21:30 3.33 746 3930 (1985) 200 (1956) 1160 245 286 355 436 535 1140 2050 3660 3840
2021-01-12 20:30 3.32 740 3930 (1985) 200 (1956) 1160 245 286 355 436 535 1140 2050 3660 3840
2021-01-12 19:30 3.33 746 3930 (1985) 200 (1956) 1160 245 286 355 436 535 1140 2050 3660 3840
2021-01-12 18:30 3.32 740 3930 (1985) 200 (1956) 1160 245 286 355 436 535 1140 2050 3660 3840
2021-01-12 17:30 3.32 740 3930 (1985) 200 (1956) 1160 245 286 355 436 535 1140 2050 3660 3840
2021-01-12 16:30 3.33 746 3930 (1985) 200 (1956) 1160 245 286 355 436 535 1140 2050 3660 3840
2021-01-12 15:30 3.32 740 3930 (1985) 200 (1956) 1160 245 286 355 436 535 1140 2050 3660 3840
2021-01-12 14:30 3.32 740 3930 (1985) 200 (1956) 1160 245 286 355 436 535 1140 2050 3660 3840
2021-01-12 13:30 3.32 740 3930 (1985) 200 (1956) 1160 245 286 355 436 535 1140 2050 3660 3840
2021-01-12 12:30 3.32 740 3930 (1985) 200 (1956) 1160 245 286 355 436 535 1140 2050 3660 3840
2021-01-12 11:30 3.31 739 3930 (1985) 200 (1956) 1160 245 286 355 436 535 1140 2050 3660 3840
2021-01-12 10:30 3.34 754 3930 (1985) 200 (1956) 1160 245 286 355 436 535 1140 2050 3660 3840
2021-01-12 09:30 3.35 759 3930 (1985) 200 (1956) 1160 245 286 355 436 535 1140 2050 3660 3840
2021-01-12 08:30 3.34 754 3930 (1985) 200 (1956) 1160 245 286 355 436 535 1140 2050 3660 3840
2021-01-12 07:30 3.35 759 3930 (1985) 200 (1956) 1160 245 286 355 436 535 1140 2050 3660 3840
2021-01-12 06:30 3.35 759 3930 (1985) 200 (1956) 1160 245 286 355 436 535 1140 2050 3660 3840
2021-01-12 05:30 3.35 759 3930 (1985) 200 (1956) 1160 245 286 355 436 535 1140 2050 3660 3840
2021-01-12 04:30 3.34 754 3930 (1985) 200 (1956) 1160 245 286 355 436 535 1140 2050 3660 3840
2021-01-12 03:30 3.35 759 3930 (1985) 200 (1956) 1160 245 286 355 436 535 1140 2050 3660 3840
2021-01-12 02:30 3.37 769 3930 (1985) 200 (1956) 1160 245 286 355 436 535 1140 2050 3660 3840
2021-01-12 01:30 3.37 769 3930 (1985) 200 (1956) 1160 245 286 355 436 535 1140 2050 3660 3840
2021-01-12 00:30 3.37 769 3930 (1985) 200 (1956) 1160 245 286 355 436 535 1140 2050 3660 3840
2021-01-11 23:30 3.36 764 5490 (2020) 200 (1956) 1230 239 281 348 438 550 1500 2430 3550 3730
2021-01-11 22:30 3.37 769 5490 (2020) 200 (1956) 1230 239 281 348 438 550 1500 2430 3550 3730
2021-01-11 21:30 3.39 780 5490 (2020) 200 (1956) 1230 239 281 348 438 550 1500 2430 3550 3730
2021-01-11 20:30 3.39 780 5490 (2020) 200 (1956) 1230 239 281 348 438 550 1500 2430 3550 3730
2021-01-11 19:30 3.39 780 5490 (2020) 200 (1956) 1230 239 281 348 438 550 1500 2430 3550 3730
2021-01-11 18:30 3.38 774 5490 (2020) 200 (1956) 1230 239 281 348 438 550 1500 2430 3550 3730
2021-01-11 17:30 3.40 785 5490 (2020) 200 (1956) 1230 239 281 348 438 550 1500 2430 3550 3730
2021-01-11 16:30 3.41 790 5490 (2020) 200 (1956) 1230 239 281 348 438 550 1500 2430 3550 3730
2021-01-11 15:30 3.42 795 5490 (2020) 200 (1956) 1230 239 281 348 438 550 1500 2430 3550 3730
2021-01-11 14:30 3.46 816 5490 (2020) 200 (1956) 1230 239 281 348 438 550 1500 2430 3550 3730
2021-01-11 13:30 3.49 832 5490 (2020) 200 (1956) 1230 239 281 348 438 550 1500 2430 3550 3730
2021-01-11 12:30 3.54 859 5490 (2020) 200 (1956) 1230 239 281 348 438 550 1500 2430 3550 3730
2021-01-11 11:30 3.59 886 5490 (2020) 200 (1956) 1230 239 281 348 438 550 1500 2430 3550 3730
2021-01-11 10:30 3.63 908 5490 (2020) 200 (1956) 1230 239 281 348 438 550 1500 2430 3550 3730
2021-01-11 09:30 3.68 935 5490 (2020) 200 (1956) 1230 239 281 348 438 550 1500 2430 3550 3730
2021-01-11 08:30 3.67 930 5490 (2020) 200 (1956) 1230 239 281 348 438 550 1500 2430 3550 3730
2021-01-11 07:30 3.67 930 5490 (2020) 200 (1956) 1230 239 281 348 438 550 1500 2430 3550 3730
2021-01-11 06:30 3.68 935 5490 (2020) 200 (1956) 1230 239 281 348 438 550 1500 2430 3550 3730
2021-01-11 05:30 3.68 935 5490 (2020) 200 (1956) 1230 239 281 348 438 550 1500 2430 3550 3730
2021-01-11 04:30 3.69 941 5490 (2020) 200 (1956) 1230 239 281 348 438 550 1500 2430 3550 3730
2021-01-11 03:30 3.67 930 5490 (2020) 200 (1956) 1230 239 281 348 438 550 1500 2430 3550 3730
2021-01-11 02:30 3.68 935 5490 (2020) 200 (1956) 1230 239 281 348 438 550 1500 2430 3550 3730
2021-01-11 01:30 3.68 935 5490 (2020) 200 (1956) 1230 239 281 348 438 550 1500 2430 3550 3730
2021-01-11 00:30 3.68 935 5490 (2020) 200 (1956) 1230 239 281 348 438 550 1500 2430 3550 3730
2021-01-10 23:30 3.67 930 3860 (1986) 200 (1956) 1220 243 277 364 436 629 1680 2160 3490 3750
2021-01-10 22:30 3.68 935 3860 (1986) 200 (1956) 1220 243 277 364 436 629 1680 2160 3490 3750
2021-01-10 21:30 3.67 930 3860 (1986) 200 (1956) 1220 243 277 364 436 629 1680 2160 3490 3750
2021-01-10 20:30 3.68 935 3860 (1986) 200 (1956) 1220 243 277 364 436 629 1680 2160 3490 3750
2021-01-10 19:30 3.68 935 3860 (1986) 200 (1956) 1220 243 277 364 436 629 1680 2160 3490 3750
2021-01-10 18:30 3.69 941 3860 (1986) 200 (1956) 1220 243 277 364 436 629 1680 2160 3490 3750
2021-01-10 17:30 3.69 941 3860 (1986) 200 (1956) 1220 243 277 364 436 629 1680 2160 3490 3750
2021-01-10 16:30 3.67 930 3860 (1986) 200 (1956) 1220 243 277 364 436 629 1680 2160 3490 3750
2021-01-10 15:30 3.68 935 3860 (1986) 200 (1956) 1220 243 277 364 436 629 1680 2160 3490 3750
2021-01-10 14:30 3.69 941 3860 (1986) 200 (1956) 1220 243 277 364 436 629 1680 2160 3490 3750
2021-01-10 13:30 3.69 941 3860 (1986) 200 (1956) 1220 243 277 364 436 629 1680 2160 3490 3750
2021-01-10 12:30 3.69 941 3860 (1986) 200 (1956) 1220 243 277 364 436 629 1680 2160 3490 3750
2021-01-10 11:30 3.68 935 3860 (1986) 200 (1956) 1220 243 277 364 436 629 1680 2160 3490 3750
2021-01-10 10:30 3.69 941 3860 (1986) 200 (1956) 1220 243 277 364 436 629 1680 2160 3490 3750
2021-01-10 09:30 3.70 946 3860 (1986) 200 (1956) 1220 243 277 364 436 629 1680 2160 3490 3750
2021-01-10 08:30 3.69 941 3860 (1986) 200 (1956) 1220 243 277 364 436 629 1680 2160 3490 3750
2021-01-10 07:30 3.69 941 3860 (1986) 200 (1956) 1220 243 277 364 436 629 1680 2160 3490 3750
2021-01-10 06:30 3.69 941 3860 (1986) 200 (1956) 1220 243 277 364 436 629 1680 2160 3490 3750
2021-01-10 05:30 3.69 941 3860 (1986) 200 (1956) 1220 243 277 364 436 629 1680 2160 3490 3750
2021-01-10 04:30 3.68 935 3860 (1986) 200 (1956) 1220 243 277 364 436 629 1680 2160 3490 3750
2021-01-10 03:30 3.70 946 3860 (1986) 200 (1956) 1220 243 277 364 436 629 1680 2160 3490 3750
2021-01-10 02:30 3.69 941 3860 (1986) 200 (1956) 1220 243 277 364 436 629 1680 2160 3490 3750
2021-01-10 01:30 3.70 946 3860 (1986) 200 (1956) 1220 243 277 364 436 629 1680 2160 3490 3750
2021-01-09 23:30 3.70 946 3840 (2016) 202 (1956) 1240 243 274 382 430 658 1750 2240 3490 3750
2021-01-09 22:30 3.72 957 3840 (2016) 202 (1956) 1240 243 274 382 430 658 1750 2240 3490 3750
2021-01-09 20:30 3.73 963 3840 (2016) 202 (1956) 1240 243 274 382 430 658 1750 2240 3490 3750
2021-01-09 19:30 3.71 952 3840 (2016) 202 (1956) 1240 243 274 382 430 658 1750 2240 3490 3750
2021-01-09 18:30 3.71 952 3840 (2016) 202 (1956) 1240 243 274 382 430 658 1750 2240 3490 3750
2021-01-09 17:30 3.71 952 3840 (2016) 202 (1956) 1240 243 274 382 430 658 1750 2240 3490 3750
2021-01-09 16:30 3.70 946 3840 (2016) 202 (1956) 1240 243 274 382 430 658 1750 2240 3490 3750
2021-01-09 15:30 3.70 946 3840 (2016) 202 (1956) 1240 243 274 382 430 658 1750 2240 3490 3750
2021-01-09 14:30 3.72 957 3840 (2016) 202 (1956) 1240 243 274 382 430 658 1750 2240 3490 3750
2021-01-09 13:30 3.72 957 3840 (2016) 202 (1956) 1240 243 274 382 430 658 1750 2240 3490 3750
2021-01-09 12:30 3.73 963 3840 (2016) 202 (1956) 1240 243 274 382 430 658 1750 2240 3490 3750
2021-01-09 11:30 3.71 952 3840 (2016) 202 (1956) 1240 243 274 382 430 658 1750 2240 3490 3750
2021-01-09 10:30 3.72 957 3840 (2016) 202 (1956) 1240 243 274 382 430 658 1750 2240 3490 3750
2021-01-09 09:30 3.73 963 3840 (2016) 202 (1956) 1240 243 274 382 430 658 1750 2240 3490 3750
2021-01-09 08:30 3.72 957 3840 (2016) 202 (1956) 1240 243 274 382 430 658 1750 2240 3490 3750
2021-01-09 07:30 3.75 974 3840 (2016) 202 (1956) 1240 243 274 382 430 658 1750 2240 3490 3750
2021-01-09 06:30 3.74 969 3840 (2016) 202 (1956) 1240 243 274 382 430 658 1750 2240 3490 3750
2021-01-09 05:30 3.74 969 3840 (2016) 202 (1956) 1240 243 274 382 430 658 1750 2240 3490 3750
2021-01-09 04:30 3.75 974 3840 (2016) 202 (1956) 1240 243 274 382 430 658 1750 2240 3490 3750
2021-01-09 03:30 3.77 986 3840 (2016) 202 (1956) 1240 243 274 382 430 658 1750 2240 3490 3750
2021-01-09 02:30 3.75 974 3840 (2016) 202 (1956) 1240 243 274 382 430 658 1750 2240 3490 3750
2021-01-09 01:30 3.77 986 3840 (2016) 202 (1956) 1240 243 274 382 430 658 1750 2240 3490 3750
2021-01-09 00:30 3.79 997 3840 (2016) 202 (1956) 1240 243 274 382 430 658 1750 2240 3490 3750
2021-01-08 23:30 3.78 991 3770 (2016) 206 (1956) 1240 243 259 382 465 672 1710 2450 3510 3640
2021-01-08 22:30 3.80 1000 3770 (2016) 206 (1956) 1240 243 259 382 465 672 1710 2450 3510 3640
2021-01-08 21:30 3.80 1000 3770 (2016) 206 (1956) 1240 243 259 382 465 672 1710 2450 3510 3640
2021-01-08 20:30 3.82 1010 3770 (2016) 206 (1956) 1240 243 259 382 465 672 1710 2450 3510 3640
2021-01-08 19:30 3.85 1030 3770 (2016) 206 (1956) 1240 243 259 382 465 672 1710 2450 3510 3640
2021-01-08 18:30 3.85 1030 3770 (2016) 206 (1956) 1240 243 259 382 465 672 1710 2450 3510 3640
2021-01-08 17:30 3.90 1060 3770 (2016) 206 (1956) 1240 243 259 382 465 672 1710 2450 3510 3640
2021-01-08 16:30 3.95 1090 3770 (2016) 206 (1956) 1240 243 259 382 465 672 1710 2450 3510 3640
2021-01-08 15:30 4.02 1130 3770 (2016) 206 (1956) 1240 243 259 382 465 672 1710 2450 3510 3640
2021-01-08 14:30 4.10 1180 3770 (2016) 206 (1956) 1240 243 259 382 465 672 1710 2450 3510 3640
2021-01-08 13:30 4.23 1260 3770 (2016) 206 (1956) 1240 243 259 382 465 672 1710 2450 3510 3640
2021-01-08 12:30 4.38 1350 3770 (2016) 206 (1956) 1240 243 259 382 465 672 1710 2450 3510 3640
2021-01-08 11:30 4.61 1510 3770 (2016) 206 (1956) 1240 243 259 382 465 672 1710 2450 3510 3640
2021-01-08 10:30 4.82 1650 3770 (2016) 206 (1956) 1240 243 259 382 465 672 1710 2450 3510 3640
2021-01-08 09:30 4.95 1740 3770 (2016) 206 (1956) 1240 243 259 382 465 672 1710 2450 3510 3640
2021-01-08 08:30 4.96 1750 3770 (2016) 206 (1956) 1240 243 259 382 465 672 1710 2450 3510 3640
2021-01-08 07:30 4.97 1750 3770 (2016) 206 (1956) 1240 243 259 382 465 672 1710 2450 3510 3640
2021-01-08 06:30 4.97 1750 3770 (2016) 206 (1956) 1240 243 259 382 465 672 1710 2450 3510 3640
2021-01-08 05:30 4.98 1760 3770 (2016) 206 (1956) 1240 243 259 382 465 672 1710 2450 3510 3640
2021-01-08 04:30 4.98 1760 3770 (2016) 206 (1956) 1240 243 259 382 465 672 1710 2450 3510 3640
2021-01-08 03:30 4.99 1770 3770 (2016) 206 (1956) 1240 243 259 382 465 672 1710 2450 3510 3640
2021-01-08 02:30 4.99 1770 3770 (2016) 206 (1956) 1240 243 259 382 465 672 1710 2450 3510 3640
2021-01-08 01:30 4.99 1770 3770 (2016) 206 (1956) 1240 243 259 382 465 672 1710 2450 3510 3640
2021-01-08 00:30 4.99 1770 3770 (2016) 206 (1956) 1240 243 259 382 465 672 1710 2450 3510 3640
2021-01-07 23:30 4.99 1770 3770 (1986) 206 (1964) 1260 237 283 390 419 736 1850 2520 3480 3590
2021-01-07 22:30 5.01 1780 3770 (1986) 206 (1964) 1260 237 283 390 419 736 1850 2520 3480 3590
2021-01-07 21:30 5.01 1780 3770 (1986) 206 (1964) 1260 237 283 390 419 736 1850 2520 3480 3590
2021-01-07 20:30 5.01 1780 3770 (1986) 206 (1964) 1260 237 283 390 419 736 1850 2520 3480 3590
2021-01-07 19:30 5.01 1780 3770 (1986) 206 (1964) 1260 237 283 390 419 736 1850 2520 3480 3590
2021-01-07 18:30 5.03 1800 3770 (1986) 206 (1964) 1260 237 283 390 419 736 1850 2520 3480 3590
2021-01-07 17:30 5.05 1810 3770 (1986) 206 (1964) 1260 237 283 390 419 736 1850 2520 3480 3590
2021-01-07 16:30 5.06 1820 3770 (1986) 206 (1964) 1260 237 283 390 419 736 1850 2520 3480 3590
2021-01-07 15:30 5.09 1840 3770 (1986) 206 (1964) 1260 237 283 390 419 736 1850 2520 3480 3590
2021-01-07 14:30 5.11 1850 3770 (1986) 206 (1964) 1260 237 283 390 419 736 1850 2520 3480 3590
2021-01-07 13:30 5.16 1890 3770 (1986) 206 (1964) 1260 237 283 390 419 736 1850 2520 3480 3590
2021-01-07 12:30 5.22 1930 3770 (1986) 206 (1964) 1260 237 283 390 419 736 1850 2520 3480 3590
2021-01-07 11:30 5.29 1990 3770 (1986) 206 (1964) 1260 237 283 390 419 736 1850 2520 3480 3590
2021-01-07 10:30 5.37 2050 3770 (1986) 206 (1964) 1260 237 283 390 419 736 1850 2520 3480 3590
2021-01-07 09:30 5.40 2070 3770 (1986) 206 (1964) 1260 237 283 390 419 736 1850 2520 3480 3590
2021-01-07 08:30 5.43 2090 3770 (1986) 206 (1964) 1260 237 283 390 419 736 1850 2520 3480 3590
2021-01-07 07:30 5.41 2080 3770 (1986) 206 (1964) 1260 237 283 390 419 736 1850 2520 3480 3590
2021-01-07 06:30 5.43 2090 3770 (1986) 206 (1964) 1260 237 283 390 419 736 1850 2520 3480 3590
2021-01-07 05:30 5.43 2090 3770 (1986) 206 (1964) 1260 237 283 390 419 736 1850 2520 3480 3590
2021-01-07 04:30 5.41 2080 3770 (1986) 206 (1964) 1260 237 283 390 419 736 1850 2520 3480 3590
2021-01-07 03:30 5.42 2080 3770 (1986) 206 (1964) 1260 237 283 390 419 736 1850 2520 3480 3590
2021-01-07 02:30 5.41 2080 3770 (1986) 206 (1964) 1260 237 283 390 419 736 1850 2520 3480 3590
2021-01-07 01:30 5.40 2070 3770 (1986) 206 (1964) 1260 237 283 390 419 736 1850 2520 3480 3590
2021-01-07 00:30 5.42 2080 3770 (1986) 206 (1964) 1260 237 283 390 419 736 1850 2520 3480 3590
2021-01-06 23:30 5.43 2090 3800 (1986) 196 (1964) 1290 240 284 394 429 781 2040 2370 3410 3650
2021-01-06 22:30 5.41 2080 3800 (1986) 196 (1964) 1290 240 284 394 429 781 2040 2370 3410 3650
2021-01-06 21:30 5.41 2080 3800 (1986) 196 (1964) 1290 240 284 394 429 781 2040 2370 3410 3650
2021-01-06 20:30 5.42 2080 3800 (1986) 196 (1964) 1290 240 284 394 429 781 2040 2370 3410 3650
2021-01-06 19:30 5.43 2090 3800 (1986) 196 (1964) 1290 240 284 394 429 781 2040 2370 3410 3650
2021-01-06 18:30 5.41 2080 3800 (1986) 196 (1964) 1290 240 284 394 429 781 2040 2370 3410 3650
2021-01-06 17:30 5.41 2080 3800 (1986) 196 (1964) 1290 240 284 394 429 781 2040 2370 3410 3650
2021-01-06 16:30 5.43 2090 3800 (1986) 196 (1964) 1290 240 284 394 429 781 2040 2370 3410 3650
2021-01-06 15:30 5.43 2090 3800 (1986) 196 (1964) 1290 240 284 394 429 781 2040 2370 3410 3650
2021-01-06 14:30 5.42 2080 3800 (1986) 196 (1964) 1290 240 284 394 429 781 2040 2370 3410 3650
2021-01-06 13:30 5.43 2090 3800 (1986) 196 (1964) 1290 240 284 394 429 781 2040 2370 3410 3650
2021-01-06 12:30 5.44 2100 3800 (1986) 196 (1964) 1290 240 284 394 429 781 2040 2370 3410 3650
2021-01-06 11:30 5.43 2090 3800 (1986) 196 (1964) 1290 240 284 394 429 781 2040 2370 3410 3650
2021-01-06 10:30 5.43 2090 3800 (1986) 196 (1964) 1290 240 284 394 429 781 2040 2370 3410 3650
2021-01-06 09:30 5.43 2090 3800 (1986) 196 (1964) 1290 240 284 394 429 781 2040 2370 3410 3650
2021-01-06 08:30 5.44 2100 3800 (1986) 196 (1964) 1290 240 284 394 429 781 2040 2370 3410 3650
2021-01-06 07:30 5.43 2090 3800 (1986) 196 (1964) 1290 240 284 394 429 781 2040 2370 3410 3650
2021-01-06 06:30 5.45 2110 3800 (1986) 196 (1964) 1290 240 284 394 429 781 2040 2370 3410 3650
2021-01-06 05:30 5.45 2110 3800 (1986) 196 (1964) 1290 240 284 394 429 781 2040 2370 3410 3650
2021-01-06 04:30 5.44 2100 3800 (1986) 196 (1964) 1290 240 284 394 429 781 2040 2370 3410 3650
2021-01-06 03:30 5.44 2100 3800 (1986) 196 (1964) 1290 240 284 394 429 781 2040 2370 3410 3650
2021-01-06 02:30 5.45 2110 3800 (1986) 196 (1964) 1290 240 284 394 429 781 2040 2370 3410 3650
2021-01-06 01:30 5.43 2090 3800 (1986) 196 (1964) 1290 240 284 394 429 781 2040 2370 3410 3650
2021-01-06 00:30 5.45 2110 3800 (1986) 196 (1964) 1290 240 284 394 429 781 2040 2370 3410 3650
2021-01-05 23:30 5.45 2110 3840 (1986) 201 (1964) 1330 236 293 396 432 790 1970 2200 3440 3720
2021-01-05 22:30 5.43 2090 3840 (1986) 201 (1964) 1330 236 293 396 432 790 1970 2200 3440 3720
2021-01-05 21:30 5.45 2110 3840 (1986) 201 (1964) 1330 236 293 396 432 790 1970 2200 3440 3720
2021-01-05 20:30 5.43 2090 3840 (1986) 201 (1964) 1330 236 293 396 432 790 1970 2200 3440 3720
2021-01-05 19:30 5.45 2110 3840 (1986) 201 (1964) 1330 236 293 396 432 790 1970 2200 3440 3720
2021-01-05 18:30 5.43 2090 3840 (1986) 201 (1964) 1330 236 293 396 432 790 1970 2200 3440 3720
2021-01-05 17:30 5.43 2090 3840 (1986) 201 (1964) 1330 236 293 396 432 790 1970 2200 3440 3720
2021-01-05 16:30 5.43 2090 3840 (1986) 201 (1964) 1330 236 293 396 432 790 1970 2200 3440 3720
2021-01-05 15:30 5.44 2100 3840 (1986) 201 (1964) 1330 236 293 396 432 790 1970 2200 3440 3720
2021-01-05 14:30 5.43 2090 3840 (1986) 201 (1964) 1330 236 293 396 432 790 1970 2200 3440 3720
2021-01-05 13:30 5.45 2110 3840 (1986) 201 (1964) 1330 236 293 396 432 790 1970 2200 3440 3720
2021-01-05 12:30 5.43 2090 3840 (1986) 201 (1964) 1330 236 293 396 432 790 1970 2200 3440 3720
2021-01-05 11:30 5.43 2090 3840 (1986) 201 (1964) 1330 236 293 396 432 790 1970 2200 3440 3720
2021-01-05 10:30 5.45 2110 3840 (1986) 201 (1964) 1330 236 293 396 432 790 1970 2200 3440 3720
2021-01-05 09:30 5.44 2100 3840 (1986) 201 (1964) 1330 236 293 396 432 790 1970 2200 3440 3720
2021-01-05 08:30 5.43 2090 3840 (1986) 201 (1964) 1330 236 293 396 432 790 1970 2200 3440 3720
2021-01-05 07:30 5.44 2100 3840 (1986) 201 (1964) 1330 236 293 396 432 790 1970 2200 3440 3720
2021-01-05 06:30 5.43 2090 3840 (1986) 201 (1964) 1330 236 293 396 432 790 1970 2200 3440 3720
2021-01-05 05:30 5.42 2080 3840 (1986) 201 (1964) 1330 236 293 396 432 790 1970 2200 3440 3720
2021-01-05 04:30 5.41 2080 3840 (1986) 201 (1964) 1330 236 293 396 432 790 1970 2200 3440 3720
2021-01-05 03:30 5.39 2060 3840 (1986) 201 (1964) 1330 236 293 396 432 790 1970 2200 3440 3720
2021-01-05 02:30 5.37 2050 3840 (1986) 201 (1964) 1330 236 293 396 432 790 1970 2200 3440 3720
2021-01-05 01:30 5.34 2020 3840 (1986) 201 (1964) 1330 236 293 396 432 790 1970 2200 3440 3720
2021-01-05 00:30 5.30 1990 3840 (1986) 201 (1964) 1330 236 293 396 432 790 1970 2200 3440 3720
2021-01-04 23:30 5.23 1940 3890 (1986) 198 (1956) 1440 234 290 397 445 853 2450 2980 3580 3740
2021-01-04 22:30 5.15 1880 3890 (1986) 198 (1956) 1440 234 290 397 445 853 2450 2980 3580 3740
2021-01-04 21:30 5.05 1810 3890 (1986) 198 (1956) 1440 234 290 397 445 853 2450 2980 3580 3740
2021-01-04 20:30 4.90 1700 3890 (1986) 198 (1956) 1440 234 290 397 445 853 2450 2980 3580 3740
2021-01-04 19:30 4.72 1580 3890 (1986) 198 (1956) 1440 234 290 397 445 853 2450 2980 3580 3740
2021-01-04 18:30 4.53 1450 3890 (1986) 198 (1956) 1440 234 290 397 445 853 2450 2980 3580 3740
2021-01-04 17:30 4.44 1390 3890 (1986) 198 (1956) 1440 234 290 397 445 853 2450 2980 3580 3740
2021-01-04 16:30 4.36 1340 3890 (1986) 198 (1956) 1440 234 290 397 445 853 2450 2980 3580 3740
2021-01-04 15:30 4.29 1300 3890 (1986) 198 (1956) 1440 234 290 397 445 853 2450 2980 3580 3740
2021-01-04 14:30 4.16 1220 3890 (1986) 198 (1956) 1440 234 290 397 445 853 2450 2980 3580 3740
2021-01-04 13:30 4.01 1130 3890 (1986) 198 (1956) 1440 234 290 397 445 853 2450 2980 3580 3740
2021-01-04 12:30 3.83 1020 3890 (1986) 198 (1956) 1440 234 290 397 445 853 2450 2980 3580 3740
2021-01-04 11:30 3.59 886 3890 (1986) 198 (1956) 1440 234 290 397 445 853 2450 2980 3580 3740
2021-01-04 10:30 3.36 764 3890 (1986) 198 (1956) 1440 234 290 397 445 853 2450 2980 3580 3740
2021-01-04 09:30 3.27 719 3890 (1986) 198 (1956) 1440 234 290 397 445 853 2450 2980 3580 3740
2021-01-04 08:30 3.29 729 3890 (1986) 198 (1956) 1440 234 290 397 445 853 2450 2980 3580 3740
2021-01-04 07:30 3.28 724 3890 (1986) 198 (1956) 1440 234 290 397 445 853 2450 2980 3580 3740
2021-01-04 06:30 3.28 724 3890 (1986) 198 (1956) 1440 234 290 397 445 853 2450 2980 3580 3740
2021-01-04 05:30 3.28 724 3890 (1986) 198 (1956) 1440 234 290 397 445 853 2450 2980 3580 3740
2021-01-04 04:30 3.28 724 3890 (1986) 198 (1956) 1440 234 290 397 445 853 2450 2980 3580 3740
2021-01-04 03:30 3.28 724 3890 (1986) 198 (1956) 1440 234 290 397 445 853 2450 2980 3580 3740
2021-01-04 02:30 3.26 714 3890 (1986) 198 (1956) 1440 234 290 397 445 853 2450 2980 3580 3740
2021-01-04 01:30 3.28 724 3890 (1986) 198 (1956) 1440 234 290 397 445 853 2450 2980 3580 3740
2021-01-04 00:30 3.29 729 3890 (1986) 198 (1956) 1440 234 290 397 445 853 2450 2980 3580 3740
2021-01-03 23:30 3.28 724 3830 (1986) 188 (1956) 1390 251 297 414 433 933 2230 2620 3500 3700
2021-01-03 22:30 3.30 734 3830 (1986) 188 (1956) 1390 251 297 414 433 933 2230 2620 3500 3700
2021-01-03 21:30 3.28 724 3830 (1986) 188 (1956) 1390 251 297 414 433 933 2230 2620 3500 3700
2021-01-03 20:30 3.27 719 3830 (1986) 188 (1956) 1390 251 297 414 433 933 2230 2620 3500 3700
2021-01-03 19:30 3.28 724 3830 (1986) 188 (1956) 1390 251 297 414 433 933 2230 2620 3500 3700
2021-01-03 18:30 3.27 719 3830 (1986) 188 (1956) 1390 251 297 414 433 933 2230 2620 3500 3700
2021-01-03 17:30 3.28 724 3830 (1986) 188 (1956) 1390 251 297 414 433 933 2230 2620 3500 3700
2021-01-03 16:30 3.28 724 3830 (1986) 188 (1956) 1390 251 297 414 433 933 2230 2620 3500 3700
2021-01-03 15:30 3.28 724 3830 (1986) 188 (1956) 1390 251 297 414 433 933 2230 2620 3500 3700
2021-01-03 14:30 3.28 724 3830 (1986) 188 (1956) 1390 251 297 414 433 933 2230 2620 3500 3700
2021-01-03 13:30 3.29 729 3830 (1986) 188 (1956) 1390 251 297 414 433 933 2230 2620 3500 3700
2021-01-03 12:30 3.30 734 3830 (1986) 188 (1956) 1390 251 297 414 433 933 2230 2620 3500 3700
2021-01-03 11:30 3.29 729 3830 (1986) 188 (1956) 1390 251 297 414 433 933 2230 2620 3500 3700
2021-01-03 10:30 3.31 739 3830 (1986) 188 (1956) 1390 251 297 414 433 933 2230 2620 3500 3700
2021-01-03 09:30 3.30 734 3830 (1986) 188 (1956) 1390 251 297 414 433 933 2230 2620 3500 3700
2021-01-03 08:30 3.30 734 3830 (1986) 188 (1956) 1390 251 297 414 433 933 2230 2620 3500 3700
2021-01-03 07:30 3.32 744 3830 (1986) 188 (1956) 1390 251 297 414 433 933 2230 2620 3500 3700
2021-01-03 06:30 3.32 744 3830 (1986) 188 (1956) 1390 251 297 414 433 933 2230 2620 3500 3700
2021-01-03 05:30 3.31 739 3830 (1986) 188 (1956) 1390 251 297 414 433 933 2230 2620 3500 3700
2021-01-03 04:30 3.31 739 3830 (1986) 188 (1956) 1390 251 297 414 433 933 2230 2620 3500 3700
2021-01-03 03:30 3.32 744 3830 (1986) 188 (1956) 1390 251 297 414 433 933 2230 2620 3500 3700
2021-01-03 02:30 3.32 744 3830 (1986) 188 (1956) 1390 251 297 414 433 933 2230 2620 3500 3700
2021-01-03 01:30 3.33 749 3830 (1986) 188 (1956) 1390 251 297 414 433 933 2230 2620 3500 3700
2021-01-03 00:30 3.32 744 3830 (1986) 188 (1956) 1390 251 297 414 433 933 2230 2620 3500 3700
2021-01-02 23:30 3.33 749 3930 (1968) 190 (1956) 1370 262 291 381 401 922 2210 2870 3480 3830
2021-01-02 22:30 3.33 749 3930 (1968) 190 (1956) 1370 262 291 381 401 922 2210 2870 3480 3830
2021-01-02 21:30 3.35 759 3930 (1968) 190 (1956) 1370 262 291 381 401 922 2210 2870 3480 3830
2021-01-02 20:30 3.33 749 3930 (1968) 190 (1956) 1370 262 291 381 401 922 2210 2870 3480 3830
2021-01-02 19:30 3.33 749 3930 (1968) 190 (1956) 1370 262 291 381 401 922 2210 2870 3480 3830
2021-01-02 18:30 3.34 754 3930 (1968) 190 (1956) 1370 262 291 381 401 922 2210 2870 3480 3830
2021-01-02 17:30 3.35 759 3930 (1968) 190 (1956) 1370 262 291 381 401 922 2210 2870 3480 3830
2021-01-02 16:30 3.34 754 3930 (1968) 190 (1956) 1370 262 291 381 401 922 2210 2870 3480 3830
2021-01-02 15:30 3.36 764 3930 (1968) 190 (1956) 1370 262 291 381 401 922 2210 2870 3480 3830
2021-01-02 14:30 3.36 764 3930 (1968) 190 (1956) 1370 262 291 381 401 922 2210 2870 3480 3830
2021-01-02 13:30 3.36 764 3930 (1968) 190 (1956) 1370 262 291 381 401 922 2210 2870 3480 3830
2021-01-02 12:30 3.37 769 3930 (1968) 190 (1956) 1370 262 291 381 401 922 2210 2870 3480 3830
2021-01-02 11:30 3.37 769 3930 (1968) 190 (1956) 1370 262 291 381 401 922 2210 2870 3480 3830
2021-01-02 10:30 3.38 774 3930 (1968) 190 (1956) 1370 262 291 381 401 922 2210 2870 3480 3830
2021-01-02 09:30 3.37 769 3930 (1968) 190 (1956) 1370 262 291 381 401 922 2210 2870 3480 3830
2021-01-02 08:30 3.37 769 3930 (1968) 190 (1956) 1370 262 291 381 401 922 2210 2870 3480 3830
2021-01-02 07:30 3.38 774 3930 (1968) 190 (1956) 1370 262 291 381 401 922 2210 2870 3480 3830
2021-01-02 06:30 3.39 780 3930 (1968) 190 (1956) 1370 262 291 381 401 922 2210 2870 3480 3830
2021-01-02 05:30 3.40 785 3930 (1968) 190 (1956) 1370 262 291 381 401 922 2210 2870 3480 3830
2021-01-02 04:30 3.43 800 3930 (1968) 190 (1956) 1370 262 291 381 401 922 2210 2870 3480 3830
2021-01-02 03:30 3.42 795 3930 (1968) 190 (1956) 1370 262 291 381 401 922 2210 2870 3480 3830
2021-01-02 02:30 3.42 795 3930 (1968) 190 (1956) 1370 262 291 381 401 922 2210 2870 3480 3830
2021-01-02 01:30 3.43 800 3930 (1968) 190 (1956) 1370 262 291 381 401 922 2210 2870 3480 3830
2021-01-02 00:30 3.45 811 3930 (1968) 190 (1956) 1370 262 291 381 401 922 2210 2870 3480 3830
2021-01-01 23:30 3.44 806 4070 (1968) 190 (1956) 1430 234 275 371 405 1060 2280 2940 3500 3890
2021-01-01 22:30 3.41 790 4070 (1968) 190 (1956) 1430 234 275 371 405 1060 2280 2940 3500 3890
2021-01-01 21:30 3.42 795 4070 (1968) 190 (1956) 1430 234 275 371 405 1060 2280 2940 3500 3890
2021-01-01 20:30 3.40 785 4070 (1968) 190 (1956) 1430 234 275 371 405 1060 2280 2940 3500 3890
2021-01-01 19:30 3.39 780 4070 (1968) 190 (1956) 1430 234 275 371 405 1060 2280 2940 3500 3890
2021-01-01 18:30 3.38 774 4070 (1968) 190 (1956) 1430 234 275 371 405 1060 2280 2940 3500 3890
2021-01-01 17:30 3.37 769 4070 (1968) 190 (1956) 1430 234 275 371 405 1060 2280 2940 3500 3890
2021-01-01 16:30 3.38 774 4070 (1968) 190 (1956) 1430 234 275 371 405 1060 2280 2940 3500 3890
2021-01-01 15:30 3.37 769 4070 (1968) 190 (1956) 1430 234 275 371 405 1060 2280 2940 3500 3890
2021-01-01 14:30 3.37 769 4070 (1968) 190 (1956) 1430 234 275 371 405 1060 2280 2940 3500 3890
2021-01-01 13:30 3.39 780 4070 (1968) 190 (1956) 1430 234 275 371 405 1060 2280 2940 3500 3890
2021-01-01 12:30 3.39 780 4070 (1968) 190 (1956) 1430 234 275 371 405 1060 2280 2940 3500 3890
2021-01-01 11:30 3.39 780 4070 (1968) 190 (1956) 1430 234 275 371 405 1060 2280 2940 3500 3890
2021-01-01 10:30 3.39 780 4070 (1968) 190 (1956) 1430 234 275 371 405 1060 2280 2940 3500 3890
2021-01-01 09:30 3.31 739 4070 (1968) 190 (1956) 1430 234 275 371 405 1060 2280 2940 3500 3890
2021-01-01 08:30 3.22 694 4070 (1968) 190 (1956) 1430 234 275 371 405 1060 2280 2940 3500 3890
2021-01-01 07:30 3.20 684 4070 (1968) 190 (1956) 1430 234 275 371 405 1060 2280 2940 3500 3890
2021-01-01 06:30 3.19 679 4070 (1968) 190 (1956) 1430 234 275 371 405 1060 2280 2940 3500 3890
2021-01-01 05:30 3.17 669 4070 (1968) 190 (1956) 1430 234 275 371 405 1060 2280 2940 3500 3890
2021-01-01 04:30 3.15 660 4070 (1968) 190 (1956) 1430 234 275 371 405 1060 2280 2940 3500 3890
2021-01-01 03:30 3.14 655 4070 (1968) 190 (1956) 1430 234 275 371 405 1060 2280 2940 3500 3890
2021-01-01 02:30 3.14 655 4070 (1968) 190 (1956) 1430 234 275 371 405 1060 2280 2940 3500 3890
2021-01-01 01:30 3.14 655 4070 (1968) 190 (1956) 1430 234 275 371 405 1060 2280 2940 3500 3890
2021-01-01 00:30 3.13 650 4070 (1968) 190 (1956) 1430 234 275 371 405 1060 2280 2940 3500 3890
2020-12-31 23:30 3.14 655 4220 (1968) 188 (1956) 1400 234 270 369 424 980 2270 2770 3470 3940
2020-12-31 22:30 3.17 669 4220 (1968) 188 (1956) 1400 234 270 369 424 980 2270 2770 3470 3940
2020-12-31 21:30 3.18 674 4220 (1968) 188 (1956) 1400 234 270 369 424 980 2270 2770 3470 3940
2020-12-31 20:30 3.22 694 4220 (1968) 188 (1956) 1400 234 270 369 424 980 2270 2770 3470 3940
2020-12-31 19:30 3.25 709 4220 (1968) 188 (1956) 1400 234 270 369 424 980 2270 2770 3470 3940
2020-12-31 18:30 3.24 704 4220 (1968) 188 (1956) 1400 234 270 369 424 980 2270 2770 3470 3940
2020-12-31 17:30 3.22 694 4220 (1968) 188 (1956) 1400 234 270 369 424 980 2270 2770 3470 3940
2020-12-31 16:30 3.21 689 4220 (1968) 188 (1956) 1400 234 270 369 424 980 2270 2770 3470 3940
2020-12-31 15:30 3.18 674 4220 (1968) 188 (1956) 1400 234 270 369 424 980 2270 2770 3470 3940
2020-12-31 14:30 3.14 655 4220 (1968) 188 (1956) 1400 234 270 369 424 980 2270 2770 3470 3940
2020-12-31 13:30 3.10 635 4220 (1968) 188 (1956) 1400 234 270 369 424 980 2270 2770 3470 3940
2020-12-31 12:30 3.03 602 4220 (1968) 188 (1956) 1400 234 270 369 424 980 2270 2770 3470 3940
2020-12-31 11:30 2.99 584 4220 (1968) 188 (1956) 1400 234 270 369 424 980 2270 2770 3470 3940
2020-12-31 10:30 2.94 561 4220 (1968) 188 (1956) 1400 234 270 369 424 980 2270 2770 3470 3940
2020-12-31 09:30 2.93 556 4220 (1968) 188 (1956) 1400 234 270 369 424 980 2270 2770 3470 3940
2020-12-31 08:30 2.94 561 4220 (1968) 188 (1956) 1400 234 270 369 424 980 2270 2770 3470 3940
2020-12-31 07:30 2.94 561 4220 (1968) 188 (1956) 1400 234 270 369 424 980 2270 2770 3470 3940
2020-12-31 06:30 2.95 566 4220 (1968) 188 (1956) 1400 234 270 369 424 980 2270 2770 3470 3940
2020-12-31 05:30 2.95 566 4220 (1968) 188 (1956) 1400 234 270 369 424 980 2270 2770 3470 3940
2020-12-31 04:30 2.95 566 4220 (1968) 188 (1956) 1400 234 270 369 424 980 2270 2770 3470 3940
2020-12-31 03:30 2.95 566 4220 (1968) 188 (1956) 1400 234 270 369 424 980 2270 2770 3470 3940
2020-12-31 02:30 2.95 566 4220 (1968) 188 (1956) 1400 234 270 369 424 980 2270 2770 3470 3940
2020-12-31 01:30 2.95 566 4220 (1968) 188 (1956) 1400 234 270 369 424 980 2270 2770 3470 3940
2020-12-31 00:30 2.94 561 4220 (1968) 188 (1956) 1400 234 270 369 424 980 2270 2770 3470 3940
2020-12-30 23:30 2.94 561 4230 (1968) 190 (1956) 1420 236 270 365 401 885 2540 2710 3410 3830
2020-12-30 22:30 2.96 570 4230 (1968) 190 (1956) 1420 236 270 365 401 885 2540 2710 3410 3830
2020-12-30 21:30 2.95 566 4230 (1968) 190 (1956) 1420 236 270 365 401 885 2540 2710 3410 3830
2020-12-30 20:30 2.95 566 4230 (1968) 190 (1956) 1420 236 270 365 401 885 2540 2710 3410 3830
2020-12-30 19:30 2.94 561 4230 (1968) 190 (1956) 1420 236 270 365 401 885 2540 2710 3410 3830
2020-12-30 18:30 2.94 561 4230 (1968) 190 (1956) 1420 236 270 365 401 885 2540 2710 3410 3830
2020-12-30 17:30 2.93 556 4230 (1968) 190 (1956) 1420 236 270 365 401 885 2540 2710 3410 3830
2020-12-30 16:30 2.93 556 4230 (1968) 190 (1956) 1420 236 270 365 401 885 2540 2710 3410 3830
2020-12-30 15:30 2.92 552 4230 (1968) 190 (1956) 1420 236 270 365 401 885 2540 2710 3410 3830
2020-12-30 14:30 2.92 552 4230 (1968) 190 (1956) 1420 236 270 365 401 885 2540 2710 3410 3830
2020-12-30 13:30 2.92 552 4230 (1968) 190 (1956) 1420 236 270 365 401 885 2540 2710 3410 3830
2020-12-30 12:30 2.91 547 4230 (1968) 190 (1956) 1420 236 270 365 401 885 2540 2710 3410 3830
2020-12-30 11:30 2.91 547 4230 (1968) 190 (1956) 1420 236 270 365 401 885 2540 2710 3410 3830
2020-12-30 10:30 2.91 547 4230 (1968) 190 (1956) 1420 236 270 365 401 885 2540 2710 3410 3830
2020-12-30 09:30 2.92 552 4230 (1968) 190 (1956) 1420 236 270 365 401 885 2540 2710 3410 3830
2020-12-30 08:30 2.92 552 4230 (1968) 190 (1956) 1420 236 270 365 401 885 2540 2710 3410 3830
2020-12-30 07:30 2.91 547 4230 (1968) 190 (1956) 1420 236 270 365 401 885 2540 2710 3410 3830
2020-12-30 06:30 2.91 547 4230 (1968) 190 (1956) 1420 236 270 365 401 885 2540 2710 3410 3830
2020-12-30 05:30 2.90 543 4230 (1968) 190 (1956) 1420 236 270 365 401 885 2540 2710 3410 3830
2020-12-30 04:30 2.88 534 4230 (1968) 190 (1956) 1420 236 270 365 401 885 2540 2710 3410 3830
2020-12-30 03:30 2.89 538 4230 (1968) 190 (1956) 1420 236 270 365 401 885 2540 2710 3410 3830
2020-12-30 02:30 2.89 538 4230 (1968) 190 (1956) 1420 236 270 365 401 885 2540 2710 3410 3830
2020-12-30 01:30 2.90 543 4230 (1968) 190 (1956) 1420 236 270 365 401 885 2540 2710 3410 3830
2020-12-30 00:30 2.90 543 4230 (1968) 190 (1956) 1420 236 270 365 401 885 2540 2710 3410 3830
2020-12-29 23:30 2.89 538 4540 (1950) 190 (1956) 1440 217 269 376 428 785 2490 2870 3710 4140
2020-12-29 22:30 2.90 543 4540 (1950) 190 (1956) 1440 217 269 376 428 785 2490 2870 3710 4140
2020-12-29 21:30 2.89 538 4540 (1950) 190 (1956) 1440 217 269 376 428 785 2490 2870 3710 4140
2020-12-29 20:30 2.90 543 4540 (1950) 190 (1956) 1440 217 269 376 428 785 2490 2870 3710 4140
2020-12-29 19:30 2.89 538 4540 (1950) 190 (1956) 1440 217 269 376 428 785 2490 2870 3710 4140
2020-12-29 18:30 2.91 547 4540 (1950) 190 (1956) 1440 217 269 376 428 785 2490 2870 3710 4140
2020-12-29 17:30 2.90 543 4540 (1950) 190 (1956) 1440 217 269 376 428 785 2490 2870 3710 4140
2020-12-29 16:30 2.90 543 4540 (1950) 190 (1956) 1440 217 269 376 428 785 2490 2870 3710 4140
2020-12-29 15:30 2.90 543 4540 (1950) 190 (1956) 1440 217 269 376 428 785 2490 2870 3710 4140
2020-12-29 14:30 2.90 543 4540 (1950) 190 (1956) 1440 217 269 376 428 785 2490 2870 3710 4140
2020-12-29 13:30 2.90 543 4540 (1950) 190 (1956) 1440 217 269 376 428 785 2490 2870 3710 4140
2020-12-29 12:30 2.90 543 4540 (1950) 190 (1956) 1440 217 269 376 428 785 2490 2870 3710 4140
2020-12-29 11:30 2.92 552 4540 (1950) 190 (1956) 1440 217 269 376 428 785 2490 2870 3710 4140
2020-12-29 10:30 2.91 547 4540 (1950) 190 (1956) 1440 217 269 376 428 785 2490 2870 3710 4140
2020-12-29 09:30 2.90 543 4540 (1950) 190 (1956) 1440 217 269 376 428 785 2490 2870 3710 4140
2020-12-29 08:30 2.92 552 4540 (1950) 190 (1956) 1440 217 269 376 428 785 2490 2870 3710 4140
2020-12-29 07:30 2.90 543 4540 (1950) 190 (1956) 1440 217 269 376 428 785 2490 2870 3710 4140
2020-12-29 06:30 2.91 547 4540 (1950) 190 (1956) 1440 217 269 376 428 785 2490 2870 3710 4140
2020-12-29 05:30 2.91 547 4540 (1950) 190 (1956) 1440 217 269 376 428 785 2490 2870 3710 4140
2020-12-29 04:30 2.91 547 4540 (1950) 190 (1956) 1440 217 269 376 428 785 2490 2870 3710 4140
2020-12-29 03:30 2.91 547 4540 (1950) 190 (1956) 1440 217 269 376 428 785 2490 2870 3710 4140
2020-12-29 02:30 2.91 547 4540 (1950) 190 (1956) 1440 217 269 376 428 785 2490 2870 3710 4140
2020-12-29 01:30 2.92 552 4540 (1950) 190 (1956) 1440 217 269 376 428 785 2490 2870 3710 4140
2020-12-29 00:30 2.91 547 4540 (1950) 190 (1956) 1440 217 269 376 428 785 2490 2870 3710 4140
2020-12-28 23:30 2.91 547 4770 (2016) 190 (1956) 1410 225 269 374 399 660 2770 2980 3760 4270
2020-12-28 22:30 2.91 547 4770 (2016) 190 (1956) 1410 225 269 374 399 660 2770 2980 3760 4270
2020-12-28 21:30 2.93 556 4770 (2016) 190 (1956) 1410 225 269 374 399 660 2770 2980 3760 4270
2020-12-28 20:30 2.93 556 4770 (2016) 190 (1956) 1410 225 269 374 399 660 2770 2980 3760 4270
2020-12-28 19:30 2.92 552 4770 (2016) 190 (1956) 1410 225 269 374 399 660 2770 2980 3760 4270
2020-12-28 18:30 2.93 556 4770 (2016) 190 (1956) 1410 225 269 374 399 660 2770 2980 3760 4270
2020-12-28 17:30 2.93 556 4770 (2016) 190 (1956) 1410 225 269 374 399 660 2770 2980 3760 4270
2020-12-28 16:30 2.93 556 4770 (2016) 190 (1956) 1410 225 269 374 399 660 2770 2980 3760 4270
2020-12-28 15:30 2.94 561 4770 (2016) 190 (1956) 1410 225 269 374 399 660 2770 2980 3760 4270
2020-12-28 14:30 2.95 566 4770 (2016) 190 (1956) 1410 225 269 374 399 660 2770 2980 3760 4270
2020-12-28 13:30 2.96 570 4770 (2016) 190 (1956) 1410 225 269 374 399 660 2770 2980 3760 4270
2020-12-28 12:30 2.99 584 4770 (2016) 190 (1956) 1410 225 269 374 399 660 2770 2980 3760 4270
2020-12-28 11:30 3.00 588 4770 (2016) 190 (1956) 1410 225 269 374 399 660 2770 2980 3760 4270
2020-12-28 10:30 3.02 598 4770 (2016) 190 (1956) 1410 225 269 374 399 660 2770 2980 3760 4270
2020-12-28 09:30 3.02 598 4770 (2016) 190 (1956) 1410 225 269 374 399 660 2770 2980 3760 4270
2020-12-28 08:30 3.02 598 4770 (2016) 190 (1956) 1410 225 269 374 399 660 2770 2980 3760 4270
2020-12-28 07:30 3.02 598 4770 (2016) 190 (1956) 1410 225 269 374 399 660 2770 2980 3760 4270
2020-12-28 06:30 3.03 602 4770 (2016) 190 (1956) 1410 225 269 374 399 660 2770 2980 3760 4270
2020-12-28 05:30 3.03 602 4770 (2016) 190 (1956) 1410 225 269 374 399 660 2770 2980 3760 4270
2020-12-28 04:30 3.03 602 4770 (2016) 190 (1956) 1410 225 269 374 399 660 2770 2980 3760 4270
2020-12-28 03:30 3.02 598 4770 (2016) 190 (1956) 1410 225 269 374 399 660 2770 2980 3760 4270
2020-12-28 02:30 3.03 602 4770 (2016) 190 (1956) 1410 225 269 374 399 660 2770 2980 3760 4270
2020-12-28 01:30 3.04 607 4770 (2016) 190 (1956) 1410 225 269 374 399 660 2770 2980 3760 4270
2020-12-28 00:30 3.03 602 4770 (2016) 190 (1956) 1410 225 269 374 399 660 2770 2980 3760 4270
2020-12-27 23:30 3.03 602 4220 (1968) 190 (1956) 1290 236 256 363 395 589 2450 2820 3570 3870
2020-12-27 22:30 3.03 602 4220 (1968) 190 (1956) 1290 236 256 363 395 589 2450 2820 3570 3870
2020-12-27 21:30 3.03 602 4220 (1968) 190 (1956) 1290 236 256 363 395 589 2450 2820 3570 3870
2020-12-27 20:30 3.02 598 4220 (1968) 190 (1956) 1290 236 256 363 395 589 2450 2820 3570 3870
2020-12-27 19:30 3.03 602 4220 (1968) 190 (1956) 1290 236 256 363 395 589 2450 2820 3570 3870
2020-12-27 18:30 3.02 598 4220 (1968) 190 (1956) 1290 236 256 363 395 589 2450 2820 3570 3870
2020-12-27 17:30 3.02 598 4220 (1968) 190 (1956) 1290 236 256 363 395 589 2450 2820 3570 3870
2020-12-27 16:30 3.03 602 4220 (1968) 190 (1956) 1290 236 256 363 395 589 2450 2820 3570 3870
2020-12-27 15:30 3.02 598 4220 (1968) 190 (1956) 1290 236 256 363 395 589 2450 2820 3570 3870
2020-12-27 14:30 3.02 598 4220 (1968) 190 (1956) 1290 236 256 363 395 589 2450 2820 3570 3870
2020-12-27 13:30 3.02 598 4220 (1968) 190 (1956) 1290 236 256 363 395 589 2450 2820 3570 3870
2020-12-27 12:30 3.02 598 4220 (1968) 190 (1956) 1290 236 256 363 395 589 2450 2820 3570 3870
2020-12-27 11:30 3.02 598 4220 (1968) 190 (1956) 1290 236 256 363 395 589 2450 2820 3570 3870
2020-12-27 10:30 3.02 598 4220 (1968) 190 (1956) 1290 236 256 363 395 589 2450 2820 3570 3870
2020-12-27 09:30 3.03 602 4220 (1968) 190 (1956) 1290 236 256 363 395 589 2450 2820 3570 3870
2020-12-27 08:30 3.04 607 4220 (1968) 190 (1956) 1290 236 256 363 395 589 2450 2820 3570 3870
2020-12-27 07:30 3.03 602 4220 (1968) 190 (1956) 1290 236 256 363 395 589 2450 2820 3570 3870
2020-12-27 06:30 3.04 607 4220 (1968) 190 (1956) 1290 236 256 363 395 589 2450 2820 3570 3870
2020-12-27 05:30 3.04 607 4220 (1968) 190 (1956) 1290 236 256 363 395 589 2450 2820 3570 3870
2020-12-27 04:30 3.04 607 4220 (1968) 190 (1956) 1290 236 256 363 395 589 2450 2820 3570 3870
2020-12-27 03:30 3.03 602 4220 (1968) 190 (1956) 1290 236 256 363 395 589 2450 2820 3570 3870
2020-12-27 02:30 3.04 607 4220 (1968) 190 (1956) 1290 236 256 363 395 589 2450 2820 3570 3870
2020-12-27 01:30 3.03 602 4220 (1968) 190 (1956) 1290 236 256 363 395 589 2450 2820 3570 3870
2020-12-27 00:30 3.03 602 4220 (1968) 190 (1956) 1290 236 256 363 395 589 2450 2820 3570 3870
2020-12-26 23:30 3.04 607 4090 (1968) 192 (1956) 1210 217 256 365 390 587 2230 2600 3220 3880
2020-12-26 22:30 3.03 602 4090 (1968) 192 (1956) 1210 217 256 365 390 587 2230 2600 3220 3880
2020-12-26 21:30 3.02 598 4090 (1968) 192 (1956) 1210 217 256 365 390 587 2230 2600 3220 3880
2020-12-26 20:30 3.03 602 4090 (1968) 192 (1956) 1210 217 256 365 390 587 2230 2600 3220 3880
2020-12-26 19:30 3.02 598 4090 (1968) 192 (1956) 1210 217 256 365 390 587 2230 2600 3220 3880
2020-12-26 18:30 3.02 598 4090 (1968) 192 (1956) 1210 217 256 365 390 587 2230 2600 3220 3880
2020-12-26 17:30 3.03 602 4090 (1968) 192 (1956) 1210 217 256 365 390 587 2230 2600 3220 3880
2020-12-26 16:30 3.02 598 4090 (1968) 192 (1956) 1210 217 256 365 390 587 2230 2600 3220 3880
2020-12-26 15:30 3.02 598 4090 (1968) 192 (1956) 1210 217 256 365 390 587 2230 2600 3220 3880
2020-12-26 14:30 3.03 602 4090 (1968) 192 (1956) 1210 217 256 365 390 587 2230 2600 3220 3880
2020-12-26 13:30 3.02 598 4090 (1968) 192 (1956) 1210 217 256 365 390 587 2230 2600 3220 3880
2020-12-26 12:30 3.03 602 4090 (1968) 192 (1956) 1210 217 256 365 390 587 2230 2600 3220 3880
2020-12-26 11:30 3.03 602 4090 (1968) 192 (1956) 1210 217 256 365 390 587 2230 2600 3220 3880
2020-12-26 10:30 3.04 607 4090 (1968) 192 (1956) 1210 217 256 365 390 587 2230 2600 3220 3880
2020-12-26 09:30 3.04 607 4090 (1968) 192 (1956) 1210 217 256 365 390 587 2230 2600 3220 3880
2020-12-26 08:30 3.04 607 4090 (1968) 192 (1956) 1210 217 256 365 390 587 2230 2600 3220 3880
2020-12-26 07:30 3.05 612 4090 (1968) 192 (1956) 1210 217 256 365 390 587 2230 2600 3220 3880
2020-12-26 06:30 3.05 612 4090 (1968) 192 (1956) 1210 217 256 365 390 587 2230 2600 3220 3880
2020-12-26 05:30 3.07 621 4090 (1968) 192 (1956) 1210 217 256 365 390 587 2230 2600 3220 3880
2020-12-26 04:30 3.06 617 4090 (1968) 192 (1956) 1210 217 256 365 390 587 2230 2600 3220 3880
2020-12-26 03:30 3.06 617 4090 (1968) 192 (1956) 1210 217 256 365 390 587 2230 2600 3220 3880
2020-12-26 02:30 3.06 617 4090 (1968) 192 (1956) 1210 217 256 365 390 587 2230 2600 3220 3880
2020-12-26 01:30 3.06 617 4090 (1968) 192 (1956) 1210 217 256 365 390 587 2230 2600 3220 3880
2020-12-26 00:30 3.05 612 4090 (1968) 192 (1956) 1210 217 256 365 390 587 2230 2600 3220 3880
2020-12-25 23:30 3.05 612 4340 (1988) 194 (1956) 1280 216 256 368 390 541 2350 2680 3300 3990
2020-12-25 22:30 3.04 607 4340 (1988) 194 (1956) 1280 216 256 368 390 541 2350 2680 3300 3990
2020-12-25 21:30 3.05 612 4340 (1988) 194 (1956) 1280 216 256 368 390 541 2350 2680 3300 3990
2020-12-25 20:30 3.06 617 4340 (1988) 194 (1956) 1280 216 256 368 390 541 2350 2680 3300 3990
2020-12-25 19:30 3.05 612 4340 (1988) 194 (1956) 1280 216 256 368 390 541 2350 2680 3300 3990
2020-12-25 18:30 3.05 612 4340 (1988) 194 (1956) 1280 216 256 368 390 541 2350 2680 3300 3990
2020-12-25 17:30 3.04 607 4340 (1988) 194 (1956) 1280 216 256 368 390 541 2350 2680 3300 3990
2020-12-25 16:30 3.03 602 4340 (1988) 194 (1956) 1280 216 256 368 390 541 2350 2680 3300 3990
2020-12-25 15:30 3.03 602 4340 (1988) 194 (1956) 1280 216 256 368 390 541 2350 2680 3300 3990
2020-12-25 14:30 3.05 612 4340 (1988) 194 (1956) 1280 216 256 368 390 541 2350 2680 3300 3990
2020-12-25 13:30 3.04 607 4340 (1988) 194 (1956) 1280 216 256 368 390 541 2350 2680 3300 3990
2020-12-25 12:30 3.03 602 4340 (1988) 194 (1956) 1280 216 256 368 390 541 2350 2680 3300 3990
2020-12-25 11:30 3.04 607 4340 (1988) 194 (1956) 1280 216 256 368 390 541 2350 2680 3300 3990
2020-12-25 10:30 3.06 617 4340 (1988) 194 (1956) 1280 216 256 368 390 541 2350 2680 3300 3990
2020-12-25 09:30 3.06 617 4340 (1988) 194 (1956) 1280 216 256 368 390 541 2350 2680 3300 3990
2020-12-25 08:30 3.05 612 4340 (1988) 194 (1956) 1280 216 256 368 390 541 2350 2680 3300 3990
2020-12-25 07:30 3.04 607 4340 (1988) 194 (1956) 1280 216 256 368 390 541 2350 2680 3300 3990
2020-12-25 06:30 3.07 621 4340 (1988) 194 (1956) 1280 216 256 368 390 541 2350 2680 3300 3990
2020-12-25 05:30 3.06 617 4340 (1988) 194 (1956) 1280 216 256 368 390 541 2350 2680 3300 3990
2020-12-25 04:30 3.06 617 4340 (1988) 194 (1956) 1280 216 256 368 390 541 2350 2680 3300 3990
2020-12-25 03:30 3.07 621 4340 (1988) 194 (1956) 1280 216 256 368 390 541 2350 2680 3300 3990
2020-12-25 02:30 3.06 617 4340 (1988) 194 (1956) 1280 216 256 368 390 541 2350 2680 3300 3990
2020-12-25 01:30 3.06 617 4340 (1988) 194 (1956) 1280 216 256 368 390 541 2350 2680 3300 3990
2020-12-25 00:30 3.06 617 4340 (1988) 194 (1956) 1280 216 256 368 390 541 2350 2680 3300 3990
2020-12-24 23:30 3.05 612 7510 (1983) 198 (1956) 1260 220 265 349 382 624 1710 2300 3300 3660
2020-12-24 22:30 3.06 617 7510 (1983) 198 (1956) 1260 220 265 349 382 624 1710 2300 3300 3660
2020-12-24 21:30 3.06 617 7510 (1983) 198 (1956) 1260 220 265 349 382 624 1710 2300 3300 3660
2020-12-24 20:30 3.04 607 7510 (1983) 198 (1956) 1260 220 265 349 382 624 1710 2300 3300 3660
2020-12-24 19:30 3.06 617 7510 (1983) 198 (1956) 1260 220 265 349 382 624 1710 2300 3300 3660
2020-12-24 18:30 3.05 612 7510 (1983) 198 (1956) 1260 220 265 349 382 624 1710 2300 3300 3660
2020-12-24 17:30 3.05 612 7510 (1983) 198 (1956) 1260 220 265 349 382 624 1710 2300 3300 3660
2020-12-24 16:30 3.04 607 7510 (1983) 198 (1956) 1260 220 265 349 382 624 1710 2300 3300 3660
2020-12-24 15:30 3.04 607 7510 (1983) 198 (1956) 1260 220 265 349 382 624 1710 2300 3300 3660
2020-12-24 14:30 3.05 612 7510 (1983) 198 (1956) 1260 220 265 349 382 624 1710 2300 3300 3660
2020-12-24 13:30 3.05 612 7510 (1983) 198 (1956) 1260 220 265 349 382 624 1710 2300 3300 3660
2020-12-24 12:30 3.04 607 7510 (1983) 198 (1956) 1260 220 265 349 382 624 1710 2300 3300 3660
2020-12-24 11:30 3.06 617 7510 (1983) 198 (1956) 1260 220 265 349 382 624 1710 2300 3300 3660
2020-12-24 10:30 3.04 607 7510 (1983) 198 (1956) 1260 220 265 349 382 624 1710 2300 3300 3660
2020-12-24 09:30 3.04 607 7510 (1983) 198 (1956) 1260 220 265 349 382 624 1710 2300 3300 3660
2020-12-24 08:30 3.06 617 7510 (1983) 198 (1956) 1260 220 265 349 382 624 1710 2300 3300 3660
2020-12-24 07:30 3.06 617 7510 (1983) 198 (1956) 1260 220 265 349 382 624 1710 2300 3300 3660
2020-12-24 06:30 3.05 612 7510 (1983) 198 (1956) 1260 220 265 349 382 624 1710 2300 3300 3660
2020-12-24 05:30 3.05 612 7510 (1983) 198 (1956) 1260 220 265 349 382 624 1710 2300 3300 3660
2020-12-24 04:30 3.07 621 7510 (1983) 198 (1956) 1260 220 265 349 382 624 1710 2300 3300 3660
2020-12-24 03:30 3.07 621 7510 (1983) 198 (1956) 1260 220 265 349 382 624 1710 2300 3300 3660
2020-12-24 02:30 3.06 617 7510 (1983) 198 (1956) 1260 220 265 349 382 624 1710 2300 3300 3660
2020-12-24 01:30 3.06 617 7510 (1983) 198 (1956) 1260 220 265 349 382 624 1710 2300 3300 3660
2020-12-24 00:30 3.07 621 7510 (1983) 198 (1956) 1260 220 265 349 382 624 1710 2300 3300 3660
2020-12-23 23:30 3.06 617 4120 (1984) 221 (1956) 1080 223 276 351 362 559 1150 2260 3050 3650
2020-12-23 22:30 3.06 617 4120 (1984) 221 (1956) 1080 223 276 351 362 559 1150 2260 3050 3650
2020-12-23 21:30 3.06 617 4120 (1984) 221 (1956) 1080 223 276 351 362 559 1150 2260 3050 3650
2020-12-23 20:30 3.07 621 4120 (1984) 221 (1956) 1080 223 276 351 362 559 1150 2260 3050 3650
2020-12-23 19:30 3.06 617 4120 (1984) 221 (1956) 1080 223 276 351 362 559 1150 2260 3050 3650
2020-12-23 18:30 3.08 626 4120 (1984) 221 (1956) 1080 223 276 351 362 559 1150 2260 3050 3650
2020-12-23 17:30 3.07 621 4120 (1984) 221 (1956) 1080 223 276 351 362 559 1150 2260 3050 3650
2020-12-23 16:30 3.05 612 4120 (1984) 221 (1956) 1080 223 276 351 362 559 1150 2260 3050 3650
2020-12-23 15:30 3.06 617 4120 (1984) 221 (1956) 1080 223 276 351 362 559 1150 2260 3050 3650
2020-12-23 14:30 3.05 612 4120 (1984) 221 (1956) 1080 223 276 351 362 559 1150 2260 3050 3650
2020-12-23 13:30 3.04 607 4120 (1984) 221 (1956) 1080 223 276 351 362 559 1150 2260 3050 3650
2020-12-23 12:30 3.05 612 4120 (1984) 221 (1956) 1080 223 276 351 362 559 1150 2260 3050 3650
2020-12-23 11:30 3.06 617 4120 (1984) 221 (1956) 1080 223 276 351 362 559 1150 2260 3050 3650
2020-12-23 10:30 3.05 612 4120 (1984) 221 (1956) 1080 223 276 351 362 559 1150 2260 3050 3650
2020-12-23 09:30 3.05 612 4120 (1984) 221 (1956) 1080 223 276 351 362 559 1150 2260 3050 3650
2020-12-23 08:30 3.04 607 4120 (1984) 221 (1956) 1080 223 276 351 362 559 1150 2260 3050 3650
2020-12-23 07:30 3.06 617 4120 (1984) 221 (1956) 1080 223 276 351 362 559 1150 2260 3050 3650
2020-12-23 06:30 3.06 617 4120 (1984) 221 (1956) 1080 223 276 351 362 559 1150 2260 3050 3650
2020-12-23 05:30 3.06 617 4120 (1984) 221 (1956) 1080 223 276 351 362 559 1150 2260 3050 3650
2020-12-23 04:30 3.06 617 4120 (1984) 221 (1956) 1080 223 276 351 362 559 1150 2260 3050 3650
2020-12-23 03:30 3.08 626 4120 (1984) 221 (1956) 1080 223 276 351 362 559 1150 2260 3050 3650
2020-12-23 02:30 3.07 621 4120 (1984) 221 (1956) 1080 223 276 351 362 559 1150 2260 3050 3650
2020-12-23 01:30 3.09 631 4120 (1984) 221 (1956) 1080 223 276 351 362 559 1150 2260 3050 3650
2020-12-23 00:30 3.08 626 4120 (1984) 221 (1956) 1080 223 276 351 362 559 1150 2260 3050 3650
2020-12-22 23:30 3.08 626 4110 (1984) 226 (1956) 1040 226 270 352 371 533 1200 1520 3070 3570
2020-12-22 22:30 3.08 626 4110 (1984) 226 (1956) 1040 226 270 352 371 533 1200 1520 3070 3570
2020-12-22 21:30 3.09 631 4110 (1984) 226 (1956) 1040 226 270 352 371 533 1200 1520 3070 3570
2020-12-22 20:30 3.10 635 4110 (1984) 226 (1956) 1040 226 270 352 371 533 1200 1520 3070 3570
2020-12-22 19:30 3.10 635 4110 (1984) 226 (1956) 1040 226 270 352 371 533 1200 1520 3070 3570
2020-12-22 18:30 3.10 635 4110 (1984) 226 (1956) 1040 226 270 352 371 533 1200 1520 3070 3570
2020-12-22 17:30 3.11 640 4110 (1984) 226 (1956) 1040 226 270 352 371 533 1200 1520 3070 3570
2020-12-22 16:30 3.14 655 4110 (1984) 226 (1956) 1040 226 270 352 371 533 1200 1520 3070 3570
2020-12-22 15:30 3.16 664 4110 (1984) 226 (1956) 1040 226 270 352 371 533 1200 1520 3070 3570
2020-12-22 14:30 3.21 689 4110 (1984) 226 (1956) 1040 226 270 352 371 533 1200 1520 3070 3570
2020-12-22 13:30 3.24 704 4110 (1984) 226 (1956) 1040 226 270 352 371 533 1200 1520 3070 3570
2020-12-22 12:30 3.29 729 4110 (1984) 226 (1956) 1040 226 270 352 371 533 1200 1520 3070 3570
2020-12-22 11:30 3.34 754 4110 (1984) 226 (1956) 1040 226 270 352 371 533 1200 1520 3070 3570
2020-12-22 10:30 3.38 774 4110 (1984) 226 (1956) 1040 226 270 352 371 533 1200 1520 3070 3570
2020-12-22 09:30 3.41 790 4110 (1984) 226 (1956) 1040 226 270 352 371 533 1200 1520 3070 3570
2020-12-22 08:30 3.40 785 4110 (1984) 226 (1956) 1040 226 270 352 371 533 1200 1520 3070 3570
2020-12-22 07:30 3.39 780 4110 (1984) 226 (1956) 1040 226 270 352 371 533 1200 1520 3070 3570
2020-12-22 06:30 3.40 785 4110 (1984) 226 (1956) 1040 226 270 352 371 533 1200 1520 3070 3570
2020-12-22 05:30 3.40 785 4110 (1984) 226 (1956) 1040 226 270 352 371 533 1200 1520 3070 3570
2020-12-22 04:30 3.39 780 4110 (1984) 226 (1956) 1040 226 270 352 371 533 1200 1520 3070 3570
2020-12-22 03:30 3.40 785 4110 (1984) 226 (1956) 1040 226 270 352 371 533 1200 1520 3070 3570
2020-12-22 02:30 3.40 785 4110 (1984) 226 (1956) 1040 226 270 352 371 533 1200 1520 3070 3570
2020-12-22 01:30 3.40 785 4110 (1984) 226 (1956) 1040 226 270 352 371 533 1200 1520 3070 3570
2020-12-22 00:30 3.39 780 4110 (1984) 226 (1956) 1040 226 270 352 371 533 1200 1520 3070 3570
2020-12-21 23:30 3.39 780 4140 (1984) 226 (1956) 1220 235 272 359 380 592 2140 2520 3120 3820
2020-12-21 22:30 3.38 774 4140 (1984) 226 (1956) 1220 235 272 359 380 592 2140 2520 3120 3820
2020-12-21 21:30 3.39 780 4140 (1984) 226 (1956) 1220 235 272 359 380 592 2140 2520 3120 3820
2020-12-21 20:30 3.37 769 4140 (1984) 226 (1956) 1220 235 272 359 380 592 2140 2520 3120 3820
2020-12-21 19:30 3.37 769 4140 (1984) 226 (1956) 1220 235 272 359 380 592 2140 2520 3120 3820
2020-12-21 18:30 3.35 759 4140 (1984) 226 (1956) 1220 235 272 359 380 592 2140 2520 3120 3820
2020-12-21 17:30 3.35 759 4140 (1984) 226 (1956) 1220 235 272 359 380 592 2140 2520 3120 3820
2020-12-21 16:30 3.33 749 4140 (1984) 226 (1956) 1220 235 272 359 380 592 2140 2520 3120 3820
2020-12-21 15:30 3.32 744 4140 (1984) 226 (1956) 1220 235 272 359 380 592 2140 2520 3120 3820
2020-12-21 14:30 3.30 734 4140 (1984) 226 (1956) 1220 235 272 359 380 592 2140 2520 3120 3820
2020-12-21 13:30 3.26 714 4140 (1984) 226 (1956) 1220 235 272 359 380 592 2140 2520 3120 3820
2020-12-21 12:30 3.23 699 4140 (1984) 226 (1956) 1220 235 272 359 380 592 2140 2520 3120 3820
2020-12-21 11:30 3.17 669 4140 (1984) 226 (1956) 1220 235 272 359 380 592 2140 2520 3120 3820
2020-12-21 10:30 3.13 650 4140 (1984) 226 (1956) 1220 235 272 359 380 592 2140 2520 3120 3820
2020-12-21 09:30 3.11 640 4140 (1984) 226 (1956) 1220 235 272 359 380 592 2140 2520 3120 3820
2020-12-21 08:30 3.13 650 4140 (1984) 226 (1956) 1220 235 272 359 380 592 2140 2520 3120 3820
2020-12-21 07:30 3.14 655 4140 (1984) 226 (1956) 1220 235 272 359 380 592 2140 2520 3120 3820
2020-12-21 06:30 3.12 645 4140 (1984) 226 (1956) 1220 235 272 359 380 592 2140 2520 3120 3820
2020-12-21 05:30 3.13 650 4140 (1984) 226 (1956) 1220 235 272 359 380 592 2140 2520 3120 3820
2020-12-21 04:30 3.13 650 4140 (1984) 226 (1956) 1220 235 272 359 380 592 2140 2520 3120 3820
2020-12-21 03:30 3.13 650 4140 (1984) 226 (1956) 1220 235 272 359 380 592 2140 2520 3120 3820
2020-12-21 02:30 3.13 650 4140 (1984) 226 (1956) 1220 235 272 359 380 592 2140 2520 3120 3820
2020-12-21 01:30 3.14 655 4140 (1984) 226 (1956) 1220 235 272 359 380 592 2140 2520 3120 3820
2020-12-21 00:30 3.12 645 4140 (1984) 226 (1956) 1220 235 272 359 380 592 2140 2520 3120 3820
2020-12-20 23:30 3.12 645 4170 (1984) 226 (1956) 1230 237 273 360 384 600 2100 2410 3290 3770
2020-12-20 22:30 3.14 655 4170 (1984) 226 (1956) 1230 237 273 360 384 600 2100 2410 3290 3770
2020-12-20 21:30 3.12 645 4170 (1984) 226 (1956) 1230 237 273 360 384 600 2100 2410 3290 3770
2020-12-20 20:30 3.12 645 4170 (1984) 226 (1956) 1230 237 273 360 384 600 2100 2410 3290 3770
2020-12-20 19:30 3.12 645 4170 (1984) 226 (1956) 1230 237 273 360 384 600 2100 2410 3290 3770
2020-12-20 18:30 3.13 650 4170 (1984) 226 (1956) 1230 237 273 360 384 600 2100 2410 3290 3770
2020-12-20 17:30 3.12 645 4170 (1984) 226 (1956) 1230 237 273 360 384 600 2100 2410 3290 3770
2020-12-20 16:30 3.11 640 4170 (1984) 226 (1956) 1230 237 273 360 384 600 2100 2410 3290 3770
2020-12-20 15:30 3.12 645 4170 (1984) 226 (1956) 1230 237 273 360 384 600 2100 2410 3290 3770
2020-12-20 14:30 3.11 640 4170 (1984) 226 (1956) 1230 237 273 360 384 600 2100 2410 3290 3770
2020-12-20 13:30 3.13 650 4170 (1984) 226 (1956) 1230 237 273 360 384 600 2100 2410 3290 3770
2020-12-20 12:30 3.12 645 4170 (1984) 226 (1956) 1230 237 273 360 384 600 2100 2410 3290 3770
2020-12-20 11:30 3.14 655 4170 (1984) 226 (1956) 1230 237 273 360 384 600 2100 2410 3290 3770
2020-12-20 10:30 3.13 650 4170 (1984) 226 (1956) 1230 237 273 360 384 600 2100 2410 3290 3770
2020-12-20 09:30 3.13 650 4170 (1984) 226 (1956) 1230 237 273 360 384 600 2100 2410 3290 3770
2020-12-20 08:30 3.15 660 4170 (1984) 226 (1956) 1230 237 273 360 384 600 2100 2410 3290 3770
2020-12-20 07:30 3.13 650 4170 (1984) 226 (1956) 1230 237 273 360 384 600 2100 2410 3290 3770
2020-12-20 06:30 3.14 655 4170 (1984) 226 (1956) 1230 237 273 360 384 600 2100 2410 3290 3770
2020-12-20 05:30 3.14 655 4170 (1984) 226 (1956) 1230 237 273 360 384 600 2100 2410 3290 3770
2020-12-20 04:30 3.13 650 4170 (1984) 226 (1956) 1230 237 273 360 384 600 2100 2410 3290 3770
2020-12-20 03:30 3.13 650 4170 (1984) 226 (1956) 1230 237 273 360 384 600 2100 2410 3290 3770
2020-12-20 02:30 3.14 655 4170 (1984) 226 (1956) 1230 237 273 360 384 600 2100 2410 3290 3770
2020-12-20 01:30 3.13 650 4170 (1984) 226 (1956) 1230 237 273 360 384 600 2100 2410 3290 3770
2020-12-20 00:30 3.14 655 4170 (1984) 226 (1956) 1230 237 273 360 384 600 2100 2410 3290 3770
2020-12-19 23:30 3.13 650 4080 (1985) 228 (1956) 1330 240 268 359 389 582 2330 2600 3800 3910
2020-12-19 22:30 3.13 650 4080 (1985) 228 (1956) 1330 240 268 359 389 582 2330 2600 3800 3910
2020-12-19 21:30 3.13 650 4080 (1985) 228 (1956) 1330 240 268 359 389 582 2330 2600 3800 3910
2020-12-19 20:30 3.13 650 4080 (1985) 228 (1956) 1330 240 268 359 389 582 2330 2600 3800 3910
2020-12-19 19:30 3.13 650 4080 (1985) 228 (1956) 1330 240 268 359 389 582 2330 2600 3800 3910
2020-12-19 18:30 3.14 655 4080 (1985) 228 (1956) 1330 240 268 359 389 582 2330 2600 3800 3910
2020-12-19 17:30 3.14 655 4080 (1985) 228 (1956) 1330 240 268 359 389 582 2330 2600 3800 3910
2020-12-19 16:30 3.14 655 4080 (1985) 228 (1956) 1330 240 268 359 389 582 2330 2600 3800 3910
2020-12-19 15:30 3.14 655 4080 (1985) 228 (1956) 1330 240 268 359 389 582 2330 2600 3800 3910
2020-12-19 14:30 3.13 650 4080 (1985) 228 (1956) 1330 240 268 359 389 582 2330 2600 3800 3910
2020-12-19 13:30 3.13 650 4080 (1985) 228 (1956) 1330 240 268 359 389 582 2330 2600 3800 3910
2020-12-19 12:30 3.14 655 4080 (1985) 228 (1956) 1330 240 268 359 389 582 2330 2600 3800 3910
2020-12-19 11:30 3.14 655 4080 (1985) 228 (1956) 1330 240 268 359 389 582 2330 2600 3800 3910
2020-12-19 10:30 3.13 650 4080 (1985) 228 (1956) 1330 240 268 359 389 582 2330 2600 3800 3910
2020-12-19 09:30 3.13 650 4080 (1985) 228 (1956) 1330 240 268 359 389 582 2330 2600 3800 3910
2020-12-19 08:30 3.15 660 4080 (1985) 228 (1956) 1330 240 268 359 389 582 2330 2600 3800 3910
2020-12-19 07:30 3.15 660 4080 (1985) 228 (1956) 1330 240 268 359 389 582 2330 2600 3800 3910
2020-12-19 06:30 3.14 655 4080 (1985) 228 (1956) 1330 240 268 359 389 582 2330 2600 3800 3910
2020-12-19 05:30 3.14 655 4080 (1985) 228 (1956) 1330 240 268 359 389 582 2330 2600 3800 3910
2020-12-19 04:30 3.15 660 4080 (1985) 228 (1956) 1330 240 268 359 389 582 2330 2600 3800 3910
2020-12-19 03:30 3.16 664 4080 (1985) 228 (1956) 1330 240 268 359 389 582 2330 2600 3800 3910
2020-12-19 02:30 3.14 655 4080 (1985) 228 (1956) 1330 240 268 359 389 582 2330 2600 3800 3910
2020-12-19 01:30 3.16 664 4080 (1985) 228 (1956) 1330 240 268 359 389 582 2330 2600 3800 3910
2020-12-19 00:30 3.15 660 4080 (1985) 228 (1956) 1330 240 268 359 389 582 2330 2600 3800 3910
2020-12-18 23:30 3.16 664 4100 (1985) 228 (1956) 1260 254 275 345 370 631 2160 2550 3680 3950
2020-12-18 22:30 3.15 660 4100 (1985) 228 (1956) 1260 254 275 345 370 631 2160 2550 3680 3950
2020-12-18 21:30 3.15 660 4100 (1985) 228 (1956) 1260 254 275 345 370 631 2160 2550 3680 3950
2020-12-18 20:30 3.18 674 4100 (1985) 228 (1956) 1260 254 275 345 370 631 2160 2550 3680 3950
2020-12-18 19:30 3.17 669 4100 (1985) 228 (1956) 1260 254 275 345 370 631 2160 2550 3680 3950
2020-12-18 18:30 3.19 679 4100 (1985) 228 (1956) 1260 254 275 345 370 631 2160 2550 3680 3950
2020-12-18 17:30 3.18 674 4100 (1985) 228 (1956) 1260 254 275 345 370 631 2160 2550 3680 3950
2020-12-18 16:30 3.19 679 4100 (1985) 228 (1956) 1260 254 275 345 370 631 2160 2550 3680 3950
2020-12-18 15:30 3.20 684 4100 (1985) 228 (1956) 1260 254 275 345 370 631 2160 2550 3680 3950
2020-12-18 14:30 3.22 694 4100 (1985) 228 (1956) 1260 254 275 345 370 631 2160 2550 3680 3950
2020-12-18 13:30 3.25 709 4100 (1985) 228 (1956) 1260 254 275 345 370 631 2160 2550 3680 3950
2020-12-18 12:30 3.28 724 4100 (1985) 228 (1956) 1260 254 275 345 370 631 2160 2550 3680 3950
2020-12-18 11:30 3.33 749 4100 (1985) 228 (1956) 1260 254 275 345 370 631 2160 2550 3680 3950
2020-12-18 10:30 3.37 769 4100 (1985) 228 (1956) 1260 254 275 345 370 631 2160 2550 3680 3950
2020-12-18 09:30 3.39 780 4100 (1985) 228 (1956) 1260 254 275 345 370 631 2160 2550 3680 3950
2020-12-18 08:30 3.39 780 4100 (1985) 228 (1956) 1260 254 275 345 370 631 2160 2550 3680 3950
2020-12-18 07:30 3.40 785 4100 (1985) 228 (1956) 1260 254 275 345 370 631 2160 2550 3680 3950
2020-12-18 06:30 3.39 780 4100 (1985) 228 (1956) 1260 254 275 345 370 631 2160 2550 3680 3950
2020-12-18 05:30 3.39 780 4100 (1985) 228 (1956) 1260 254 275 345 370 631 2160 2550 3680 3950
2020-12-18 04:30 3.39 780 4100 (1985) 228 (1956) 1260 254 275 345 370 631 2160 2550 3680 3950
2020-12-18 03:30 3.40 785 4100 (1985) 228 (1956) 1260 254 275 345 370 631 2160 2550 3680 3950
2020-12-18 02:30 3.38 774 4100 (1985) 228 (1956) 1260 254 275 345 370 631 2160 2550 3680 3950
2020-12-18 01:30 3.41 790 4100 (1985) 228 (1956) 1260 254 275 345 370 631 2160 2550 3680 3950
2020-12-18 00:30 3.38 774 4100 (1985) 228 (1956) 1260 254 275 345 370 631 2160 2550 3680 3950
2020-12-17 23:30 3.40 785 3980 (1984) 230 (1956) 1160 261 270 343 378 673 1820 2170 3230 3940
2020-12-17 22:30 3.40 785 3980 (1984) 230 (1956) 1160 261 270 343 378 673 1820 2170 3230 3940
2020-12-17 21:30 3.40 785 3980 (1984) 230 (1956) 1160 261 270 343 378 673 1820 2170 3230 3940
2020-12-17 20:30 3.38 774 3980 (1984) 230 (1956) 1160 261 270 343 378 673 1820 2170 3230 3940
2020-12-17 19:30 3.41 790 3980 (1984) 230 (1956) 1160 261 270 343 378 673 1820 2170 3230 3940
2020-12-17 18:30 3.40 785 3980 (1984) 230 (1956) 1160 261 270 343 378 673 1820 2170 3230 3940
2020-12-17 17:30 3.39 780 3980 (1984) 230 (1956) 1160 261 270 343 378 673 1820 2170 3230 3940
2020-12-17 16:30 3.39 780 3980 (1984) 230 (1956) 1160 261 270 343 378 673 1820 2170 3230 3940
2020-12-17 15:30 3.39 780 3980 (1984) 230 (1956) 1160 261 270 343 378 673 1820 2170 3230 3940
2020-12-17 14:30 3.38 774 3980 (1984) 230 (1956) 1160 261 270 343 378 673 1820 2170 3230 3940
2020-12-17 13:30 3.40 785 3980 (1984) 230 (1956) 1160 261 270 343 378 673 1820 2170 3230 3940
2020-12-17 12:30 3.38 774 3980 (1984) 230 (1956) 1160 261 270 343 378 673 1820 2170 3230 3940
2020-12-17 11:30 3.40 785 3980 (1984) 230 (1956) 1160 261 270 343 378 673 1820 2170 3230 3940
2020-12-17 10:30 3.40 785 3980 (1984) 230 (1956) 1160 261 270 343 378 673 1820 2170 3230 3940
2020-12-17 09:30 3.40 785 3980 (1984) 230 (1956) 1160 261 270 343 378 673 1820 2170 3230 3940
2020-12-17 08:30 3.42 795 3980 (1984) 230 (1956) 1160 261 270 343 378 673 1820 2170 3230 3940
2020-12-17 07:30 3.41 790 3980 (1984) 230 (1956) 1160 261 270 343 378 673 1820 2170 3230 3940
2020-12-17 06:30 3.41 790 3980 (1984) 230 (1956) 1160 261 270 343 378 673 1820 2170 3230 3940
2020-12-17 05:30 3.42 795 3980 (1984) 230 (1956) 1160 261 270 343 378 673 1820 2170 3230 3940
2020-12-17 04:30 3.41 790 3980 (1984) 230 (1956) 1160 261 270 343 378 673 1820 2170 3230 3940
2020-12-17 03:30 3.42 795 3980 (1984) 230 (1956) 1160 261 270 343 378 673 1820 2170 3230 3940
2020-12-17 02:30 3.42 795 3980 (1984) 230 (1956) 1160 261 270 343 378 673 1820 2170 3230 3940
2020-12-17 01:30 3.44 806 3980 (1984) 230 (1956) 1160 261 270 343 378 673 1820 2170 3230 3940
2020-12-17 00:30 3.43 800 3980 (1984) 230 (1956) 1160 261 270 343 378 673 1820 2170 3230 3940
2020-12-16 23:30 3.44 806 3950 (1952) 230 (1956) 1070 250 273 337 378 613 1230 1600 2880 3820
2020-12-16 22:30 3.44 806 3950 (1952) 230 (1956) 1070 250 273 337 378 613 1230 1600 2880 3820
2020-12-16 21:30 3.44 806 3950 (1952) 230 (1956) 1070 250 273 337 378 613 1230 1600 2880 3820
2020-12-16 20:30 3.45 811 3950 (1952) 230 (1956) 1070 250 273 337 378 613 1230 1600 2880 3820
2020-12-16 19:30 3.46 816 3950 (1952) 230 (1956) 1070 250 273 337 378 613 1230 1600 2880 3820
2020-12-16 18:30 3.46 816 3950 (1952) 230 (1956) 1070 250 273 337 378 613 1230 1600 2880 3820
2020-12-16 17:30 3.48 827 3950 (1952) 230 (1956) 1070 250 273 337 378 613 1230 1600 2880 3820
2020-12-16 16:30 3.51 843 3950 (1952) 230 (1956) 1070 250 273 337 378 613 1230 1600 2880 3820
2020-12-16 15:30 3.53 853 3950 (1952) 230 (1956) 1070 250 273 337 378 613 1230 1600 2880 3820
2020-12-16 14:30 3.56 869 3950 (1952) 230 (1956) 1070 250 273 337 378 613 1230 1600 2880 3820
2020-12-16 13:30 3.61 897 3950 (1952) 230 (1956) 1070 250 273 337 378 613 1230 1600 2880 3820
2020-12-16 12:30 3.69 941 3950 (1952) 230 (1956) 1070 250 273 337 378 613 1230 1600 2880 3820
2020-12-16 11:30 3.76 980 3950 (1952) 230 (1956) 1070 250 273 337 378 613 1230 1600 2880 3820
2020-12-16 10:30 3.87 1040 3950 (1952) 230 (1956) 1070 250 273 337 378 613 1230 1600 2880 3820
2020-12-16 09:30 3.92 1070 3950 (1952) 230 (1956) 1070 250 273 337 378 613 1230 1600 2880 3820
2020-12-16 08:30 3.93 1080 3950 (1952) 230 (1956) 1070 250 273 337 378 613 1230 1600 2880 3820
2020-12-16 07:30 3.93 1080 3950 (1952) 230 (1956) 1070 250 273 337 378 613 1230 1600 2880 3820
2020-12-16 06:30 3.93 1080 3950 (1952) 230 (1956) 1070 250 273 337 378 613 1230 1600 2880 3820
2020-12-16 05:30 3.92 1070 3950 (1952) 230 (1956) 1070 250 273 337 378 613 1230 1600 2880 3820
2020-12-16 04:30 3.94 1080 3950 (1952) 230 (1956) 1070 250 273 337 378 613 1230 1600 2880 3820
2020-12-16 03:30 3.91 1070 3950 (1952) 230 (1956) 1070 250 273 337 378 613 1230 1600 2880 3820
2020-12-16 02:30 3.93 1080 3950 (1952) 230 (1956) 1070 250 273 337 378 613 1230 1600 2880 3820
2020-12-16 01:30 3.93 1080 3950 (1952) 230 (1956) 1070 250 273 337 378 613 1230 1600 2880 3820
2020-12-16 00:30 3.92 1070 3950 (1952) 230 (1956) 1070 250 273 337 378 613 1230 1600 2880 3820
2020-12-15 23:30 3.93 1080 4040 (1952) 219 (1971) 1080 230 278 338 374 634 1370 1700 3150 3840
2020-12-15 22:30 3.92 1070 4040 (1952) 219 (1971) 1080 230 278 338 374 634 1370 1700 3150 3840
2020-12-15 21:30 3.92 1070 4040 (1952) 219 (1971) 1080 230 278 338 374 634 1370 1700 3150 3840
2020-12-15 20:30 3.94 1080 4040 (1952) 219 (1971) 1080 230 278 338 374 634 1370 1700 3150 3840
2020-12-15 19:30 3.92 1070 4040 (1952) 219 (1971) 1080 230 278 338 374 634 1370 1700 3150 3840
2020-12-15 18:30 3.93 1080 4040 (1952) 219 (1971) 1080 230 278 338 374 634 1370 1700 3150 3840
2020-12-15 17:30 3.92 1070 4040 (1952) 219 (1971) 1080 230 278 338 374 634 1370 1700 3150 3840
2020-12-15 16:30 3.93 1080 4040 (1952) 219 (1971) 1080 230 278 338 374 634 1370 1700 3150 3840
2020-12-15 15:30 3.91 1070 4040 (1952) 219 (1971) 1080 230 278 338 374 634 1370 1700 3150 3840
2020-12-15 14:30 3.92 1070 4040 (1952) 219 (1971) 1080 230 278 338 374 634 1370 1700 3150 3840
2020-12-15 13:30 3.91 1070 4040 (1952) 219 (1971) 1080 230 278 338 374 634 1370 1700 3150 3840
2020-12-15 12:30 3.92 1070 4040 (1952) 219 (1971) 1080 230 278 338 374 634 1370 1700 3150 3840
2020-12-15 11:30 3.92 1070 4040 (1952) 219 (1971) 1080 230 278 338 374 634 1370 1700 3150 3840
2020-12-15 10:30 3.91 1070 4040 (1952) 219 (1971) 1080 230 278 338 374 634 1370 1700 3150 3840
2020-12-15 09:30 3.91 1070 4040 (1952) 219 (1971) 1080 230 278 338 374 634 1370 1700 3150 3840
2020-12-15 08:30 3.91 1070 4040 (1952) 219 (1971) 1080 230 278 338 374 634 1370 1700 3150 3840
2020-12-15 07:30 3.92 1070 4040 (1952) 219 (1971) 1080 230 278 338 374 634 1370 1700 3150 3840
2020-12-15 06:30 3.93 1080 4040 (1952) 219 (1971) 1080 230 278 338 374 634 1370 1700 3150 3840
2020-12-15 05:30 3.94 1080 4040 (1952) 219 (1971) 1080 230 278 338 374 634 1370 1700 3150 3840
2020-12-15 04:30 3.91 1070 4040 (1952) 219 (1971) 1080 230 278 338 374 634 1370 1700 3150 3840
2020-12-15 03:30 3.91 1070 4040 (1952) 219 (1971) 1080 230 278 338 374 634 1370 1700 3150 3840
2020-12-15 02:30 3.91 1070 4040 (1952) 219 (1971) 1080 230 278 338 374 634 1370 1700 3150 3840
2020-12-15 01:30 3.90 1060 4040 (1952) 219 (1971) 1080 230 278 338 374 634 1370 1700 3150 3840
2020-12-15 00:30 3.90 1060 4040 (1952) 219 (1971) 1080 230 278 338 374 634 1370 1700 3150 3840
2020-12-14 23:30 3.89 1050 4120 (1952) 215 (1971) 1080 231 278 340 351 558 1500 1810 2920 3450
2020-12-14 22:30 3.88 1050 4120 (1952) 215 (1971) 1080 231 278 340 351 558 1500 1810 2920 3450
2020-12-14 21:30 3.87 1040 4120 (1952) 215 (1971) 1080 231 278 340 351 558 1500 1810 2920 3450
2020-12-14 20:30 3.86 1040 4120 (1952) 215 (1971) 1080 231 278 340 351 558 1500 1810 2920 3450
2020-12-14 19:30 3.83 1020 4120 (1952) 215 (1971) 1080 231 278 340 351 558 1500 1810 2920 3450
2020-12-14 18:30 3.80 1000 4120 (1952) 215 (1971) 1080 231 278 340 351 558 1500 1810 2920 3450
2020-12-14 17:30 3.77 986 4120 (1952) 215 (1971) 1080 231 278 340 351 558 1500 1810 2920 3450
2020-12-14 16:30 3.73 963 4120 (1952) 215 (1971) 1080 231 278 340 351 558 1500 1810 2920 3450
2020-12-14 15:30 3.67 930 4120 (1952) 215 (1971) 1080 231 278 340 351 558 1500 1810 2920 3450
2020-12-14 14:30 3.59 886 4120 (1952) 215 (1971) 1080 231 278 340 351 558 1500 1810 2920 3450
2020-12-14 13:30 3.48 827 4120 (1952) 215 (1971) 1080 231 278 340 351 558 1500 1810 2920 3450
2020-12-14 12:30 3.34 754 4120 (1952) 215 (1971) 1080 231 278 340 351 558 1500 1810 2920 3450
2020-12-14 11:30 3.17 669 4120 (1952) 215 (1971) 1080 231 278 340 351 558 1500 1810 2920 3450
2020-12-14 10:30 3.04 607 4120 (1952) 215 (1971) 1080 231 278 340 351 558 1500 1810 2920 3450
2020-12-14 09:30 3.04 607 4120 (1952) 215 (1971) 1080 231 278 340 351 558 1500 1810 2920 3450
2020-12-14 08:30 3.03 602 4120 (1952) 215 (1971) 1080 231 278 340 351 558 1500 1810 2920 3450
2020-12-14 07:30 3.03 602 4120 (1952) 215 (1971) 1080 231 278 340 351 558 1500 1810 2920 3450
2020-12-14 06:30 3.04 607 4120 (1952) 215 (1971) 1080 231 278 340 351 558 1500 1810 2920 3450
2020-12-14 05:30 3.03 602 4120 (1952) 215 (1971) 1080 231 278 340 351 558 1500 1810 2920 3450
2020-12-14 04:30 3.05 612 4120 (1952) 215 (1971) 1080 231 278 340 351 558 1500 1810 2920 3450
2020-12-14 03:30 3.04 607 4120 (1952) 215 (1971) 1080 231 278 340 351 558 1500 1810 2920 3450
2020-12-14 02:30 3.04 607 4120 (1952) 215 (1971) 1080 231 278 340 351 558 1500 1810 2920 3450
2020-12-14 01:30 3.03 602 4120 (1952) 215 (1971) 1080 231 278 340 351 558 1500 1810 2920 3450
2020-12-14 00:30 3.05 612 4120 (1952) 215 (1971) 1080 231 278 340 351 558 1500 1810 2920 3450
2020-12-13 23:30 3.04 607 3760 (1986) 215 (1963) 1050 222 271 347 363 552 1460 1860 2760 3360
2020-12-13 22:30 3.05 612 3760 (1986) 215 (1963) 1050 222 271 347 363 552 1460 1860 2760 3360
2020-12-13 21:30 3.05 612 3760 (1986) 215 (1963) 1050 222 271 347 363 552 1460 1860 2760 3360
2020-12-13 20:30 3.05 612 3760 (1986) 215 (1963) 1050 222 271 347 363 552 1460 1860 2760 3360
2020-12-13 19:30 3.06 617 3760 (1986) 215 (1963) 1050 222 271 347 363 552 1460 1860 2760 3360
2020-12-13 18:30 3.05 612 3760 (1986) 215 (1963) 1050 222 271 347 363 552 1460 1860 2760 3360
2020-12-13 17:30 3.04 607 3760 (1986) 215 (1963) 1050 222 271 347 363 552 1460 1860 2760 3360
2020-12-13 16:30 3.05 612 3760 (1986) 215 (1963) 1050 222 271 347 363 552 1460 1860 2760 3360
2020-12-13 15:30 3.05 612 3760 (1986) 215 (1963) 1050 222 271 347 363 552 1460 1860 2760 3360
2020-12-13 14:30 3.04 607 3760 (1986) 215 (1963) 1050 222 271 347 363 552 1460 1860 2760 3360
2020-12-13 13:30 3.03 602 3760 (1986) 215 (1963) 1050 222 271 347 363 552 1460 1860 2760 3360
2020-12-13 12:30 3.03 602 3760 (1986) 215 (1963) 1050 222 271 347 363 552 1460 1860 2760 3360
2020-12-13 11:30 3.04 607 3760 (1986) 215 (1963) 1050 222 271 347 363 552 1460 1860 2760 3360
2020-12-13 10:30 3.03 602 3760 (1986) 215 (1963) 1050 222 271 347 363 552 1460 1860 2760 3360
2020-12-13 09:30 3.05 612 3760 (1986) 215 (1963) 1050 222 271 347 363 552 1460 1860 2760 3360
2020-12-13 08:30 3.03 602 3760 (1986) 215 (1963) 1050 222 271 347 363 552 1460 1860 2760 3360
2020-12-13 07:30 3.03 602 3760 (1986) 215 (1963) 1050 222 271 347 363 552 1460 1860 2760 3360
2020-12-13 06:30 3.04 607 3760 (1986) 215 (1963) 1050 222 271 347 363 552 1460 1860 2760 3360
2020-12-13 05:30 3.03 602 3760 (1986) 215 (1963) 1050 222 271 347 363 552 1460 1860 2760 3360
2020-12-13 04:30 3.04 607 3760 (1986) 215 (1963) 1050 222 271 347 363 552 1460 1860 2760 3360
2020-12-13 03:30 3.05 612 3760 (1986) 215 (1963) 1050 222 271 347 363 552 1460 1860 2760 3360
2020-12-13 02:30 3.05 612 3760 (1986) 215 (1963) 1050 222 271 347 363 552 1460 1860 2760 3360
2020-12-13 01:30 3.03 602 3760 (1986) 215 (1963) 1050 222 271 347 363 552 1460 1860 2760 3360
2020-12-13 00:30 3.05 612 3760 (1986) 215 (1963) 1050 222 271 347 363 552 1460 1860 2760 3360
2020-12-12 23:30 3.04 607 3970 (1985) 217 (1963) 1020 224 267 339 372 579 1590 1820 2550 3380
2020-12-12 22:30 3.03 602 3970 (1985) 217 (1963) 1020 224 267 339 372 579 1590 1820 2550 3380
2020-12-12 21:30 3.05 612 3970 (1985) 217 (1963) 1020 224 267 339 372 579 1590 1820 2550 3380
2020-12-12 20:30 3.05 612 3970 (1985) 217 (1963) 1020 224 267 339 372 579 1590 1820 2550 3380
2020-12-12 19:30 3.05 612 3970 (1985) 217 (1963) 1020 224 267 339 372 579 1590 1820 2550 3380
2020-12-12 18:30 3.04 607 3970 (1985) 217 (1963) 1020 224 267 339 372 579 1590 1820 2550 3380
2020-12-12 17:30 3.05 612 3970 (1985) 217 (1963) 1020 224 267 339 372 579 1590 1820 2550 3380
2020-12-12 16:30 3.05 612 3970 (1985) 217 (1963) 1020 224 267 339 372 579 1590 1820 2550 3380
2020-12-12 15:30 3.06 617 3970 (1985) 217 (1963) 1020 224 267 339 372 579 1590 1820 2550 3380
2020-12-12 14:30 3.05 612 3970 (1985) 217 (1963) 1020 224 267 339 372 579 1590 1820 2550 3380
2020-12-12 13:30 3.06 617 3970 (1985) 217 (1963) 1020 224 267 339 372 579 1590 1820 2550 3380
2020-12-12 12:30 3.06 617 3970 (1985) 217 (1963) 1020 224 267 339 372 579 1590 1820 2550 3380
2020-12-12 11:30 3.07 621 3970 (1985) 217 (1963) 1020 224 267 339 372 579 1590 1820 2550 3380
2020-12-12 10:30 3.07 621 3970 (1985) 217 (1963) 1020 224 267 339 372 579 1590 1820 2550 3380
2020-12-12 09:30 3.07 621 3970 (1985) 217 (1963) 1020 224 267 339 372 579 1590 1820 2550 3380
2020-12-12 08:30 3.08 626 3970 (1985) 217 (1963) 1020 224 267 339 372 579 1590 1820 2550 3380
2020-12-12 07:30 3.09 631 3970 (1985) 217 (1963) 1020 224 267 339 372 579 1590 1820 2550 3380
2020-12-12 06:30 3.07 621 3970 (1985) 217 (1963) 1020 224 267 339 372 579 1590 1820 2550 3380
2020-12-12 05:30 3.07 621 3970 (1985) 217 (1963) 1020 224 267 339 372 579 1590 1820 2550 3380
2020-12-12 04:30 3.07 621 3970 (1985) 217 (1963) 1020 224 267 339 372 579 1590 1820 2550 3380
2020-12-12 03:30 3.08 626 3970 (1985) 217 (1963) 1020 224 267 339 372 579 1590 1820 2550 3380
2020-12-12 02:30 3.06 617 3970 (1985) 217 (1963) 1020 224 267 339 372 579 1590 1820 2550 3380
2020-12-12 01:30 3.06 617 3970 (1985) 217 (1963) 1020 224 267 339 372 579 1590 1820 2550 3380
2020-12-12 00:30 3.05 612 3970 (1985) 217 (1963) 1020 224 267 339 372 579 1590 1820 2550 3380
2020-12-11 23:30 3.09 631 3990 (1985) 221 (1971) 1020 228 269 334 383 595 1420 1800 2400 3540
2020-12-11 22:30 3.05 612 3990 (1985) 221 (1971) 1020 228 269 334 383 595 1420 1800 2400 3540
2020-12-11 21:30 3.06 617 3990 (1985) 221 (1971) 1020 228 269 334 383 595 1420 1800 2400 3540
2020-12-11 20:30 3.06 617 3990 (1985) 221 (1971) 1020 228 269 334 383 595 1420 1800 2400 3540
2020-12-11 19:30 3.05 612 3990 (1985) 221 (1971) 1020 228 269 334 383 595 1420 1800 2400 3540
2020-12-11 18:30 3.06 617 3990 (1985) 221 (1971) 1020 228 269 334 383 595 1420 1800 2400 3540
2020-12-11 17:30 3.05 612 3990 (1985) 221 (1971) 1020 228 269 334 383 595 1420 1800 2400 3540
2020-12-11 16:30 3.04 607 3990 (1985) 221 (1971) 1020 228 269 334 383 595 1420 1800 2400 3540
2020-12-11 15:30 3.02 598 3990 (1985) 221 (1971) 1020 228 269 334 383 595 1420 1800 2400 3540
2020-12-11 14:30 3.02 598 3990 (1985) 221 (1971) 1020 228 269 334 383 595 1420 1800 2400 3540
2020-12-11 13:30 3.01 593 3990 (1985) 221 (1971) 1020 228 269 334 383 595 1420 1800 2400 3540
2020-12-11 12:30 3.02 598 3990 (1985) 221 (1971) 1020 228 269 334 383 595 1420 1800 2400 3540
2020-12-11 11:30 2.99 584 3990 (1985) 221 (1971) 1020 228 269 334 383 595 1420 1800 2400 3540
2020-12-11 10:30 3.01 593 3990 (1985) 221 (1971) 1020 228 269 334 383 595 1420 1800 2400 3540
2020-12-11 09:30 3.02 598 3990 (1985) 221 (1971) 1020 228 269 334 383 595 1420 1800 2400 3540
2020-12-11 08:30 3.03 602 3990 (1985) 221 (1971) 1020 228 269 334 383 595 1420 1800 2400 3540
2020-12-11 07:30 3.02 598 3990 (1985) 221 (1971) 1020 228 269 334 383 595 1420 1800 2400 3540
2020-12-11 06:30 3.03 602 3990 (1985) 221 (1971) 1020 228 269 334 383 595 1420 1800 2400 3540
2020-12-11 05:30 3.03 602 3990 (1985) 221 (1971) 1020 228 269 334 383 595 1420 1800 2400 3540
2020-12-11 04:30 3.04 607 3990 (1985) 221 (1971) 1020 228 269 334 383 595 1420 1800 2400 3540
2020-12-11 03:30 3.03 602 3990 (1985) 221 (1971) 1020 228 269 334 383 595 1420 1800 2400 3540
2020-12-11 02:30 3.03 602 3990 (1985) 221 (1971) 1020 228 269 334 383 595 1420 1800 2400 3540
2020-12-11 01:30 3.05 612 3990 (1985) 221 (1971) 1020 228 269 334 383 595 1420 1800 2400 3540
2020-12-11 00:30 3.04 607 3990 (1985) 221 (1971) 1020 228 269 334 383 595 1420 1800 2400 3540
2020-12-10 23:30 3.04 607 3780 (1985) 212 (1966) 1080 220 278 323 372 678 1550 1850 2690 3010
2020-12-10 22:30 3.05 612 3780 (1985) 212 (1966) 1080 220 278 323 372 678 1550 1850 2690 3010
2020-12-10 21:30 3.05 612 3780 (1985) 212 (1966) 1080 220 278 323 372 678 1550 1850 2690 3010
2020-12-10 20:30 3.06 617 3780 (1985) 212 (1966) 1080 220 278 323 372 678 1550 1850 2690 3010
2020-12-10 19:30 3.06 617 3780 (1985) 212 (1966) 1080 220 278 323 372 678 1550 1850 2690 3010
2020-12-10 18:30 3.08 626 3780 (1985) 212 (1966) 1080 220 278 323 372 678 1550 1850 2690 3010
2020-12-10 17:30 3.08 626 3780 (1985) 212 (1966) 1080 220 278 323 372 678 1550 1850 2690 3010
2020-12-10 16:30 3.11 640 3780 (1985) 212 (1966) 1080 220 278 323 372 678 1550 1850 2690 3010
2020-12-10 15:30 3.13 650 3780 (1985) 212 (1966) 1080 220 278 323 372 678 1550 1850 2690 3010
2020-12-10 14:30 3.16 664 3780 (1985) 212 (1966) 1080 220 278 323 372 678 1550 1850 2690 3010
2020-12-10 13:30 3.20 684 3780 (1985) 212 (1966) 1080 220 278 323 372 678 1550 1850 2690 3010
2020-12-10 12:30 3.26 714 3780 (1985) 212 (1966) 1080 220 278 323 372 678 1550 1850 2690 3010
2020-12-10 11:30 3.31 739 3780 (1985) 212 (1966) 1080 220 278 323 372 678 1550 1850 2690 3010
2020-12-10 10:30 3.33 749 3780 (1985) 212 (1966) 1080 220 278 323 372 678 1550 1850 2690 3010
2020-12-10 09:30 3.35 759 3780 (1985) 212 (1966) 1080 220 278 323 372 678 1550 1850 2690 3010
2020-12-10 08:30 3.36 764 3780 (1985) 212 (1966) 1080 220 278 323 372 678 1550 1850 2690 3010
2020-12-10 07:30 3.36 764 3780 (1985) 212 (1966) 1080 220 278 323 372 678 1550 1850 2690 3010
2020-12-10 06:30 3.36 764 3780 (1985) 212 (1966) 1080 220 278 323 372 678 1550 1850 2690 3010
2020-12-10 05:30 3.38 774 3780 (1985) 212 (1966) 1080 220 278 323 372 678 1550 1850 2690 3010
2020-12-10 04:30 3.36 764 3780 (1985) 212 (1966) 1080 220 278 323 372 678 1550 1850 2690 3010
2020-12-10 03:30 3.35 759 3780 (1985) 212 (1966) 1080 220 278 323 372 678 1550 1850 2690 3010
2020-12-10 02:30 3.36 764 3780 (1985) 212 (1966) 1080 220 278 323 372 678 1550 1850 2690 3010
2020-12-10 01:30 3.36 764 3780 (1985) 212 (1966) 1080 220 278 323 372 678 1550 1850 2690 3010
2020-12-10 00:30 3.37 769 3780 (1985) 212 (1966) 1080 220 278 323 372 678 1550 1850 2690 3010
2020-12-09 23:30 3.38 774 3680 (1985) 212 (1966) 1060 217 260 312 344 655 1470 1780 2830 3600
2020-12-09 22:30 3.37 769 3680 (1985) 212 (1966) 1060 217 260 312 344 655 1470 1780 2830 3600
2020-12-09 21:30 3.38 774 3680 (1985) 212 (1966) 1060 217 260 312 344 655 1470 1780 2830 3600
2020-12-09 20:30 3.37 769 3680 (1985) 212 (1966) 1060 217 260 312 344 655 1470 1780 2830 3600
2020-12-09 19:30 3.40 785 3680 (1985) 212 (1966) 1060 217 260 312 344 655 1470 1780 2830 3600
2020-12-09 18:30 3.38 774 3680 (1985) 212 (1966) 1060 217 260 312 344 655 1470 1780 2830 3600
2020-12-09 17:30 3.40 785 3680 (1985) 212 (1966) 1060 217 260 312 344 655 1470 1780 2830 3600
2020-12-09 16:30 3.40 785 3680 (1985) 212 (1966) 1060 217 260 312 344 655 1470 1780 2830 3600
2020-12-09 15:30 3.43 800 3680 (1985) 212 (1966) 1060 217 260 312 344 655 1470 1780 2830 3600
2020-12-09 14:30 3.43 800 3680 (1985) 212 (1966) 1060 217 260 312 344 655 1470 1780 2830 3600
2020-12-09 13:30 3.43 800 3680 (1985) 212 (1966) 1060 217 260 312 344 655 1470 1780 2830 3600
2020-12-09 12:30 3.47 821 3680 (1985) 212 (1966) 1060 217 260 312 344 655 1470 1780 2830 3600
2020-12-09 11:30 3.51 843 3680 (1985) 212 (1966) 1060 217 260 312 344 655 1470 1780 2830 3600
2020-12-09 10:30 3.53 853 3680 (1985) 212 (1966) 1060 217 260 312 344 655 1470 1780 2830 3600
2020-12-09 09:30 3.53 853 3680 (1985) 212 (1966) 1060 217 260 312 344 655 1470 1780 2830 3600
2020-12-09 08:30 3.52 848 3680 (1985) 212 (1966) 1060 217 260 312 344 655 1470 1780 2830 3600
2020-12-09 07:30 3.55 864 3680 (1985) 212 (1966) 1060 217 260 312 344 655 1470 1780 2830 3600
2020-12-09 06:30 3.54 859 3680 (1985) 212 (1966) 1060 217 260 312 344 655 1470 1780 2830 3600
2020-12-09 05:30 3.54 859 3680 (1985) 212 (1966) 1060 217 260 312 344 655 1470 1780 2830 3600
2020-12-09 04:30 3.54 859 3680 (1985) 212 (1966) 1060 217 260 312 344 655 1470 1780 2830 3600
2020-12-09 03:30 3.54 859 3680 (1985) 212 (1966) 1060 217 260 312 344 655 1470 1780 2830 3600
2020-12-09 02:30 3.53 853 3680 (1985) 212 (1966) 1060 217 260 312 344 655 1470 1780 2830 3600
2020-12-09 01:30 3.55 864 3680 (1985) 212 (1966) 1060 217 260 312 344 655 1470 1780 2830 3600
2020-12-09 00:30 3.54 859 3680 (1985) 212 (1966) 1060 217 260 312 344 655 1470 1780 2830 3600
2020-12-08 23:30 3.54 859 3720 (1985) 213 (1966) 1040 217 270 300 324 565 1330 1840 3070 3410
2020-12-08 22:30 3.55 864 3720 (1985) 213 (1966) 1040 217 270 300 324 565 1330 1840 3070 3410
2020-12-08 21:30 3.54 859 3720 (1985) 213 (1966) 1040 217 270 300 324 565 1330 1840 3070 3410
2020-12-08 20:30 3.54 859 3720 (1985) 213 (1966) 1040 217 270 300 324 565 1330 1840 3070 3410
2020-12-08 19:30 3.52 848 3720 (1985) 213 (1966) 1040 217 270 300 324 565 1330 1840 3070 3410
2020-12-08 18:30 3.54 859 3720 (1985) 213 (1966) 1040 217 270 300 324 565 1330 1840 3070 3410
2020-12-08 17:30 3.54 859 3720 (1985) 213 (1966) 1040 217 270 300 324 565 1330 1840 3070 3410
2020-12-08 16:30 3.52 848 3720 (1985) 213 (1966) 1040 217 270 300 324 565 1330 1840 3070 3410
2020-12-08 15:30 3.53 853 3720 (1985) 213 (1966) 1040 217 270 300 324 565 1330 1840 3070 3410
2020-12-08 14:30 3.55 864 3720 (1985) 213 (1966) 1040 217 270 300 324 565 1330 1840 3070 3410
2020-12-08 13:30 3.54 859 3720 (1985) 213 (1966) 1040 217 270 300 324 565 1330 1840 3070 3410
2020-12-08 12:30 3.54 859 3720 (1985) 213 (1966) 1040 217 270 300 324 565 1330 1840 3070 3410
2020-12-08 11:30 3.53 853 3720 (1985) 213 (1966) 1040 217 270 300 324 565 1330 1840 3070 3410
2020-12-08 10:30 3.54 859 3720 (1985) 213 (1966) 1040 217 270 300 324 565 1330 1840 3070 3410
2020-12-08 09:30 3.55 864 3720 (1985) 213 (1966) 1040 217 270 300 324 565 1330 1840 3070 3410
2020-12-08 08:30 3.55 864 3720 (1985) 213 (1966) 1040 217 270 300 324 565 1330 1840 3070 3410
2020-12-08 07:30 3.56 869 3720 (1985) 213 (1966) 1040 217 270 300 324 565 1330 1840 3070 3410
2020-12-08 06:30 3.54 859 3720 (1985) 213 (1966) 1040 217 270 300 324 565 1330 1840 3070 3410
2020-12-08 05:30 3.55 864 3720 (1985) 213 (1966) 1040 217 270 300 324 565 1330 1840 3070 3410
2020-12-08 04:30 3.55 864 3720 (1985) 213 (1966) 1040 217 270 300 324 565 1330 1840 3070 3410
2020-12-08 03:30 3.55 864 3720 (1985) 213 (1966) 1040 217 270 300 324 565 1330 1840 3070 3410
2020-12-08 02:30 3.54 859 3720 (1985) 213 (1966) 1040 217 270 300 324 565 1330 1840 3070 3410
2020-12-08 01:30 3.55 864 3720 (1985) 213 (1966) 1040 217 270 300 324 565 1330 1840 3070 3410
2020-12-08 00:30 3.53 853 3720 (1985) 213 (1966) 1040 217 270 300 324 565 1330 1840 3070 3410
2020-12-07 23:30 3.53 853 4120 (1952) 212 (1966) 1000 217 263 294 300 621 1090 1460 2690 3620
2020-12-07 22:30 3.53 853 4120 (1952) 212 (1966) 1000 217 263 294 300 621 1090 1460 2690 3620
2020-12-07 21:30 3.53 853 4120 (1952) 212 (1966) 1000 217 263 294 300 621 1090 1460 2690 3620
2020-12-07 20:30 3.53 853 4120 (1952) 212 (1966) 1000 217 263 294 300 621 1090 1460 2690 3620
2020-12-07 19:30 3.51 843 4120 (1952) 212 (1966) 1000 217 263 294 300 621 1090 1460 2690 3620
2020-12-07 18:30 3.51 843 4120 (1952) 212 (1966) 1000 217 263 294 300 621 1090 1460 2690 3620
2020-12-07 17:30 3.51 843 4120 (1952) 212 (1966) 1000 217 263 294 300 621 1090 1460 2690 3620
2020-12-07 16:30 3.49 832 4120 (1952) 212 (1966) 1000 217 263 294 300 621 1090 1460 2690 3620
2020-12-07 15:30 3.49 832 4120 (1952) 212 (1966) 1000 217 263 294 300 621 1090 1460 2690 3620
2020-12-07 14:30 3.45 811 4120 (1952) 212 (1966) 1000 217 263 294 300 621 1090 1460 2690 3620
2020-12-07 13:30 3.44 806 4120 (1952) 212 (1966) 1000 217 263 294 300 621 1090 1460 2690 3620
2020-12-07 12:30 3.40 785 4120 (1952) 212 (1966) 1000 217 263 294 300 621 1090 1460 2690 3620
2020-12-07 11:30 3.37 769 4120 (1952) 212 (1966) 1000 217 263 294 300 621 1090 1460 2690 3620
2020-12-07 10:30 3.34 754 4120 (1952) 212 (1966) 1000 217 263 294 300 621 1090 1460 2690 3620
2020-12-07 09:30 3.33 749 4120 (1952) 212 (1966) 1000 217 263 294 300 621 1090 1460 2690 3620
2020-12-07 08:30 3.33 749 4120 (1952) 212 (1966) 1000 217 263 294 300 621 1090 1460 2690 3620
2020-12-07 07:30 3.34 754 4120 (1952) 212 (1966) 1000 217 263 294 300 621 1090 1460 2690 3620
2020-12-07 06:30 3.34 754 4120 (1952) 212 (1966) 1000 217 263 294 300 621 1090 1460 2690 3620
2020-12-07 05:30 3.34 754 4120 (1952) 212 (1966) 1000 217 263 294 300 621 1090 1460 2690 3620
2020-12-07 04:30 3.33 749 4120 (1952) 212 (1966) 1000 217 263 294 300 621 1090 1460 2690 3620
2020-12-07 03:30 3.34 754 4120 (1952) 212 (1966) 1000 217 263 294 300 621 1090 1460 2690 3620
2020-12-07 02:30 3.33 749 4120 (1952) 212 (1966) 1000 217 263 294 300 621 1090 1460 2690 3620
2020-12-07 01:30 3.35 759 4120 (1952) 212 (1966) 1000 217 263 294 300 621 1090 1460 2690 3620
2020-12-07 00:30 3.35 759 4120 (1952) 212 (1966) 1000 217 263 294 300 621 1090 1460 2690 3620
2020-12-06 23:30 3.35 759 4120 (1952) 214 (1966) 971 219 252 293 328 618 1040 1150 3010 3600
2020-12-06 22:30 3.34 754 4120 (1952) 214 (1966) 971 219 252 293 328 618 1040 1150 3010 3600
2020-12-06 21:30 3.34 754 4120 (1952) 214 (1966) 971 219 252 293 328 618 1040 1150 3010 3600
2020-12-06 20:30 3.35 759 4120 (1952) 214 (1966) 971 219 252 293 328 618 1040 1150 3010 3600
2020-12-06 19:30 3.34 754 4120 (1952) 214 (1966) 971 219 252 293 328 618 1040 1150 3010 3600
2020-12-06 18:30 3.34 754 4120 (1952) 214 (1966) 971 219 252 293 328 618 1040 1150 3010 3600
2020-12-06 17:30 3.32 744 4120 (1952) 214 (1966) 971 219 252 293 328 618 1040 1150 3010 3600
2020-12-06 16:30 3.35 759 4120 (1952) 214 (1966) 971 219 252 293 328 618 1040 1150 3010 3600
2020-12-06 15:30 3.34 754 4120 (1952) 214 (1966) 971 219 252 293 328 618 1040 1150 3010 3600
2020-12-06 14:30 3.34 754 4120 (1952) 214 (1966) 971 219 252 293 328 618 1040 1150 3010 3600
2020-12-06 13:30 3.35 759 4120 (1952) 214 (1966) 971 219 252 293 328 618 1040 1150 3010 3600
2020-12-06 12:30 3.34 754 4120 (1952) 214 (1966) 971 219 252 293 328 618 1040 1150 3010 3600
2020-12-06 11:30 3.34 754 4120 (1952) 214 (1966) 971 219 252 293 328 618 1040 1150 3010 3600
2020-12-06 10:30 3.34 754 4120 (1952) 214 (1966) 971 219 252 293 328 618 1040 1150 3010 3600
2020-12-06 09:30 3.35 759 4120 (1952) 214 (1966) 971 219 252 293 328 618 1040 1150 3010 3600
2020-12-06 08:30 3.36 764 4120 (1952) 214 (1966) 971 219 252 293 328 618 1040 1150 3010 3600
2020-12-06 07:30 3.35 759 4120 (1952) 214 (1966) 971 219 252 293 328 618 1040 1150 3010 3600
2020-12-06 06:30 3.38 774 4120 (1952) 214 (1966) 971 219 252 293 328 618 1040 1150 3010 3600
2020-12-06 05:30 3.36 764 4120 (1952) 214 (1966) 971 219 252 293 328 618 1040 1150 3010 3600
2020-12-06 04:30 3.36 764 4120 (1952) 214 (1966) 971 219 252 293 328 618 1040 1150 3010 3600
2020-12-06 03:30 3.36 764 4120 (1952) 214 (1966) 971 219 252 293 328 618 1040 1150 3010 3600
2020-12-06 02:30 3.35 759 4120 (1952) 214 (1966) 971 219 252 293 328 618 1040 1150 3010 3600
2020-12-06 01:30 3.35 759 4120 (1952) 214 (1966) 971 219 252 293 328 618 1040 1150 3010 3600
2020-12-06 00:30 3.36 764 4120 (1952) 214 (1966) 971 219 252 293 328 618 1040 1150 3010 3600
2020-12-05 23:30 3.37 769 4120 (1985) 215 (1966) 972 222 267 293 320 632 1040 1360 2500 3660
2020-12-05 22:30 3.35 759 4120 (1985) 215 (1966) 972 222 267 293 320 632 1040 1360 2500 3660
2020-12-05 21:30 3.36 764 4120 (1985) 215 (1966) 972 222 267 293 320 632 1040 1360 2500 3660
2020-12-05 20:30 3.35 759 4120 (1985) 215 (1966) 972 222 267 293 320 632 1040 1360 2500 3660
2020-12-05 19:30 3.35 759 4120 (1985) 215 (1966) 972 222 267 293 320 632 1040 1360 2500 3660
2020-12-05 18:30 3.35 759 4120 (1985) 215 (1966) 972 222 267 293 320 632 1040 1360 2500 3660
2020-12-05 17:30 3.36 764 4120 (1985) 215 (1966) 972 222 267 293 320 632 1040 1360 2500 3660
2020-12-05 16:30 3.35 759 4120 (1985) 215 (1966) 972 222 267 293 320 632 1040 1360 2500 3660
2020-12-05 15:30 3.35 759 4120 (1985) 215 (1966) 972 222 267 293 320 632 1040 1360 2500 3660
2020-12-05 14:30 3.37 769 4120 (1985) 215 (1966) 972 222 267 293 320 632 1040 1360 2500 3660
2020-12-05 13:30 3.37 769 4120 (1985) 215 (1966) 972 222 267 293 320 632 1040 1360 2500 3660
2020-12-05 12:30 3.37 769 4120 (1985) 215 (1966) 972 222 267 293 320 632 1040 1360 2500 3660
2020-12-05 11:30 3.36 764 4120 (1985) 215 (1966) 972 222 267 293 320 632 1040 1360 2500 3660
2020-12-05 10:30 3.37 769 4120 (1985) 215 (1966) 972 222 267 293 320 632 1040 1360 2500 3660
2020-12-05 09:30 3.39 780 4120 (1985) 215 (1966) 972 222 267 293 320 632 1040 1360 2500 3660
2020-12-05 08:30 3.38 774 4120 (1985) 215 (1966) 972 222 267 293 320 632 1040 1360 2500 3660
2020-12-05 07:30 3.39 780 4120 (1985) 215 (1966) 972 222 267 293 320 632 1040 1360 2500 3660
2020-12-05 06:30 3.39 780 4120 (1985) 215 (1966) 972 222 267 293 320 632 1040 1360 2500 3660
2020-12-05 05:30 3.40 785 4120 (1985) 215 (1966) 972 222 267 293 320 632 1040 1360 2500 3660
2020-12-05 04:30 3.41 790 4120 (1985) 215 (1966) 972 222 267 293 320 632 1040 1360 2500 3660
2020-12-05 03:30 3.39 780 4120 (1985) 215 (1966) 972 222 267 293 320 632 1040 1360 2500 3660
2020-12-05 02:30 3.40 785 4120 (1985) 215 (1966) 972 222 267 293 320 632 1040 1360 2500 3660
2020-12-05 01:30 3.41 790 4120 (1985) 215 (1966) 972 222 267 293 320 632 1040 1360 2500 3660
2020-12-05 00:30 3.41 790 4120 (1985) 215 (1966) 972 222 267 293 320 632 1040 1360 2500 3660
2020-12-04 23:30 3.41 790 4110 (1985) 211 (1971) 1010 228 257 295 299 652 1200 1530 3070 3710
2020-12-04 22:30 3.41 790 4110 (1985) 211 (1971) 1010 228 257 295 299 652 1200 1530 3070 3710
2020-12-04 21:30 3.41 790 4110 (1985) 211 (1971) 1010 228 257 295 299 652 1200 1530 3070 3710
2020-12-04 20:30 3.43 800 4110 (1985) 211 (1971) 1010 228 257 295 299 652 1200 1530 3070 3710
2020-12-04 19:30 3.42 795 4110 (1985) 211 (1971) 1010 228 257 295 299 652 1200 1530 3070 3710
2020-12-04 18:30 3.46 816 4110 (1985) 211 (1971) 1010 228 257 295 299 652 1200 1530 3070 3710
2020-12-04 17:30 3.47 821 4110 (1985) 211 (1971) 1010 228 257 295 299 652 1200 1530 3070 3710
2020-12-04 16:30 3.49 832 4110 (1985) 211 (1971) 1010 228 257 295 299 652 1200 1530 3070 3710
2020-12-04 15:30 3.51 843 4110 (1985) 211 (1971) 1010 228 257 295 299 652 1200 1530 3070 3710
2020-12-04 14:30 3.55 864 4110 (1985) 211 (1971) 1010 228 257 295 299 652 1200 1530 3070 3710
2020-12-04 13:30 3.61 897 4110 (1985) 211 (1971) 1010 228 257 295 299 652 1200 1530 3070 3710
2020-12-04 12:30 3.65 919 4110 (1985) 211 (1971) 1010 228 257 295 299 652 1200 1530 3070 3710
2020-12-04 11:30 3.72 957 4110 (1985) 211 (1971) 1010 228 257 295 299 652 1200 1530 3070 3710
2020-12-04 10:30 3.79 997 4110 (1985) 211 (1971) 1010 228 257 295 299 652 1200 1530 3070 3710
2020-12-04 09:30 3.80 1000 4110 (1985) 211 (1971) 1010 228 257 295 299 652 1200 1530 3070 3710
2020-12-04 08:30 3.81 1010 4110 (1985) 211 (1971) 1010 228 257 295 299 652 1200 1530 3070 3710
2020-12-04 07:30 3.81 1010 4110 (1985) 211 (1971) 1010 228 257 295 299 652 1200 1530 3070 3710
2020-12-04 06:30 3.81 1010 4110 (1985) 211 (1971) 1010 228 257 295 299 652 1200 1530 3070 3710
2020-12-04 05:30 3.83 1020 4110 (1985) 211 (1971) 1010 228 257 295 299 652 1200 1530 3070 3710
2020-12-04 04:30 3.81 1010 4110 (1985) 211 (1971) 1010 228 257 295 299 652 1200 1530 3070 3710
2020-12-04 03:30 3.81 1010 4110 (1985) 211 (1971) 1010 228 257 295 299 652 1200 1530 3070 3710
2020-12-04 02:30 3.82 1010 4110 (1985) 211 (1971) 1010 228 257 295 299 652 1200 1530 3070 3710
2020-12-04 01:30 3.82 1010 4110 (1985) 211 (1971) 1010 228 257 295 299 652 1200 1530 3070 3710
2020-12-04 00:30 3.83 1020 4110 (1985) 211 (1971) 1010 228 257 295 299 652 1200 1530 3070 3710
2020-12-03 23:30 3.82 1010 22000 (1983) 217 (1966) 1330 229 278 298 305 643 1200 1690 3230 3780
2020-12-03 22:30 3.82 1010 22000 (1983) 217 (1966) 1330 229 278 298 305 643 1200 1690 3230 3780
2020-12-03 21:30 3.82 1010 22000 (1983) 217 (1966) 1330 229 278 298 305 643 1200 1690 3230 3780
2020-12-03 20:30 3.83 1020 22000 (1983) 217 (1966) 1330 229 278 298 305 643 1200 1690 3230 3780
2020-12-03 19:30 3.84 1030 22000 (1983) 217 (1966) 1330 229 278 298 305 643 1200 1690 3230 3780
2020-12-03 18:30 3.82 1010 22000 (1983) 217 (1966) 1330 229 278 298 305 643 1200 1690 3230 3780
2020-12-03 17:30 3.83 1020 22000 (1983) 217 (1966) 1330 229 278 298 305 643 1200 1690 3230 3780
2020-12-03 16:30 3.84 1030 22000 (1983) 217 (1966) 1330 229 278 298 305 643 1200 1690 3230 3780
2020-12-03 15:30 3.85 1030 22000 (1983) 217 (1966) 1330 229 278 298 305 643 1200 1690 3230 3780
2020-12-03 14:30 3.84 1030 22000 (1983) 217 (1966) 1330 229 278 298 305 643 1200 1690 3230 3780
2020-12-03 13:30 3.85 1030 22000 (1983) 217 (1966) 1330 229 278 298 305 643 1200 1690 3230 3780
2020-12-03 12:30 3.85 1030 22000 (1983) 217 (1966) 1330 229 278 298 305 643 1200 1690 3230 3780
2020-12-03 11:30 3.85 1030 22000 (1983) 217 (1966) 1330 229 278 298 305 643 1200 1690 3230 3780
2020-12-03 10:30 3.85 1030 22000 (1983) 217 (1966) 1330 229 278 298 305 643 1200 1690 3230 3780
2020-12-03 09:30 3.85 1030 22000 (1983) 217 (1966) 1330 229 278 298 305 643 1200 1690 3230 3780
2020-12-03 08:30 3.86 1040 22000 (1983) 217 (1966) 1330 229 278 298 305 643 1200 1690 3230 3780
2020-12-03 07:30 3.88 1050 22000 (1983) 217 (1966) 1330 229 278 298 305 643 1200 1690 3230 3780
2020-12-03 06:30 3.85 1030 22000 (1983) 217 (1966) 1330 229 278 298 305 643 1200 1690 3230 3780
2020-12-03 05:30 3.88 1050 22000 (1983) 217 (1966) 1330 229 278 298 305 643 1200 1690 3230 3780
2020-12-03 04:30 3.88 1050 22000 (1983) 217 (1966) 1330 229 278 298 305 643 1200 1690 3230 3780
2020-12-03 03:30 3.89 1050 22000 (1983) 217 (1966) 1330 229 278 298 305 643 1200 1690 3230 3780
2020-12-03 02:30 3.90 1060 22000 (1983) 217 (1966) 1330 229 278 298 305 643 1200 1690 3230 3780
2020-12-03 01:30 3.90 1060 22000 (1983) 217 (1966) 1330 229 278 298 305 643 1200 1690 3230 3780
2020-12-03 00:30 3.90 1060 22000 (1983) 217 (1966) 1330 229 278 298 305 643 1200 1690 3230 3780
2020-12-02 23:30 3.92 1070 3310 (1985) 218 (1966) 983 229 260 300 319 618 1300 1540 2330 3040
2020-12-02 22:30 3.92 1070 3310 (1985) 218 (1966) 983 229 260 300 319 618 1300 1540 2330 3040
2020-12-02 21:30 3.95 1090 3310 (1985) 218 (1966) 983 229 260 300 319 618 1300 1540 2330 3040
2020-12-02 20:30 3.94 1080 3310 (1985) 218 (1966) 983 229 260 300 319 618 1300 1540 2330 3040
2020-12-02 19:30 3.97 1100 3310 (1985) 218 (1966) 983 229 260 300 319 618 1300 1540 2330 3040
2020-12-02 18:30 3.99 1110 3310 (1985) 218 (1966) 983 229 260 300 319 618 1300 1540 2330 3040
2020-12-02 17:30 4.01 1130 3310 (1985) 218 (1966) 983 229 260 300 319 618 1300 1540 2330 3040
2020-12-02 16:30 4.05 1150 3310 (1985) 218 (1966) 983 229 260 300 319 618 1300 1540 2330 3040
2020-12-02 15:30 4.10 1180 3310 (1985) 218 (1966) 983 229 260 300 319 618 1300 1540 2330 3040
2020-12-02 14:30 4.17 1220 3310 (1985) 218 (1966) 983 229 260 300 319 618 1300 1540 2330 3040
2020-12-02 13:30 4.28 1290 3310 (1985) 218 (1966) 983 229 260 300 319 618 1300 1540 2330 3040
2020-12-02 12:30 4.39 1360 3310 (1985) 218 (1966) 983 229 260 300 319 618 1300 1540 2330 3040
2020-12-02 11:30 4.57 1480 3310 (1985) 218 (1966) 983 229 260 300 319 618 1300 1540 2330 3040
2020-12-02 10:30 4.72 1580 3310 (1985) 218 (1966) 983 229 260 300 319 618 1300 1540 2330 3040
2020-12-02 09:30 4.81 1640 3310 (1985) 218 (1966) 983 229 260 300 319 618 1300 1540 2330 3040
2020-12-02 08:30 4.84 1660 3310 (1985) 218 (1966) 983 229 260 300 319 618 1300 1540 2330 3040
2020-12-02 07:30 4.85 1670 3310 (1985) 218 (1966) 983 229 260 300 319 618 1300 1540 2330 3040
2020-12-02 06:30 4.84 1660 3310 (1985) 218 (1966) 983 229 260 300 319 618 1300 1540 2330 3040
2020-12-02 05:30 4.87 1680 3310 (1985) 218 (1966) 983 229 260 300 319 618 1300 1540 2330 3040
2020-12-02 04:30 4.85 1670 3310 (1985) 218 (1966) 983 229 260 300 319 618 1300 1540 2330 3040
2020-12-02 03:30 4.86 1680 3310 (1985) 218 (1966) 983 229 260 300 319 618 1300 1540 2330 3040
2020-12-02 02:30 4.87 1680 3310 (1985) 218 (1966) 983 229 260 300 319 618 1300 1540 2330 3040
2020-12-02 01:30 4.88 1690 3310 (1985) 218 (1966) 983 229 260 300 319 618 1300 1540 2330 3040
2020-12-02 00:30 4.89 1700 3310 (1985) 218 (1966) 983 229 260 300 319 618 1300 1540 2330 3040
2020-12-01 23:30 4.90 1700 3460 (1973) 218 (1965) 969 226 257 298 335 566 1440 1570 2110 3130
2020-12-01 22:30 4.91 1710 3460 (1973) 218 (1965) 969 226 257 298 335 566 1440 1570 2110 3130
2020-12-01 21:30 4.92 1720 3460 (1973) 218 (1965) 969 226 257 298 335 566 1440 1570 2110 3130
2020-12-01 20:30 4.95 1740 3460 (1973) 218 (1965) 969 226 257 298 335 566 1440 1570 2110 3130
2020-12-01 19:30 4.96 1750 3460 (1973) 218 (1965) 969 226 257 298 335 566 1440 1570 2110 3130
2020-12-01 18:30 4.98 1760 3460 (1973) 218 (1965) 969 226 257 298 335 566 1440 1570 2110 3130
2020-12-01 17:30 5.02 1790 3460 (1973) 218 (1965) 969 226 257 298 335 566 1440 1570 2110 3130
2020-12-01 16:30 5.08 1830 3460 (1973) 218 (1965) 969 226 257 298 335 566 1440 1570 2110 3130
2020-12-01 15:30 5.15 1880 3460 (1973) 218 (1965) 969 226 257 298 335 566 1440 1570 2110 3130
2020-12-01 14:30 5.26 1960 3460 (1973) 218 (1965) 969 226 257 298 335 566 1440 1570 2110 3130
2020-12-01 13:30 5.42 2080 3460 (1973) 218 (1965) 969 226 257 298 335 566 1440 1570 2110 3130
2020-12-01 12:30 5.64 2250 3460 (1973) 218 (1965) 969 226 257 298 335 566 1440 1570 2110 3130
2020-12-01 11:30 5.87 2440 3460 (1973) 218 (1965) 969 226 257 298 335 566 1440 1570 2110 3130
2020-12-01 10:30 6.07 2600 3460 (1973) 218 (1965) 969 226 257 298 335 566 1440 1570 2110 3130
2020-12-01 09:30 6.15 2670 3460 (1973) 218 (1965) 969 226 257 298 335 566 1440 1570 2110 3130
2020-12-01 08:30 6.18 2690 3460 (1973) 218 (1965) 969 226 257 298 335 566 1440 1570 2110 3130
2020-12-01 07:30 6.18 2690 3460 (1973) 218 (1965) 969 226 257 298 335 566 1440 1570 2110 3130
2020-12-01 06:30 6.21 2720 3460 (1973) 218 (1965) 969 226 257 298 335 566 1440 1570 2110 3130
2020-12-01 05:30 6.20 2710 3460 (1973) 218 (1965) 969 226 257 298 335 566 1440 1570 2110 3130
2020-12-01 04:30 6.20 2710 3460 (1973) 218 (1965) 969 226 257 298 335 566 1440 1570 2110 3130
2020-12-01 03:30 6.22 2730 3460 (1973) 218 (1965) 969 226 257 298 335 566 1440 1570 2110 3130
2020-12-01 02:30 6.22 2730 3460 (1973) 218 (1965) 969 226 257 298 335 566 1440 1570 2110 3130
2020-12-01 01:30 6.22 2730 3460 (1973) 218 (1965) 969 226 257 298 335 566 1440 1570 2110 3130
2020-12-01 00:30 6.23 2730 3460 (1973) 218 (1965) 969 226 257 298 335 566 1440 1570 2110 3130
2020-11-30 23:30 6.22 2730 3550 (1973) 215 (1955) 929 220 259 292 314 581 1280 1510 1990 3050
2020-11-30 22:30 6.24 2740 3550 (1973) 215 (1955) 929 220 259 292 314 581 1280 1510 1990 3050
2020-11-30 21:30 6.26 2760 3550 (1973) 215 (1955) 929 220 259 292 314 581 1280 1510 1990 3050
2020-11-30 20:30 6.26 2760 3550 (1973) 215 (1955) 929 220 259 292 314 581 1280 1510 1990 3050
2020-11-30 19:30 6.28 2780 3550 (1973) 215 (1955) 929 220 259 292 314 581 1280 1510 1990 3050
2020-11-30 18:30 6.30 2790 3550 (1973) 215 (1955) 929 220 259 292 314 581 1280 1510 1990 3050
2020-11-30 17:30 6.31 2800 3550 (1973) 215 (1955) 929 220 259 292 314 581 1280 1510 1990 3050
2020-11-30 16:30 6.34 2830 3550 (1973) 215 (1955) 929 220 259 292 314 581 1280 1510 1990 3050
2020-11-30 15:30 6.39 2870 3550 (1973) 215 (1955) 929 220 259 292 314 581 1280 1510 1990 3050
2020-11-30 14:30 6.46 2930 3550 (1973) 215 (1955) 929 220 259 292 314 581 1280 1510 1990 3050
2020-11-30 13:30 6.55 3010 3550 (1973) 215 (1955) 929 220 259 292 314 581 1280 1510 1990 3050
2020-11-30 12:30 6.66 3110 3550 (1973) 215 (1955) 929 220 259 292 314 581 1280 1510 1990 3050
2020-11-30 11:30 6.79 3220 3550 (1973) 215 (1955) 929 220 259 292 314 581 1280 1510 1990 3050
2020-11-30 10:30 6.87 3300 3550 (1973) 215 (1955) 929 220 259 292 314 581 1280 1510 1990 3050
2020-11-30 09:30 6.91 3330 3550 (1973) 215 (1955) 929 220 259 292 314 581 1280 1510 1990 3050
2020-11-30 08:30 6.94 3360 3550 (1973) 215 (1955) 929 220 259 292 314 581 1280 1510 1990 3050
2020-11-30 07:30 6.94 3360 3550 (1973) 215 (1955) 929 220 259 292 314 581 1280 1510 1990 3050
2020-11-30 06:30 6.93 3350 3550 (1973) 215 (1955) 929 220 259 292 314 581 1280 1510 1990 3050
2020-11-30 05:30 6.96 3380 3550 (1973) 215 (1955) 929 220 259 292 314 581 1280 1510 1990 3050
2020-11-30 04:30 6.95 3370 3550 (1973) 215 (1955) 929 220 259 292 314 581 1280 1510 1990 3050
2020-11-30 03:30 6.97 3390 3550 (1973) 215 (1955) 929 220 259 292 314 581 1280 1510 1990 3050
2020-11-30 02:30 6.96 3380 3550 (1973) 215 (1955) 929 220 259 292 314 581 1280 1510 1990 3050
2020-11-30 01:30 6.97 3390 3550 (1973) 215 (1955) 929 220 259 292 314 581 1280 1510 1990 3050
2020-11-30 00:30 6.98 3400 3550 (1973) 215 (1955) 929 220 259 292 314 581 1280 1510 1990 3050
2020-11-29 23:30 6.99 3410 3450 (1973) 207 (1955) 900 244 262 296 324 577 1130 1190 2300 3270
2020-11-29 22:30 6.99 3410 3450 (1973) 207 (1955) 900 244 262 296 324 577 1130 1190 2300 3270
2020-11-29 21:30 6.99 3410 3450 (1973) 207 (1955) 900 244 262 296 324 577 1130 1190 2300 3270
2020-11-29 20:30 7.00 3410 3450 (1973) 207 (1955) 900 244 262 296 324 577 1130 1190 2300 3270
2020-11-29 19:30 7.00 3410 3450 (1973) 207 (1955) 900 244 262 296 324 577 1130 1190 2300 3270
2020-11-29 18:30 7.01 3420 3450 (1973) 207 (1955) 900 244 262 296 324 577 1130 1190 2300 3270
2020-11-29 17:30 7.01 3420 3450 (1973) 207 (1955) 900 244 262 296 324 577 1130 1190 2300 3270
2020-11-29 16:30 7.02 3430 3450 (1973) 207 (1955) 900 244 262 296 324 577 1130 1190 2300 3270
2020-11-29 15:30 7.03 3440 3450 (1973) 207 (1955) 900 244 262 296 324 577 1130 1190 2300 3270
2020-11-29 14:30 7.01 3420 3450 (1973) 207 (1955) 900 244 262 296 324 577 1130 1190 2300 3270
2020-11-29 13:30 7.04 3450 3450 (1973) 207 (1955) 900 244 262 296 324 577 1130 1190 2300 3270
2020-11-29 12:30 7.04 3450 3450 (1973) 207 (1955) 900 244 262 296 324 577 1130 1190 2300 3270
2020-11-29 11:30 7.04 3450 3450 (1973) 207 (1955) 900 244 262 296 324 577 1130 1190 2300 3270
2020-11-29 10:30 7.03 3440 3450 (1973) 207 (1955) 900 244 262 296 324 577 1130 1190 2300 3270
2020-11-29 09:30 7.05 3460 3450 (1973) 207 (1955) 900 244 262 296 324 577 1130 1190 2300 3270
2020-11-29 08:30 7.05 3460 3450 (1973) 207 (1955) 900 244 262 296 324 577 1130 1190 2300 3270
2020-11-29 07:30 7.05 3460 3450 (1973) 207 (1955) 900 244 262 296 324 577 1130 1190 2300 3270
2020-11-29 06:30 7.06 3470 3450 (1973) 207 (1955) 900 244 262 296 324 577 1130 1190 2300 3270
2020-11-29 05:30 7.07 3480 3450 (1973) 207 (1955) 900 244 262 296 324 577 1130 1190 2300 3270
2020-11-29 04:30 7.07 3480 3450 (1973) 207 (1955) 900 244 262 296 324 577 1130 1190 2300 3270
2020-11-29 03:30 7.08 3490 3450 (1973) 207 (1955) 900 244 262 296 324 577 1130 1190 2300 3270
2020-11-29 02:30 7.06 3470 3450 (1973) 207 (1955) 900 244 262 296 324 577 1130 1190 2300 3270
2020-11-29 01:30 7.07 3480 3450 (1973) 207 (1955) 900 244 262 296 324 577 1130 1190 2300 3270
2020-11-29 00:30 7.08 3490 3450 (1973) 207 (1955) 900 244 262 296 324 577 1130 1190 2300 3270
2020-11-28 23:30 7.09 3500 3500 (2021) 211 (1955) 901 261 275 302 331 500 1070 1330 2720 3360
2020-11-28 22:30 7.10 3510 3500 (2021) 211 (1955) 901 261 275 302 331 500 1070 1330 2720 3360
2020-11-28 21:30 7.09 3500 3500 (2021) 211 (1955) 901 261 275 302 331 500 1070 1330 2720 3360
2020-11-28 20:30 7.10 3510 3500 (2021) 211 (1955) 901 261 275 302 331 500 1070 1330 2720 3360
2020-11-28 19:30 7.10 3510 3500 (2021) 211 (1955) 901 261 275 302 331 500 1070 1330 2720 3360
2020-11-28 18:30 7.10 3510 3500 (2021) 211 (1955) 901 261 275 302 331 500 1070 1330 2720 3360
2020-11-28 17:30 7.09 3500 3500 (2021) 211 (1955) 901 261 275 302 331 500 1070 1330 2720 3360
2020-11-28 16:30 7.10 3510 3500 (2021) 211 (1955) 901 261 275 302 331 500 1070 1330 2720 3360
2020-11-28 15:30 7.12 3530 3500 (2021) 211 (1955) 901 261 275 302 331 500 1070 1330 2720 3360
2020-11-28 14:30 7.11 3520 3500 (2021) 211 (1955) 901 261 275 302 331 500 1070 1330 2720 3360
2020-11-28 13:30 7.14 3540 3500 (2021) 211 (1955) 901 261 275 302 331 500 1070 1330 2720 3360
2020-11-28 12:30 7.14 3540 3500 (2021) 211 (1955) 901 261 275 302 331 500 1070 1330 2720 3360
2020-11-28 11:30 7.12 3530 3500 (2021) 211 (1955) 901 261 275 302 331 500 1070 1330 2720 3360
2020-11-28 10:30 7.13 3540 3500 (2021) 211 (1955) 901 261 275 302 331 500 1070 1330 2720 3360
2020-11-28 09:30 7.13 3540 3500 (2021) 211 (1955) 901 261 275 302 331 500 1070 1330 2720 3360
2020-11-28 08:30 7.16 3560 3500 (2021) 211 (1955) 901 261 275 302 331 500 1070 1330 2720 3360
2020-11-28 07:30 7.15 3550 3500 (2021) 211 (1955) 901 261 275 302 331 500 1070 1330 2720 3360
2020-11-28 06:30 7.16 3560 3500 (2021) 211 (1955) 901 261 275 302 331 500 1070 1330 2720 3360
2020-11-28 05:30 7.16 3560 3500 (2021) 211 (1955) 901 261 275 302 331 500 1070 1330 2720 3360
2020-11-28 04:30 7.18 3580 3500 (2021) 211 (1955) 901 261 275 302 331 500 1070 1330 2720 3360
2020-11-28 03:30 7.15 3550 3500 (2021) 211 (1955) 901 261 275 302 331 500 1070 1330 2720 3360
2020-11-28 02:30 7.18 3580 3500 (2021) 211 (1955) 901 261 275 302 331 500 1070 1330 2720 3360
2020-11-28 01:30 7.16 3560 3500 (2021) 211 (1955) 901 261 275 302 331 500 1070 1330 2720 3360
2020-11-28 00:30 7.18 3580 3500 (2021) 211 (1955) 901 261 275 302 331 500 1070 1330 2720 3360
2020-11-27 23:30 7.17 3570 3580 (2021) 219 (1955) 961 234 258 303 331 470 1200 1460 3310 3470
2020-11-27 22:30 7.18 3580 3580 (2021) 219 (1955) 961 234 258 303 331 470 1200 1460 3310 3470
2020-11-27 21:30 7.18 3580 3580 (2021) 219 (1955) 961 234 258 303 331 470 1200 1460 3310 3470
2020-11-27 20:30 7.18 3580 3580 (2021) 219 (1955) 961 234 258 303 331 470 1200 1460 3310 3470
2020-11-27 19:30 7.19 3590 3580 (2021) 219 (1955) 961 234 258 303 331 470 1200 1460 3310 3470
2020-11-27 18:30 7.20 3600 3580 (2021) 219 (1955) 961 234 258 303 331 470 1200 1460 3310 3470
2020-11-27 17:30 7.21 3610 3580 (2021) 219 (1955) 961 234 258 303 331 470 1200 1460 3310 3470
2020-11-27 16:30 7.20 3600 3580 (2021) 219 (1955) 961 234 258 303 331 470 1200 1460 3310 3470
2020-11-27 15:30 7.22 3620 3580 (2021) 219 (1955) 961 234 258 303 331 470 1200 1460 3310 3470
2020-11-27 14:30 7.20 3600 3580 (2021) 219 (1955) 961 234 258 303 331 470 1200 1460 3310 3470
2020-11-27 13:30 7.21 3610 3580 (2021) 219 (1955) 961 234 258 303 331 470 1200 1460 3310 3470
2020-11-27 12:30 7.21 3610 3580 (2021) 219 (1955) 961 234 258 303 331 470 1200 1460 3310 3470
2020-11-27 11:30 7.23 3630 3580 (2021) 219 (1955) 961 234 258 303 331 470 1200 1460 3310 3470
2020-11-27 10:30 7.22 3620 3580 (2021) 219 (1955) 961 234 258 303 331 470 1200 1460 3310 3470
2020-11-27 09:30 7.24 3640 3580 (2021) 219 (1955) 961 234 258 303 331 470 1200 1460 3310 3470
2020-11-27 08:30 7.24 3640 3580 (2021) 219 (1955) 961 234 258 303 331 470 1200 1460 3310 3470
2020-11-27 07:30 7.26 3660 3580 (2021) 219 (1955) 961 234 258 303 331 470 1200 1460 3310 3470
2020-11-27 06:30 7.24 3640 3580 (2021) 219 (1955) 961 234 258 303 331 470 1200 1460 3310 3470
2020-11-27 05:30 7.25 3650 3580 (2021) 219 (1955) 961 234 258 303 331 470 1200 1460 3310 3470
2020-11-27 04:30 7.25 3650 3580 (2021) 219 (1955) 961 234 258 303 331 470 1200 1460 3310 3470
2020-11-27 03:30 7.25 3650 3580 (2021) 219 (1955) 961 234 258 303 331 470 1200 1460 3310 3470
2020-11-27 02:30 7.24 3640 3580 (2021) 219 (1955) 961 234 258 303 331 470 1200 1460 3310 3470
2020-11-27 01:30 7.25 3650 3580 (2021) 219 (1955) 961 234 258 303 331 470 1200 1460 3310 3470
2020-11-27 00:30 7.25 3650 3580 (2021) 219 (1955) 961 234 258 303 331 470 1200 1460 3310 3470
2020-11-26 23:30 7.26 3660 3630 (2021) 209 (1965) 938 266 275 303 329 478 1240 1460 2120 3560
2020-11-26 22:30 7.25 3650 3630 (2021) 209 (1965) 938 266 275 303 329 478 1240 1460 2120 3560
2020-11-26 21:30 7.27 3670 3630 (2021) 209 (1965) 938 266 275 303 329 478 1240 1460 2120 3560
2020-11-26 20:30 7.28 3680 3630 (2021) 209 (1965) 938 266 275 303 329 478 1240 1460 2120 3560
2020-11-26 19:30 7.26 3660 3630 (2021) 209 (1965) 938 266 275 303 329 478 1240 1460 2120 3560
2020-11-26 18:30 7.26 3660 3630 (2021) 209 (1965) 938 266 275 303 329 478 1240 1460 2120 3560
2020-11-26 17:30 7.26 3660 3630 (2021) 209 (1965) 938 266 275 303 329 478 1240 1460 2120 3560
2020-11-26 16:30 7.28 3680 3630 (2021) 209 (1965) 938 266 275 303 329 478 1240 1460 2120 3560
2020-11-26 15:30 7.27 3670 3630 (2021) 209 (1965) 938 266 275 303 329 478 1240 1460 2120 3560
2020-11-26 14:30 7.28 3680 3630 (2021) 209 (1965) 938 266 275 303 329 478 1240 1460 2120 3560
2020-11-26 13:30 7.27 3670 3630 (2021) 209 (1965) 938 266 275 303 329 478 1240 1460 2120 3560
2020-11-26 12:30 7.28 3680 3630 (2021) 209 (1965) 938 266 275 303 329 478 1240 1460 2120 3560
2020-11-26 11:30 7.29 3690 3630 (2021) 209 (1965) 938 266 275 303 329 478 1240 1460 2120 3560
2020-11-26 10:30 7.27 3670 3630 (2021) 209 (1965) 938 266 275 303 329 478 1240 1460 2120 3560
2020-11-26 09:30 7.29 3690 3630 (2021) 209 (1965) 938 266 275 303 329 478 1240 1460 2120 3560
2020-11-26 08:30 7.30 3700 3630 (2021) 209 (1965) 938 266 275 303 329 478 1240 1460 2120 3560
2020-11-26 07:30 7.30 3700 3630 (2021) 209 (1965) 938 266 275 303 329 478 1240 1460 2120 3560
2020-11-26 06:30 7.28 3680 3630 (2021) 209 (1965) 938 266 275 303 329 478 1240 1460 2120 3560
2020-11-26 05:30 7.31 3710 3630 (2021) 209 (1965) 938 266 275 303 329 478 1240 1460 2120 3560
2020-11-26 04:30 7.30 3700 3630 (2021) 209 (1965) 938 266 275 303 329 478 1240 1460 2120 3560
2020-11-26 03:30 7.28 3680 3630 (2021) 209 (1965) 938 266 275 303 329 478 1240 1460 2120 3560
2020-11-26 02:30 7.30 3700 3630 (2021) 209 (1965) 938 266 275 303 329 478 1240 1460 2120 3560
2020-11-26 01:30 7.29 3690 3630 (2021) 209 (1965) 938 266 275 303 329 478 1240 1460 2120 3560
2020-11-26 00:30 7.26 3660 3630 (2021) 209 (1965) 938 266 275 303 329 478 1240 1460 2120 3560
2020-11-25 23:30 7.23 3630 3650 (2016) 210 (1965) 929 262 275 306 328 512 1200 1620 2400 3410
2020-11-25 22:30 7.22 3620 3650 (2016) 210 (1965) 929 262 275 306 328 512 1200 1620 2400 3410
2020-11-25 21:30 7.18 3580 3650 (2016) 210 (1965) 929 262 275 306 328 512 1200 1620 2400 3410
2020-11-25 20:30 7.10 3510 3650 (2016) 210 (1965) 929 262 275 306 328 512 1200 1620 2400 3410
2020-11-25 19:30 7.04 3450 3650 (2016) 210 (1965) 929 262 275 306 328 512 1200 1620 2400 3410
2020-11-25 18:30 6.88 3300 3650 (2016) 210 (1965) 929 262 275 306 328 512 1200 1620 2400 3410
2020-11-25 17:30 6.73 3170 3650 (2016) 210 (1965) 929 262 275 306 328 512 1200 1620 2400 3410
2020-11-25 16:30 6.52 2980 3650 (2016) 210 (1965) 929 262 275 306 328 512 1200 1620 2400 3410
2020-11-25 15:30 6.32 2810 3650 (2016) 210 (1965) 929 262 275 306 328 512 1200 1620 2400 3410
2020-11-25 14:30 6.14 2660 3650 (2016) 210 (1965) 929 262 275 306 328 512 1200 1620 2400 3410
2020-11-25 13:30 6.01 2550 3650 (2016) 210 (1965) 929 262 275 306 328 512 1200 1620 2400 3410
2020-11-25 12:30 5.86 2430 3650 (2016) 210 (1965) 929 262 275 306 328 512 1200 1620 2400 3410
2020-11-25 11:30 5.74 2330 3650 (2016) 210 (1965) 929 262 275 306 328 512 1200 1620 2400 3410
2020-11-25 10:30 5.80 2380 3650 (2016) 210 (1965) 929 262 275 306 328 512 1200 1620 2400 3410
2020-11-25 09:30 6.07 2600 3650 (2016) 210 (1965) 929 262 275 306 328 512 1200 1620 2400 3410
2020-11-25 08:30 6.43 2910 3650 (2016) 210 (1965) 929 262 275 306 328 512 1200 1620 2400 3410
2020-11-25 07:30 6.77 3210 3650 (2016) 210 (1965) 929 262 275 306 328 512 1200 1620 2400 3410
2020-11-25 06:30 6.94 3360 3650 (2016) 210 (1965) 929 262 275 306 328 512 1200 1620 2400 3410
2020-11-25 05:30 7.00 3410 3650 (2016) 210 (1965) 929 262 275 306 328 512 1200 1620 2400 3410
2020-11-25 04:30 6.95 3370 3650 (2016) 210 (1965) 929 262 275 306 328 512 1200 1620 2400 3410
2020-11-25 03:30 6.90 3320 3650 (2016) 210 (1965) 929 262 275 306 328 512 1200 1620 2400 3410
2020-11-25 02:30 6.87 3300 3650 (2016) 210 (1965) 929 262 275 306 328 512 1200 1620 2400 3410
2020-11-25 01:30 6.85 3280 3650 (2016) 210 (1965) 929 262 275 306 328 512 1200 1620 2400 3410
2020-11-25 00:30 6.82 3250 3650 (2016) 210 (1965) 929 262 275 306 328 512 1200 1620 2400 3410
2020-11-24 23:30 6.83 3260 3650 (2016) 210 (1965) 917 264 287 332 338 467 1040 1580 3140 3330
2020-11-24 22:30 6.79 3220 3650 (2016) 210 (1965) 917 264 287 332 338 467 1040 1580 3140 3330
2020-11-24 21:30 6.78 3210 3650 (2016) 210 (1965) 917 264 287 332 338 467 1040 1580 3140 3330
2020-11-24 20:30 6.78 3210 3650 (2016) 210 (1965) 917 264 287 332 338 467 1040 1580 3140 3330
2020-11-24 19:30 6.74 3180 3650 (2016) 210 (1965) 917 264 287 332 338 467 1040 1580 3140 3330
2020-11-24 18:30 6.77 3210 3650 (2016) 210 (1965) 917 264 287 332 338 467 1040 1580 3140 3330
2020-11-24 17:30 6.76 3200 3650 (2016) 210 (1965) 917 264 287 332 338 467 1040 1580 3140 3330
2020-11-24 16:30 6.77 3210 3650 (2016) 210 (1965) 917 264 287 332 338 467 1040 1580 3140 3330
2020-11-24 15:30 6.74 3180 3650 (2016) 210 (1965) 917 264 287 332 338 467 1040 1580 3140 3330
2020-11-24 14:30 6.76 3200 3650 (2016) 210 (1965) 917 264 287 332 338 467 1040 1580 3140 3330
2020-11-24 13:30 6.76 3200 3650 (2016) 210 (1965) 917 264 287 332 338 467 1040 1580 3140 3330
2020-11-24 12:30 6.76 3200 3650 (2016) 210 (1965) 917 264 287 332 338 467 1040 1580 3140 3330
2020-11-24 11:30 6.76 3200 3650 (2016) 210 (1965) 917 264 287 332 338 467 1040 1580 3140 3330
2020-11-24 10:30 6.76 3200 3650 (2016) 210 (1965) 917 264 287 332 338 467 1040 1580 3140 3330
2020-11-24 09:30 6.75 3190 3650 (2016) 210 (1965) 917 264 287 332 338 467 1040 1580 3140 3330
2020-11-24 08:30 6.76 3200 3650 (2016) 210 (1965) 917 264 287 332 338 467 1040 1580 3140 3330
2020-11-24 07:30 6.74 3180 3650 (2016) 210 (1965) 917 264 287 332 338 467 1040 1580 3140 3330
2020-11-24 06:30 6.73 3170 3650 (2016) 210 (1965) 917 264 287 332 338 467 1040 1580 3140 3330
2020-11-24 05:30 6.72 3160 3650 (2016) 210 (1965) 917 264 287 332 338 467 1040 1580 3140 3330
2020-11-24 04:30 6.72 3160 3650 (2016) 210 (1965) 917 264 287 332 338 467 1040 1580 3140 3330
2020-11-24 03:30 6.68 3120 3650 (2016) 210 (1965) 917 264 287 332 338 467 1040 1580 3140 3330
2020-11-24 02:30 6.65 3100 3650 (2016) 210 (1965) 917 264 287 332 338 467 1040 1580 3140 3330
2020-11-24 01:30 6.63 3080 3650 (2016) 210 (1965) 917 264 287 332 338 467 1040 1580 3140 3330
2020-11-24 00:30 6.59 3050 3650 (2016) 210 (1965) 917 264 287 332 338 467 1040 1580 3140 3330
2020-11-23 23:30 6.52 2980 3550 (2016) 209 (1965) 860 264 288 325 334 423 861 1100 3000 3340
2020-11-23 22:30 6.46 2930 3550 (2016) 209 (1965) 860 264 288 325 334 423 861 1100 3000 3340
2020-11-23 21:30 6.31 2800 3550 (2016) 209 (1965) 860 264 288 325 334 423 861 1100 3000 3340
2020-11-23 20:30 6.15 2670 3550 (2016) 209 (1965) 860 264 288 325 334 423 861 1100 3000 3340
2020-11-23 19:30 5.91 2470 3550 (2016) 209 (1965) 860 264 288 325 334 423 861 1100 3000 3340
2020-11-23 18:30 5.68 2290 3550 (2016) 209 (1965) 860 264 288 325 334 423 861 1100 3000 3340
2020-11-23 17:30 5.46 2110 3550 (2016) 209 (1965) 860 264 288 325 334 423 861 1100 3000 3340
2020-11-23 16:30 5.32 2010 3550 (2016) 209 (1965) 860 264 288 325 334 423 861 1100 3000 3340
2020-11-23 15:30 5.18 1900 3550 (2016) 209 (1965) 860 264 288 325 334 423 861 1100 3000 3340
2020-11-23 14:30 5.03 1800 3550 (2016) 209 (1965) 860 264 288 325 334 423 861 1100 3000 3340
2020-11-23 13:30 4.79 1630 3550 (2016) 209 (1965) 860 264 288 325 334 423 861 1100 3000 3340
2020-11-23 12:30 4.49 1430 3550 (2016) 209 (1965) 860 264 288 325 334 423 861 1100 3000 3340
2020-11-23 11:30 4.12 1190 3550 (2016) 209 (1965) 860 264 288 325 334 423 861 1100 3000 3340
2020-11-23 10:30 3.85 1030 3550 (2016) 209 (1965) 860 264 288 325 334 423 861 1100 3000 3340
2020-11-23 09:30 3.76 980 3550 (2016) 209 (1965) 860 264 288 325 334 423 861 1100 3000 3340
2020-11-23 08:30 3.76 980 3550 (2016) 209 (1965) 860 264 288 325 334 423 861 1100 3000 3340
2020-11-23 07:30 3.76 980 3550 (2016) 209 (1965) 860 264 288 325 334 423 861 1100 3000 3340
2020-11-23 06:30 3.76 980 3550 (2016) 209 (1965) 860 264 288 325 334 423 861 1100 3000 3340
2020-11-23 05:30 3.75 974 3550 (2016) 209 (1965) 860 264 288 325 334 423 861 1100 3000 3340
2020-11-23 04:30 3.75 974 3550 (2016) 209 (1965) 860 264 288 325 334 423 861 1100 3000 3340
2020-11-23 03:30 3.74 969 3550 (2016) 209 (1965) 860 264 288 325 334 423 861 1100 3000 3340
2020-11-23 02:30 3.74 969 3550 (2016) 209 (1965) 860 264 288 325 334 423 861 1100 3000 3340
2020-11-23 01:30 3.75 974 3550 (2016) 209 (1965) 860 264 288 325 334 423 861 1100 3000 3340
2020-11-23 00:30 3.73 963 3550 (2016) 209 (1965) 860 264 288 325 334 423 861 1100 3000 3340
2020-11-22 23:30 3.73 963 3530 (2016) 200 (1957) 847 209 262 308 325 449 925 979 3170 3310
2020-11-22 22:30 3.73 963 3530 (2016) 200 (1957) 847 209 262 308 325 449 925 979 3170 3310
2020-11-22 21:30 3.72 957 3530 (2016) 200 (1957) 847 209 262 308 325 449 925 979 3170 3310
2020-11-22 20:30 3.71 952 3530 (2016) 200 (1957) 847 209 262 308 325 449 925 979 3170 3310
2020-11-22 19:30 3.72 957 3530 (2016) 200 (1957) 847 209 262 308 325 449 925 979 3170 3310
2020-11-22 18:30 3.71 952 3530 (2016) 200 (1957) 847 209 262 308 325 449 925 979 3170 3310
2020-11-22 17:30 3.70 946 3530 (2016) 200 (1957) 847 209 262 308 325 449 925 979 3170 3310
2020-11-22 16:30 3.71 952 3530 (2016) 200 (1957) 847 209 262 308 325 449 925 979 3170 3310
2020-11-22 15:30 3.71 952 3530 (2016) 200 (1957) 847 209 262 308 325 449 925 979 3170 3310
2020-11-22 14:30 3.71 952 3530 (2016) 200 (1957) 847 209 262 308 325 449 925 979 3170 3310
2020-11-22 13:30 3.71 952 3530 (2016) 200 (1957) 847 209 262 308 325 449 925 979 3170 3310
2020-11-22 12:30 3.73 963 3530 (2016) 200 (1957) 847 209 262 308 325 449 925 979 3170 3310
2020-11-22 11:30 3.73 963 3530 (2016) 200 (1957) 847 209 262 308 325 449 925 979 3170 3310
2020-11-22 10:30 3.73 963 3530 (2016) 200 (1957) 847 209 262 308 325 449 925 979 3170 3310
2020-11-22 09:30 3.73 963 3530 (2016) 200 (1957) 847 209 262 308 325 449 925 979 3170 3310
2020-11-22 08:30 3.72 957 3530 (2016) 200 (1957) 847 209 262 308 325 449 925 979 3170 3310
2020-11-22 07:30 3.70 946 3530 (2016) 200 (1957) 847 209 262 308 325 449 925 979 3170 3310
2020-11-22 06:30 3.71 952 3530 (2016) 200 (1957) 847 209 262 308 325 449 925 979 3170 3310
2020-11-22 05:30 3.70 946 3530 (2016) 200 (1957) 847 209 262 308 325 449 925 979 3170 3310
2020-11-22 04:30 3.71 952 3530 (2016) 200 (1957) 847 209 262 308 325 449 925 979 3170 3310
2020-11-22 03:30 3.71 952 3530 (2016) 200 (1957) 847 209 262 308 325 449 925 979 3170 3310
2020-11-22 02:30 3.72 957 3530 (2016) 200 (1957) 847 209 262 308 325 449 925 979 3170 3310
2020-11-22 01:30 3.70 946 3530 (2016) 200 (1957) 847 209 262 308 325 449 925 979 3170 3310
2020-11-22 00:30 3.67 930 3530 (2016) 200 (1957) 847 209 262 308 325 449 925 979 3170 3310
2020-11-21 23:30 3.67 930 3560 (1952) 173 (1957) 777 208 227 302 327 422 726 862 2990 3270
2020-11-21 22:30 3.69 941 3560 (1952) 173 (1957) 777 208 227 302 327 422 726 862 2990 3270
2020-11-21 21:30 3.67 930 3560 (1952) 173 (1957) 777 208 227 302 327 422 726 862 2990 3270
2020-11-21 20:30 3.67 930 3560 (1952) 173 (1957) 777 208 227 302 327 422 726 862 2990 3270
2020-11-21 19:30 3.67 930 3560 (1952) 173 (1957) 777 208 227 302 327 422 726 862 2990 3270
2020-11-21 18:30 3.67 930 3560 (1952) 173 (1957) 777 208 227 302 327 422 726 862 2990 3270
2020-11-21 17:30 3.67 930 3560 (1952) 173 (1957) 777 208 227 302 327 422 726 862 2990 3270
2020-11-21 16:30 3.68 935 3560 (1952) 173 (1957) 777 208 227 302 327 422 726 862 2990 3270
2020-11-21 15:30 3.68 935 3560 (1952) 173 (1957) 777 208 227 302 327 422 726 862 2990 3270
2020-11-21 14:30 3.69 941 3560 (1952) 173 (1957) 777 208 227 302 327 422 726 862 2990 3270
2020-11-21 13:30 3.68 935 3560 (1952) 173 (1957) 777 208 227 302 327 422 726 862 2990 3270
2020-11-21 12:30 3.68 935 3560 (1952) 173 (1957) 777 208 227 302 327 422 726 862 2990 3270
2020-11-21 11:30 3.69 941 3560 (1952) 173 (1957) 777 208 227 302 327 422 726 862 2990 3270
2020-11-21 10:30 3.68 935 3560 (1952) 173 (1957) 777 208 227 302 327 422 726 862 2990 3270
2020-11-21 09:30 3.70 946 3560 (1952) 173 (1957) 777 208 227 302 327 422 726 862 2990 3270
2020-11-21 08:30 3.68 935 3560 (1952) 173 (1957) 777 208 227 302 327 422 726 862 2990 3270
2020-11-21 07:30 3.68 935 3560 (1952) 173 (1957) 777 208 227 302 327 422 726 862 2990 3270
2020-11-21 06:30 3.70 946 3560 (1952) 173 (1957) 777 208 227 302 327 422 726 862 2990 3270
2020-11-21 05:30 3.71 952 3560 (1952) 173 (1957) 777 208 227 302 327 422 726 862 2990 3270
2020-11-21 04:30 3.71 952 3560 (1952) 173 (1957) 777 208 227 302 327 422 726 862 2990 3270
2020-11-21 03:30 3.71 952 3560 (1952) 173 (1957) 777 208 227 302 327 422 726 862 2990 3270
2020-11-21 02:30 3.70 946 3560 (1952) 173 (1957) 777 208 227 302 327 422 726 862 2990 3270
2020-11-21 01:30 3.74 969 3560 (1952) 173 (1957) 777 208 227 302 327 422 726 862 2990 3270
2020-11-21 00:30 3.72 957 3560 (1952) 173 (1957) 777 208 227 302 327 422 726 862 2990 3270
2020-11-20 23:30 3.74 969 3630 (1952) 174 (1957) 751 200 231 305 323 404 830 990 1850 3120
2020-11-20 22:30 3.74 969 3630 (1952) 174 (1957) 751 200 231 305 323 404 830 990 1850 3120
2020-11-20 21:30 3.76 980 3630 (1952) 174 (1957) 751 200 231 305 323 404 830 990 1850 3120
2020-11-20 20:30 3.77 986 3630 (1952) 174 (1957) 751 200 231 305 323 404 830 990 1850 3120
2020-11-20 19:30 3.79 997 3630 (1952) 174 (1957) 751 200 231 305 323 404 830 990 1850 3120
2020-11-20 18:30 3.83 1020 3630 (1952) 174 (1957) 751 200 231 305 323 404 830 990 1850 3120
2020-11-20 17:30 3.86 1040 3630 (1952) 174 (1957) 751 200 231 305 323 404 830 990 1850 3120
2020-11-20 16:30 3.91 1070 3630 (1952) 174 (1957) 751 200 231 305 323 404 830 990 1850 3120
2020-11-20 15:30 3.97 1100 3630 (1952) 174 (1957) 751 200 231 305 323 404 830 990 1850 3120
2020-11-20 14:30 4.05 1150 3630 (1952) 174 (1957) 751 200 231 305 323 404 830 990 1850 3120
2020-11-20 13:30 4.16 1220 3630 (1952) 174 (1957) 751 200 231 305 323 404 830 990 1850 3120
2020-11-20 12:30 4.32 1320 3630 (1952) 174 (1957) 751 200 231 305 323 404 830 990 1850 3120
2020-11-20 11:30 4.50 1430 3630 (1952) 174 (1957) 751 200 231 305 323 404 830 990 1850 3120
2020-11-20 10:30 4.67 1550 3630 (1952) 174 (1957) 751 200 231 305 323 404 830 990 1850 3120
2020-11-20 09:30 4.75 1600 3630 (1952) 174 (1957) 751 200 231 305 323 404 830 990 1850 3120
2020-11-20 08:30 4.74 1590 3630 (1952) 174 (1957) 751 200 231 305 323 404 830 990 1850 3120
2020-11-20 07:30 4.73 1590 3630 (1952) 174 (1957) 751 200 231 305 323 404 830 990 1850 3120
2020-11-20 06:30 4.74 1590 3630 (1952) 174 (1957) 751 200 231 305 323 404 830 990 1850 3120
2020-11-20 05:30 4.74 1590 3630 (1952) 174 (1957) 751 200 231 305 323 404 830 990 1850 3120
2020-11-20 04:30 4.74 1590 3630 (1952) 174 (1957) 751 200 231 305 323 404 830 990 1850 3120
2020-11-20 03:30 4.75 1600 3630 (1952) 174 (1957) 751 200 231 305 323 404 830 990 1850 3120
2020-11-20 02:30 4.74 1590 3630 (1952) 174 (1957) 751 200 231 305 323 404 830 990 1850 3120
2020-11-20 01:30 4.75 1600 3630 (1952) 174 (1957) 751 200 231 305 323 404 830 990 1850 3120
2020-11-20 00:30 4.74 1590 3630 (1952) 174 (1957) 751 200 231 305 323 404 830 990 1850 3120
2020-11-19 23:30 4.75 1600 3480 (1952) 174 (1957) 735 200 235 303 320 458 834 993 1860 2410
2020-11-19 22:30 4.77 1610 3480 (1952) 174 (1957) 735 200 235 303 320 458 834 993 1860 2410
2020-11-19 21:30 4.76 1610 3480 (1952) 174 (1957) 735 200 235 303 320 458 834 993 1860 2410
2020-11-19 20:30 4.75 1600 3480 (1952) 174 (1957) 735 200 235 303 320 458 834 993 1860 2410
2020-11-19 19:30 4.77 1610 3480 (1952) 174 (1957) 735 200 235 303 320 458 834 993 1860 2410
2020-11-19 18:30 4.76 1610 3480 (1952) 174 (1957) 735 200 235 303 320 458 834 993 1860 2410
2020-11-19 17:30 4.75 1600 3480 (1952) 174 (1957) 735 200 235 303 320 458 834 993 1860 2410
2020-11-19 16:30 4.76 1610 3480 (1952) 174 (1957) 735 200 235 303 320 458 834 993 1860 2410
2020-11-19 15:30 4.76 1610 3480 (1952) 174 (1957) 735 200 235 303 320 458 834 993 1860 2410
2020-11-19 14:30 4.77 1610 3480 (1952) 174 (1957) 735 200 235 303 320 458 834 993 1860 2410
2020-11-19 13:30 4.77 1610 3480 (1952) 174 (1957) 735 200 235 303 320 458 834 993 1860 2410
2020-11-19 12:30 4.76 1610 3480 (1952) 174 (1957) 735 200 235 303 320 458 834 993 1860 2410
2020-11-19 11:30 4.77 1610 3480 (1952) 174 (1957) 735 200 235 303 320 458 834 993 1860 2410
2020-11-19 10:30 4.76 1610 3480 (1952) 174 (1957) 735 200 235 303 320 458 834 993 1860 2410
2020-11-19 09:30 4.76 1610 3480 (1952) 174 (1957) 735 200 235 303 320 458 834 993 1860 2410
2020-11-19 08:30 4.77 1610 3480 (1952) 174 (1957) 735 200 235 303 320 458 834 993 1860 2410
2020-11-19 07:30 4.76 1610 3480 (1952) 174 (1957) 735 200 235 303 320 458 834 993 1860 2410
2020-11-19 06:30 4.78 1620 3480 (1952) 174 (1957) 735 200 235 303 320 458 834 993 1860 2410
2020-11-19 05:30 4.77 1610 3480 (1952) 174 (1957) 735 200 235 303 320 458 834 993 1860 2410
2020-11-19 04:30 4.76 1610 3480 (1952) 174 (1957) 735 200 235 303 320 458 834 993 1860 2410
2020-11-19 03:30 4.77 1610 3480 (1952) 174 (1957) 735 200 235 303 320 458 834 993 1860 2410
2020-11-19 02:30 4.78 1620 3480 (1952) 174 (1957) 735 200 235 303 320 458 834 993 1860 2410
2020-11-19 01:30 4.76 1610 3480 (1952) 174 (1957) 735 200 235 303 320 458 834 993 1860 2410
2020-11-19 00:30 4.77 1610 3480 (1952) 174 (1957) 735 200 235 303 320 458 834 993 1860 2410
2020-11-18 23:30 4.77 1610 3440 (2010) 174 (1957) 742 206 235 285 317 468 840 995 1770 2390
2020-11-18 22:30 4.77 1610 3440 (2010) 174 (1957) 742 206 235 285 317 468 840 995 1770 2390
2020-11-18 21:30 4.78 1620 3440 (2010) 174 (1957) 742 206 235 285 317 468 840 995 1770 2390
2020-11-18 20:30 4.77 1610 3440 (2010) 174 (1957) 742 206 235 285 317 468 840 995 1770 2390
2020-11-18 19:30 4.76 1610 3440 (2010) 174 (1957) 742 206 235 285 317 468 840 995 1770 2390
2020-11-18 18:30 4.77 1610 3440 (2010) 174 (1957) 742 206 235 285 317 468 840 995 1770 2390
2020-11-18 17:30 4.78 1620 3440 (2010) 174 (1957) 742 206 235 285 317 468 840 995 1770 2390
2020-11-18 16:30 4.78 1620 3440 (2010) 174 (1957) 742 206 235 285 317 468 840 995 1770 2390
2020-11-18 15:30 4.77 1610 3440 (2010) 174 (1957) 742 206 235 285 317 468 840 995 1770 2390
2020-11-18 14:30 4.76 1610 3440 (2010) 174 (1957) 742 206 235 285 317 468 840 995 1770 2390
2020-11-18 13:30 4.78 1620 3440 (2010) 174 (1957) 742 206 235 285 317 468 840 995 1770 2390
2020-11-18 12:30 4.79 1630 3440 (2010) 174 (1957) 742 206 235 285 317 468 840 995 1770 2390
2020-11-18 11:30 4.78 1620 3440 (2010) 174 (1957) 742 206 235 285 317 468 840 995 1770 2390
2020-11-18 10:30 4.78 1620 3440 (2010) 174 (1957) 742 206 235 285 317 468 840 995 1770 2390
2020-11-18 09:30 4.77 1610 3440 (2010) 174 (1957) 742 206 235 285 317 468 840 995 1770 2390
2020-11-18 08:30 4.79 1630 3440 (2010) 174 (1957) 742 206 235 285 317 468 840 995 1770 2390
2020-11-18 07:30 4.78 1620 3440 (2010) 174 (1957) 742 206 235 285 317 468 840 995 1770 2390
2020-11-18 06:30 4.80 1630 3440 (2010) 174 (1957) 742 206 235 285 317 468 840 995 1770 2390
2020-11-18 05:30 4.80 1630 3440 (2010) 174 (1957) 742 206 235 285 317 468 840 995 1770 2390
2020-11-18 04:30 4.78 1620 3440 (2010) 174 (1957) 742 206 235 285 317 468 840 995 1770 2390
2020-11-18 03:30 4.78 1620 3440 (2010) 174 (1957) 742 206 235 285 317 468 840 995 1770 2390
2020-11-18 02:30 4.78 1620 3440 (2010) 174 (1957) 742 206 235 285 317 468 840 995 1770 2390
2020-11-18 01:30 4.78 1620 3440 (2010) 174 (1957) 742 206 235 285 317 468 840 995 1770 2390
2020-11-18 00:30 4.78 1620 3440 (2010) 174 (1957) 742 206 235 285 317 468 840 995 1770 2390
2020-11-17 23:30 4.79 1630 3450 (1959) 176 (1957) 746 212 250 285 301 440 941 997 1610 3370
2020-11-17 22:30 4.78 1620 3450 (1959) 176 (1957) 746 212 250 285 301 440 941 997 1610 3370
2020-11-17 21:30 4.79 1630 3450 (1959) 176 (1957) 746 212 250 285 301 440 941 997 1610 3370
2020-11-17 20:30 4.78 1620 3450 (1959) 176 (1957) 746 212 250 285 301 440 941 997 1610 3370
2020-11-17 19:30 4.77 1610 3450 (1959) 176 (1957) 746 212 250 285 301 440 941 997 1610 3370
2020-11-17 18:30 4.77 1610 3450 (1959) 176 (1957) 746 212 250 285 301 440 941 997 1610 3370
2020-11-17 17:30 4.78 1620 3450 (1959) 176 (1957) 746 212 250 285 301 440 941 997 1610 3370
2020-11-17 16:30 4.77 1610 3450 (1959) 176 (1957) 746 212 250 285 301 440 941 997 1610 3370
2020-11-17 15:30 4.77 1610 3450 (1959) 176 (1957) 746 212 250 285 301 440 941 997 1610 3370
2020-11-17 14:30 4.76 1610 3450 (1959) 176 (1957) 746 212 250 285 301 440 941 997 1610 3370
2020-11-17 13:30 4.77 1610 3450 (1959) 176 (1957) 746 212 250 285 301 440 941 997 1610 3370
2020-11-17 12:30 4.77 1610 3450 (1959) 176 (1957) 746 212 250 285 301 440 941 997 1610 3370
2020-11-17 11:30 4.77 1610 3450 (1959) 176 (1957) 746 212 250 285 301 440 941 997 1610 3370
2020-11-17 10:30 4.76 1610 3450 (1959) 176 (1957) 746 212 250 285 301 440 941 997 1610 3370
2020-11-17 09:30 4.75 1600 3450 (1959) 176 (1957) 746 212 250 285 301 440 941 997 1610 3370
2020-11-17 08:30 4.77 1610 3450 (1959) 176 (1957) 746 212 250 285 301 440 941 997 1610 3370
2020-11-17 07:30 4.76 1610 3450 (1959) 176 (1957) 746 212 250 285 301 440 941 997 1610 3370
2020-11-17 06:30 4.76 1610 3450 (1959) 176 (1957) 746 212 250 285 301 440 941 997 1610 3370
2020-11-17 05:30 4.76 1610 3450 (1959) 176 (1957) 746 212 250 285 301 440 941 997 1610 3370
2020-11-17 04:30 4.76 1610 3450 (1959) 176 (1957) 746 212 250 285 301 440 941 997 1610 3370
2020-11-17 03:30 4.74 1590 3450 (1959) 176 (1957) 746 212 250 285 301 440 941 997 1610 3370
2020-11-17 02:30 4.74 1590 3450 (1959) 176 (1957) 746 212 250 285 301 440 941 997 1610 3370
2020-11-17 01:30 4.72 1580 3450 (1959) 176 (1957) 746 212 250 285 301 440 941 997 1610 3370
2020-11-17 00:30 4.71 1570 3450 (1959) 176 (1957) 746 212 250 285 301 440 941 997 1610 3370
2020-11-16 23:30 4.69 1560 3410 (1952) 158 (1983) 698 180 237 275 290 408 886 1000 1510 1690
2020-11-16 22:30 4.68 1550 3410 (1952) 158 (1983) 698 180 237 275 290 408 886 1000 1510 1690
2020-11-16 21:30 4.65 1530 3410 (1952) 158 (1983) 698 180 237 275 290 408 886 1000 1510 1690
2020-11-16 20:30 4.62 1510 3410 (1952) 158 (1983) 698 180 237 275 290 408 886 1000 1510 1690
2020-11-16 19:30 4.59 1490 3410 (1952) 158 (1983) 698 180 237 275 290 408 886 1000 1510 1690
2020-11-16 18:30 4.54 1460 3410 (1952) 158 (1983) 698 180 237 275 290 408 886 1000 1510 1690
2020-11-16 17:30 4.46 1410 3410 (1952) 158 (1983) 698 180 237 275 290 408 886 1000 1510 1690
2020-11-16 16:30 4.36 1340 3410 (1952) 158 (1983) 698 180 237 275 290 408 886 1000 1510 1690
2020-11-16 15:30 4.22 1250 3410 (1952) 158 (1983) 698 180 237 275 290 408 886 1000 1510 1690
2020-11-16 14:30 4.04 1140 3410 (1952) 158 (1983) 698 180 237 275 290 408 886 1000 1510 1690
2020-11-16 13:30 3.83 1020 3410 (1952) 158 (1983) 698 180 237 275 290 408 886 1000 1510 1690
2020-11-16 12:30 3.54 859 3410 (1952) 158 (1983) 698 180 237 275 290 408 886 1000 1510 1690
2020-11-16 11:30 3.22 694 3410 (1952) 158 (1983) 698 180 237 275 290 408 886 1000 1510 1690
2020-11-16 10:30 3.00 588 3410 (1952) 158 (1983) 698 180 237 275 290 408 886 1000 1510 1690
2020-11-16 09:30 2.98 579 3410 (1952) 158 (1983) 698 180 237 275 290 408 886 1000 1510 1690
2020-11-16 08:30 2.97 575 3410 (1952) 158 (1983) 698 180 237 275 290 408 886 1000 1510 1690
2020-11-16 07:30 2.98 579 3410 (1952) 158 (1983) 698 180 237 275 290 408 886 1000 1510 1690
2020-11-16 06:30 2.98 579 3410 (1952) 158 (1983) 698 180 237 275 290 408 886 1000 1510 1690
2020-11-16 05:30 2.98 579 3410 (1952) 158 (1983) 698 180 237 275 290 408 886 1000 1510 1690
2020-11-16 04:30 2.98 579 3410 (1952) 158 (1983) 698 180 237 275 290 408 886 1000 1510 1690
2020-11-16 03:30 2.97 575 3410 (1952) 158 (1983) 698 180 237 275 290 408 886 1000 1510 1690
2020-11-16 02:30 2.98 579 3410 (1952) 158 (1983) 698 180 237 275 290 408 886 1000 1510 1690
2020-11-16 01:30 2.98 579 3410 (1952) 158 (1983) 698 180 237 275 290 408 886 1000 1510 1690
2020-11-16 00:30 2.97 575 3410 (1952) 158 (1983) 698 180 237 275 290 408 886 1000 1510 1690
2020-11-15 23:30 2.97 575 3410 (1952) 180 (1964) 687 213 241 276 298 425 889 1020 1360 1800
2020-11-15 22:30 2.98 579 3410 (1952) 180 (1964) 687 213 241 276 298 425 889 1020 1360 1800
2020-11-15 21:30 2.98 579 3410 (1952) 180 (1964) 687 213 241 276 298 425 889 1020 1360 1800
2020-11-15 20:30 2.98 579 3410 (1952) 180 (1964) 687 213 241 276 298 425 889 1020 1360 1800
2020-11-15 19:30 2.98 579 3410 (1952) 180 (1964) 687 213 241 276 298 425 889 1020 1360 1800
2020-11-15 18:30 2.98 579 3410 (1952) 180 (1964) 687 213 241 276 298 425 889 1020 1360 1800
2020-11-15 17:30 2.99 584 3410 (1952) 180 (1964) 687 213 241 276 298 425 889 1020 1360 1800
2020-11-15 16:30 2.99 584 3410 (1952) 180 (1964) 687 213 241 276 298 425 889 1020 1360 1800
2020-11-15 15:30 3.00 588 3410 (1952) 180 (1964) 687 213 241 276 298 425 889 1020 1360 1800
2020-11-15 14:30 3.00 588 3410 (1952) 180 (1964) 687 213 241 276 298 425 889 1020 1360 1800
2020-11-15 13:30 3.01 593 3410 (1952) 180 (1964) 687 213 241 276 298 425 889 1020 1360 1800
2020-11-15 12:30 3.03 602 3410 (1952) 180 (1964) 687 213 241 276 298 425 889 1020 1360 1800
2020-11-15 11:30 3.04 607 3410 (1952) 180 (1964) 687 213 241 276 298 425 889 1020 1360 1800
2020-11-15 10:30 3.05 612 3410 (1952) 180 (1964) 687 213 241 276 298 425 889 1020 1360 1800
2020-11-15 09:30 3.08 626 3410 (1952) 180 (1964) 687 213 241 276 298 425 889 1020 1360 1800
2020-11-15 08:30 3.11 640 3410 (1952) 180 (1964) 687 213 241 276 298 425 889 1020 1360 1800
2020-11-15 07:30 3.14 655 3410 (1952) 180 (1964) 687 213 241 276 298 425 889 1020 1360 1800
2020-11-15 06:30 3.14 655 3410 (1952) 180 (1964) 687 213 241 276 298 425 889 1020 1360 1800
2020-11-15 05:30 3.12 645 3410 (1952) 180 (1964) 687 213 241 276 298 425 889 1020 1360 1800
2020-11-15 04:30 3.05 612 3410 (1952) 180 (1964) 687 213 241 276 298 425 889 1020 1360 1800
2020-11-15 03:30 3.03 602 3410 (1952) 180 (1964) 687 213 241 276 298 425 889 1020 1360 1800
2020-11-15 02:30 3.03 602 3410 (1952) 180 (1964) 687 213 241 276 298 425 889 1020 1360 1800
2020-11-15 01:30 3.00 588 3410 (1952) 180 (1964) 687 213 241 276 298 425 889 1020 1360 1800
2020-11-15 00:30 3.00 588 3410 (1952) 180 (1964) 687 213 241 276 298 425 889 1020 1360 1800
2020-11-14 23:30 2.91 547 3410 (1952) 178 (1957) 676 212 228 278 297 446 804 970 1280 1960
2020-11-14 22:30 2.92 552 3410 (1952) 178 (1957) 676 212 228 278 297 446 804 970 1280 1960
2020-11-14 21:30 2.91 547 3410 (1952) 178 (1957) 676 212 228 278 297 446 804 970 1280 1960
2020-11-14 20:30 2.91 547 3410 (1952) 178 (1957) 676 212 228 278 297 446 804 970 1280 1960
2020-11-14 19:30 2.91 547 3410 (1952) 178 (1957) 676 212 228 278 297 446 804 970 1280 1960
2020-11-14 18:30 2.92 552 3410 (1952) 178 (1957) 676 212 228 278 297 446 804 970 1280 1960
2020-11-14 17:30 2.92 552 3410 (1952) 178 (1957) 676 212 228 278 297 446 804 970 1280 1960
2020-11-14 16:30 2.92 552 3410 (1952) 178 (1957) 676 212 228 278 297 446 804 970 1280 1960
2020-11-14 15:30 2.93 556 3410 (1952) 178 (1957) 676 212 228 278 297 446 804 970 1280 1960
2020-11-14 14:30 2.92 552 3410 (1952) 178 (1957) 676 212 228 278 297 446 804 970 1280 1960
2020-11-14 13:30 2.92 552 3410 (1952) 178 (1957) 676 212 228 278 297 446 804 970 1280 1960
2020-11-14 12:30 2.93 556 3410 (1952) 178 (1957) 676 212 228 278 297 446 804 970 1280 1960
2020-11-14 11:30 2.92 552 3410 (1952) 178 (1957) 676 212 228 278 297 446 804 970 1280 1960
2020-11-14 10:30 2.93 556 3410 (1952) 178 (1957) 676 212 228 278 297 446 804 970 1280 1960
2020-11-14 09:30 2.93 556 3410 (1952) 178 (1957) 676 212 228 278 297 446 804 970 1280 1960
2020-11-14 08:30 2.93 556 3410 (1952) 178 (1957) 676 212 228 278 297 446 804 970 1280 1960
2020-11-14 07:30 2.93 556 3410 (1952) 178 (1957) 676 212 228 278 297 446 804 970 1280 1960
2020-11-14 06:30 2.94 561 3410 (1952) 178 (1957) 676 212 228 278 297 446 804 970 1280 1960
2020-11-14 05:30 2.94 561 3410 (1952) 178 (1957) 676 212 228 278 297 446 804 970 1280 1960
2020-11-14 04:30 2.95 566 3410 (1952) 178 (1957) 676 212 228 278 297 446 804 970 1280 1960
2020-11-14 03:30 2.96 570 3410 (1952) 178 (1957) 676 212 228 278 297 446 804 970 1280 1960
2020-11-14 02:30 2.95 566 3410 (1952) 178 (1957) 676 212 228 278 297 446 804 970 1280 1960
2020-11-14 01:30 2.93 556 3410 (1952) 178 (1957) 676 212 228 278 297 446 804 970 1280 1960
2020-11-14 00:30 2.92 552 3410 (1952) 178 (1957) 676 212 228 278 297 446 804 970 1280 1960
2020-11-13 23:30 2.93 556 3360 (2010) 178 (1957) 692 201 225 271 289 490 803 895 1380 2270
2020-11-13 22:30 2.92 552 3360 (2010) 178 (1957) 692 201 225 271 289 490 803 895 1380 2270
2020-11-13 21:30 2.93 556 3360 (2010) 178 (1957) 692 201 225 271 289 490 803 895 1380 2270
2020-11-13 20:30 2.93 556 3360 (2010) 178 (1957) 692 201 225 271 289 490 803 895 1380 2270
2020-11-13 19:30 2.93 556 3360 (2010) 178 (1957) 692 201 225 271 289 490 803 895 1380 2270
2020-11-13 18:30 2.93 556 3360 (2010) 178 (1957) 692 201 225 271 289 490 803 895 1380 2270
2020-11-13 17:30 2.94 561 3360 (2010) 178 (1957) 692 201 225 271 289 490 803 895 1380 2270
2020-11-13 16:30 2.94 561 3360 (2010) 178 (1957) 692 201 225 271 289 490 803 895 1380 2270
2020-11-13 15:30 2.96 570 3360 (2010) 178 (1957) 692 201 225 271 289 490 803 895 1380 2270
2020-11-13 14:30 2.98 579 3360 (2010) 178 (1957) 692 201 225 271 289 490 803 895 1380 2270
2020-11-13 13:30 2.99 584 3360 (2010) 178 (1957) 692 201 225 271 289 490 803 895 1380 2270
2020-11-13 12:30 3.02 598 3360 (2010) 178 (1957) 692 201 225 271 289 490 803 895 1380 2270
2020-11-13 11:30 3.03 602 3360 (2010) 178 (1957) 692 201 225 271 289 490 803 895 1380 2270
2020-11-13 10:30 3.04 607 3360 (2010) 178 (1957) 692 201 225 271 289 490 803 895 1380 2270
2020-11-13 09:30 3.05 612 3360 (2010) 178 (1957) 692 201 225 271 289 490 803 895 1380 2270
2020-11-13 08:30 3.06 617 3360 (2010) 178 (1957) 692 201 225 271 289 490 803 895 1380 2270
2020-11-13 07:30 3.05 612 3360 (2010) 178 (1957) 692 201 225 271 289 490 803 895 1380 2270
2020-11-13 06:30 3.05 612 3360 (2010) 178 (1957) 692 201 225 271 289 490 803 895 1380 2270
2020-11-13 05:30 3.04 607 3360 (2010) 178 (1957) 692 201 225 271 289 490 803 895 1380 2270
2020-11-13 04:30 3.04 607 3360 (2010) 178 (1957) 692 201 225 271 289 490 803 895 1380 2270
2020-11-13 03:30 3.06 617 3360 (2010) 178 (1957) 692 201 225 271 289 490 803 895 1380 2270
2020-11-13 02:30 3.06 617 3360 (2010) 178 (1957) 692 201 225 271 289 490 803 895 1380 2270
2020-11-13 01:30 3.04 607 3360 (2010) 178 (1957) 692 201 225 271 289 490 803 895 1380 2270
2020-11-13 00:30 3.06 617 3360 (2010) 178 (1957) 692 201 225 271 289 490 803 895 1380 2270
2020-11-12 23:30 3.04 607 3370 (2010) 178 (1957) 660 217 227 277 292 448 691 894 1780 2040
2020-11-12 22:30 3.05 612 3370 (2010) 178 (1957) 660 217 227 277 292 448 691 894 1780 2040
2020-11-12 21:30 3.05 612 3370 (2010) 178 (1957) 660 217 227 277 292 448 691 894 1780 2040
2020-11-12 20:30 3.06 617 3370 (2010) 178 (1957) 660 217 227 277 292 448 691 894 1780 2040
2020-11-12 19:30 3.06 617 3370 (2010) 178 (1957) 660 217 227 277 292 448 691 894 1780 2040
2020-11-12 18:30 3.06 617 3370 (2010) 178 (1957) 660 217 227 277 292 448 691 894 1780 2040
2020-11-12 17:30 3.05 612 3370 (2010) 178 (1957) 660 217 227 277 292 448 691 894 1780 2040
2020-11-12 16:30 3.06 617 3370 (2010) 178 (1957) 660 217 227 277 292 448 691 894 1780 2040
2020-11-12 15:30 3.06 617 3370 (2010) 178 (1957) 660 217 227 277 292 448 691 894 1780 2040
2020-11-12 14:30 3.05 612 3370 (2010) 178 (1957) 660 217 227 277 292 448 691 894 1780 2040
2020-11-12 13:30 3.06 617 3370 (2010) 178 (1957) 660 217 227 277 292 448 691 894 1780 2040
2020-11-12 12:30 3.06 617 3370 (2010) 178 (1957) 660 217 227 277 292 448 691 894 1780 2040
2020-11-12 11:30 3.06 617 3370 (2010) 178 (1957) 660 217 227 277 292 448 691 894 1780 2040
2020-11-12 10:30 3.06 617 3370 (2010) 178 (1957) 660 217 227 277 292 448 691 894 1780 2040
2020-11-12 09:30 3.05 612 3370 (2010) 178 (1957) 660 217 227 277 292 448 691 894 1780 2040
2020-11-12 08:30 3.06 617 3370 (2010) 178 (1957) 660 217 227 277 292 448 691 894 1780 2040
2020-11-12 07:30 3.06 617 3370 (2010) 178 (1957) 660 217 227 277 292 448 691 894 1780 2040
2020-11-12 06:30 3.07 621 3370 (2010) 178 (1957) 660 217 227 277 292 448 691 894 1780 2040
2020-11-12 05:30 3.08 626 3370 (2010) 178 (1957) 660 217 227 277 292 448 691 894 1780 2040
2020-11-12 04:30 3.07 621 3370 (2010) 178 (1957) 660 217 227 277 292 448 691 894 1780 2040
2020-11-12 03:30 3.07 621 3370 (2010) 178 (1957) 660 217 227 277 292 448 691 894 1780 2040
2020-11-12 02:30 3.06 617 3370 (2010) 178 (1957) 660 217 227 277 292 448 691 894 1780 2040
2020-11-12 01:30 3.07 621 3370 (2010) 178 (1957) 660 217 227 277 292 448 691 894 1780 2040
2020-11-12 00:30 3.06 617 3370 (2010) 178 (1957) 660 217 227 277 292 448 691 894 1780 2040
2020-11-11 23:30 3.06 617 3400 (2010) 178 (1957) 633 217 227 279 293 433 650 747 1260 2140
2020-11-11 22:30 3.07 621 3400 (2010) 178 (1957) 633 217 227 279 293 433 650 747 1260 2140
2020-11-11 21:30 3.07 621 3400 (2010) 178 (1957) 633 217 227 279 293 433 650 747 1260 2140
2020-11-11 20:30 3.06 617 3400 (2010) 178 (1957) 633 217 227 279 293 433 650 747 1260 2140
2020-11-11 19:30 3.07 621 3400 (2010) 178 (1957) 633 217 227 279 293 433 650 747 1260 2140
2020-11-11 18:30 3.08 626 3400 (2010) 178 (1957) 633 217 227 279 293 433 650 747 1260 2140
2020-11-11 17:30 3.06 617 3400 (2010) 178 (1957) 633 217 227 279 293 433 650 747 1260 2140
2020-11-11 16:30 3.07 621 3400 (2010) 178 (1957) 633 217 227 279 293 433 650 747 1260 2140
2020-11-11 15:30 3.09 631 3400 (2010) 178 (1957) 633 217 227 279 293 433 650 747 1260 2140
2020-11-11 14:30 3.07 621 3400 (2010) 178 (1957) 633 217 227 279 293 433 650 747 1260 2140
2020-11-11 13:30 3.09 631 3400 (2010) 178 (1957) 633 217 227 279 293 433 650 747 1260 2140
2020-11-11 12:30 3.09 631 3400 (2010) 178 (1957) 633 217 227 279 293 433 650 747 1260 2140
2020-11-11 11:30 3.09 631 3400 (2010) 178 (1957) 633 217 227 279 293 433 650 747 1260 2140
2020-11-11 10:30 3.10 635 3400 (2010) 178 (1957) 633 217 227 279 293 433 650 747 1260 2140
2020-11-11 09:30 3.10 635 3400 (2010) 178 (1957) 633 217 227 279 293 433 650 747 1260 2140
2020-11-11 08:30 3.10 635 3400 (2010) 178 (1957) 633 217 227 279 293 433 650 747 1260 2140
2020-11-11 07:30 3.11 640 3400 (2010) 178 (1957) 633 217 227 279 293 433 650 747 1260 2140
2020-11-11 06:30 3.10 635 3400 (2010) 178 (1957) 633 217 227 279 293 433 650 747 1260 2140
2020-11-11 05:30 3.12 645 3400 (2010) 178 (1957) 633 217 227 279 293 433 650 747 1260 2140
2020-11-11 04:30 3.11 640 3400 (2010) 178 (1957) 633 217 227 279 293 433 650 747 1260 2140
2020-11-11 03:30 3.11 640 3400 (2010) 178 (1957) 633 217 227 279 293 433 650 747 1260 2140
2020-11-11 02:30 3.11 640 3400 (2010) 178 (1957) 633 217 227 279 293 433 650 747 1260 2140
2020-11-11 01:30 3.13 650 3400 (2010) 178 (1957) 633 217 227 279 293 433 650 747 1260 2140
2020-11-11 00:30 3.13 650 3400 (2010) 178 (1957) 633 217 227 279 293 433 650 747 1260 2140
2020-11-10 23:30 3.13 650 3270 (2010) 178 (1957) 637 217 228 258 293 425 748 870 1220 2090
2020-11-10 22:30 3.15 660 3270 (2010) 178 (1957) 637 217 228 258 293 425 748 870 1220 2090
2020-11-10 21:30 3.15 660 3270 (2010) 178 (1957) 637 217 228 258 293 425 748 870 1220 2090
2020-11-10 20:30 3.16 664 3270 (2010) 178 (1957) 637 217 228 258 293 425 748 870 1220 2090
2020-11-10 19:30 3.17 669 3270 (2010) 178 (1957) 637 217 228 258 293 425 748 870 1220 2090
2020-11-10 18:30 3.17 669 3270 (2010) 178 (1957) 637 217 228 258 293 425 748 870 1220 2090
2020-11-10 17:30 3.18 674 3270 (2010) 178 (1957) 637 217 228 258 293 425 748 870 1220 2090
2020-11-10 16:30 3.20 684 3270 (2010) 178 (1957) 637 217 228 258 293 425 748 870 1220 2090
2020-11-10 15:30 3.22 694 3270 (2010) 178 (1957) 637 217 228 258 293 425 748 870 1220 2090
2020-11-10 14:30 3.24 704 3270 (2010) 178 (1957) 637 217 228 258 293 425 748 870 1220 2090
2020-11-10 13:30 3.28 724 3270 (2010) 178 (1957) 637 217 228 258 293 425 748 870 1220 2090
2020-11-10 12:30 3.31 739 3270 (2010) 178 (1957) 637 217 228 258 293 425 748 870 1220 2090
2020-11-10 11:30 3.35 759 3270 (2010) 178 (1957) 637 217 228 258 293 425 748 870 1220 2090
2020-11-10 10:30 3.40 785 3270 (2010) 178 (1957) 637 217 228 258 293 425 748 870 1220 2090
2020-11-10 09:30 3.39 780 3270 (2010) 178 (1957) 637 217 228 258 293 425 748 870 1220 2090
2020-11-10 08:30 3.41 790 3270 (2010) 178 (1957) 637 217 228 258 293 425 748 870 1220 2090
2020-11-10 07:30 3.40 785 3270 (2010) 178 (1957) 637 217 228 258 293 425 748 870 1220 2090
2020-11-10 06:30 3.43 800 3270 (2010) 178 (1957) 637 217 228 258 293 425 748 870 1220 2090
2020-11-10 05:30 3.42 795 3270 (2010) 178 (1957) 637 217 228 258 293 425 748 870 1220 2090
2020-11-10 04:30 3.41 790 3270 (2010) 178 (1957) 637 217 228 258 293 425 748 870 1220 2090
2020-11-10 03:30 3.42 795 3270 (2010) 178 (1957) 637 217 228 258 293 425 748 870 1220 2090
2020-11-10 02:30 3.41 790 3270 (2010) 178 (1957) 637 217 228 258 293 425 748 870 1220 2090
2020-11-10 01:30 3.42 795 3270 (2010) 178 (1957) 637 217 228 258 293 425 748 870 1220 2090
2020-11-10 00:30 3.42 795 3270 (2010) 178 (1957) 637 217 228 258 293 425 748 870 1220 2090
2020-11-09 23:30 3.42 795 2140 (1978) 180 (1957) 619 217 237 287 306 387 839 973 1340 1870
2020-11-09 22:30 3.41 790 2140 (1978) 180 (1957) 619 217 237 287 306 387 839 973 1340 1870
2020-11-09 21:30 3.43 800 2140 (1978) 180 (1957) 619 217 237 287 306 387 839 973 1340 1870
2020-11-09 20:30 3.41 790 2140 (1978) 180 (1957) 619 217 237 287 306 387 839 973 1340 1870
2020-11-09 19:30 3.43 800 2140 (1978) 180 (1957) 619 217 237 287 306 387 839 973 1340 1870
2020-11-09 18:30 3.43 800 2140 (1978) 180 (1957) 619 217 237 287 306 387 839 973 1340 1870
2020-11-09 17:30 3.43 800 2140 (1978) 180 (1957) 619 217 237 287 306 387 839 973 1340 1870
2020-11-09 16:30 3.43 800 2140 (1978) 180 (1957) 619 217 237 287 306 387 839 973 1340 1870
2020-11-09 15:30 3.44 806 2140 (1978) 180 (1957) 619 217 237 287 306 387 839 973 1340 1870
2020-11-09 14:30 3.44 806 2140 (1978) 180 (1957) 619 217 237 287 306 387 839 973 1340 1870
2020-11-09 13:30 3.44 806 2140 (1978) 180 (1957) 619 217 237 287 306 387 839 973 1340 1870
2020-11-09 12:30 3.44 806 2140 (1978) 180 (1957) 619 217 237 287 306 387 839 973 1340 1870
2020-11-09 11:30 3.43 800 2140 (1978) 180 (1957) 619 217 237 287 306 387 839 973 1340 1870
2020-11-09 10:30 3.43 800 2140 (1978) 180 (1957) 619 217 237 287 306 387 839 973 1340 1870
2020-11-09 09:30 3.42 795 2140 (1978) 180 (1957) 619 217 237 287 306 387 839 973 1340 1870
2020-11-09 08:30 3.43 800 2140 (1978) 180 (1957) 619 217 237 287 306 387 839 973 1340 1870
2020-11-09 07:30 3.42 795 2140 (1978) 180 (1957) 619 217 237 287 306 387 839 973 1340 1870
2020-11-09 06:30 3.44 806 2140 (1978) 180 (1957) 619 217 237 287 306 387 839 973 1340 1870
2020-11-09 05:30 3.43 800 2140 (1978) 180 (1957) 619 217 237 287 306 387 839 973 1340 1870
2020-11-09 04:30 3.43 800 2140 (1978) 180 (1957) 619 217 237 287 306 387 839 973 1340 1870
2020-11-09 03:30 3.44 806 2140 (1978) 180 (1957) 619 217 237 287 306 387 839 973 1340 1870
2020-11-09 02:30 3.44 806 2140 (1978) 180 (1957) 619 217 237 287 306 387 839 973 1340 1870
2020-11-09 01:30 3.44 806 2140 (1978) 180 (1957) 619 217 237 287 306 387 839 973 1340 1870
2020-11-09 00:30 3.45 811 2140 (1978) 180 (1957) 619 217 237 287 306 387 839 973 1340 1870
2020-11-08 23:30 3.44 806 2160 (1978) 180 (1964) 617 187 229 283 289 393 756 950 1420 1960
2020-11-08 22:30 3.45 811 2160 (1978) 180 (1964) 617 187 229 283 289 393 756 950 1420 1960
2020-11-08 21:30 3.45 811 2160 (1978) 180 (1964) 617 187 229 283 289 393 756 950 1420 1960
2020-11-08 20:30 3.44 806 2160 (1978) 180 (1964) 617 187 229 283 289 393 756 950 1420 1960
2020-11-08 19:30 3.45 811 2160 (1978) 180 (1964) 617 187 229 283 289 393 756 950 1420 1960
2020-11-08 18:30 3.46 816 2160 (1978) 180 (1964) 617 187 229 283 289 393 756 950 1420 1960
2020-11-08 17:30 3.45 811 2160 (1978) 180 (1964) 617 187 229 283 289 393 756 950 1420 1960
2020-11-08 16:30 3.46 816 2160 (1978) 180 (1964) 617 187 229 283 289 393 756 950 1420 1960
2020-11-08 15:30 3.46 816 2160 (1978) 180 (1964) 617 187 229 283 289 393 756 950 1420 1960
2020-11-08 14:30 3.46 816 2160 (1978) 180 (1964) 617 187 229 283 289 393 756 950 1420 1960
2020-11-08 13:30 3.46 816 2160 (1978) 180 (1964) 617 187 229 283 289 393 756 950 1420 1960
2020-11-08 12:30 3.47 821 2160 (1978) 180 (1964) 617 187 229 283 289 393 756 950 1420 1960
2020-11-08 11:30 3.46 816 2160 (1978) 180 (1964) 617 187 229 283 289 393 756 950 1420 1960
2020-11-08 10:30 3.46 816 2160 (1978) 180 (1964) 617 187 229 283 289 393 756 950 1420 1960
2020-11-08 09:30 3.46 816 2160 (1978) 180 (1964) 617 187 229 283 289 393 756 950 1420 1960
2020-11-08 08:30 3.47 821 2160 (1978) 180 (1964) 617 187 229 283 289 393 756 950 1420 1960
2020-11-08 07:30 3.46 816 2160 (1978) 180 (1964) 617 187 229 283 289 393 756 950 1420 1960
2020-11-08 06:30 3.47 821 2160 (1978) 180 (1964) 617 187 229 283 289 393 756 950 1420 1960
2020-11-08 05:30 3.48 827 2160 (1978) 180 (1964) 617 187 229 283 289 393 756 950 1420 1960
2020-11-08 04:30 3.47 821 2160 (1978) 180 (1964) 617 187 229 283 289 393 756 950 1420 1960
2020-11-08 03:30 3.47 821 2160 (1978) 180 (1964) 617 187 229 283 289 393 756 950 1420 1960
2020-11-08 02:30 3.48 827 2160 (1978) 180 (1964) 617 187 229 283 289 393 756 950 1420 1960
2020-11-08 01:30 3.49 832 2160 (1978) 180 (1964) 617 187 229 283 289 393 756 950 1420 1960
2020-11-08 00:30 3.48 827 2160 (1978) 180 (1964) 617 187 229 283 289 393 756 950 1420 1960
2020-11-07 23:30 3.49 832 2270 (2010) 175 (1960) 607 182 225 278 289 372 828 880 1360 2000
2020-11-07 22:30 3.48 827 2270 (2010) 175 (1960) 607 182 225 278 289 372 828 880 1360 2000
2020-11-07 21:30 3.48 827 2270 (2010) 175 (1960) 607 182 225 278 289 372 828 880 1360 2000
2020-11-07 20:30 3.48 827 2270 (2010) 175 (1960) 607 182 225 278 289 372 828 880 1360 2000
2020-11-07 19:30 3.48 827 2270 (2010) 175 (1960) 607 182 225 278 289 372 828 880 1360 2000
2020-11-07 18:30 3.49 832 2270 (2010) 175 (1960) 607 182 225 278 289 372 828 880 1360 2000
2020-11-07 17:30 3.49 832 2270 (2010) 175 (1960) 607 182 225 278 289 372 828 880 1360 2000
2020-11-07 16:30 3.50 837 2270 (2010) 175 (1960) 607 182 225 278 289 372 828 880 1360 2000
2020-11-07 15:30 3.50 837 2270 (2010) 175 (1960) 607 182 225 278 289 372 828 880 1360 2000
2020-11-07 14:30 3.50 837 2270 (2010) 175 (1960) 607 182 225 278 289 372 828 880 1360 2000
2020-11-07 13:30 3.51 843 2270 (2010) 175 (1960) 607 182 225 278 289 372 828 880 1360 2000
2020-11-07 12:30 3.51 843 2270 (2010) 175 (1960) 607 182 225 278 289 372 828 880 1360 2000
2020-11-07 11:30 3.52 848 2270 (2010) 175 (1960) 607 182 225 278 289 372 828 880 1360 2000
2020-11-07 10:30 3.51 843 2270 (2010) 175 (1960) 607 182 225 278 289 372 828 880 1360 2000
2020-11-07 09:30 3.53 853 2270 (2010) 175 (1960) 607 182 225 278 289 372 828 880 1360 2000
2020-11-07 08:30 3.53 853 2270 (2010) 175 (1960) 607 182 225 278 289 372 828 880 1360 2000
2020-11-07 07:30 3.54 859 2270 (2010) 175 (1960) 607 182 225 278 289 372 828 880 1360 2000
2020-11-07 06:30 3.55 864 2270 (2010) 175 (1960) 607 182 225 278 289 372 828 880 1360 2000
2020-11-07 05:30 3.55 864 2270 (2010) 175 (1960) 607 182 225 278 289 372 828 880 1360 2000
2020-11-07 04:30 3.56 869 2270 (2010) 175 (1960) 607 182 225 278 289 372 828 880 1360 2000
2020-11-07 03:30 3.56 869 2270 (2010) 175 (1960) 607 182 225 278 289 372 828 880 1360 2000
2020-11-07 02:30 3.57 875 2270 (2010) 175 (1960) 607 182 225 278 289 372 828 880 1360 2000
2020-11-07 01:30 3.57 875 2270 (2010) 175 (1960) 607 182 225 278 289 372 828 880 1360 2000
2020-11-07 00:30 3.59 886 2270 (2010) 175 (1960) 607 182 225 278 289 372 828 880 1360 2000
2020-11-06 23:30 3.59 886 3320 (2010) 100 (1960) 610 184 218 278 287 372 750 865 1350 1640
2020-11-06 22:30 3.63 908 3320 (2010) 100 (1960) 610 184 218 278 287 372 750 865 1350 1640
2020-11-06 21:30 3.65 919 3320 (2010) 100 (1960) 610 184 218 278 287 372 750 865 1350 1640
2020-11-06 20:30 3.66 924 3320 (2010) 100 (1960) 610 184 218 278 287 372 750 865 1350 1640
2020-11-06 19:30 3.70 946 3320 (2010) 100 (1960) 610 184 218 278 287 372 750 865 1350 1640
2020-11-06 18:30 3.73 963 3320 (2010) 100 (1960) 610 184 218 278 287 372 750 865 1350 1640
2020-11-06 17:30 3.78 991 3320 (2010) 100 (1960) 610 184 218 278 287 372 750 865 1350 1640
2020-11-06 16:30 3.83 1020 3320 (2010) 100 (1960) 610 184 218 278 287 372 750 865 1350 1640
2020-11-06 15:30 3.92 1070 3320 (2010) 100 (1960) 610 184 218 278 287 372 750 865 1350 1640
2020-11-06 14:30 4.03 1140 3320 (2010) 100 (1960) 610 184 218 278 287 372 750 865 1350 1640
2020-11-06 13:30 4.17 1220 3320 (2010) 100 (1960) 610 184 218 278 287 372 750 865 1350 1640
2020-11-06 12:30 4.36 1340 3320 (2010) 100 (1960) 610 184 218 278 287 372 750 865 1350 1640
2020-11-06 11:30 4.59 1490 3320 (2010) 100 (1960) 610 184 218 278 287 372 750 865 1350 1640
2020-11-06 10:30 4.77 1610 3320 (2010) 100 (1960) 610 184 218 278 287 372 750 865 1350 1640
2020-11-06 09:30 4.86 1680 3320 (2010) 100 (1960) 610 184 218 278 287 372 750 865 1350 1640
2020-11-06 08:30 4.88 1690 3320 (2010) 100 (1960) 610 184 218 278 287 372 750 865 1350 1640
2020-11-06 07:30 4.90 1700 3320 (2010) 100 (1960) 610 184 218 278 287 372 750 865 1350 1640
2020-11-06 06:30 4.88 1690 3320 (2010) 100 (1960) 610 184 218 278 287 372 750 865 1350 1640
2020-11-06 05:30 4.91 1710 3320 (2010) 100 (1960) 610 184 218 278 287 372 750 865 1350 1640
2020-11-06 04:30 4.90 1700 3320 (2010) 100 (1960) 610 184 218 278 287 372 750 865 1350 1640
2020-11-06 03:30 4.91 1710 3320 (2010) 100 (1960) 610 184 218 278 287 372 750 865 1350 1640
2020-11-06 02:30 4.89 1700 3320 (2010) 100 (1960) 610 184 218 278 287 372 750 865 1350 1640
2020-11-06 01:30 4.90 1700 3320 (2010) 100 (1960) 610 184 218 278 287 372 750 865 1350 1640
2020-11-06 00:30 4.90 1700 3320 (2010) 100 (1960) 610 184 218 278 287 372 750 865 1350 1640
2020-11-05 23:30 4.91 1710 3290 (2010) 70 (1960) 567 184 217 297 308 383 680 733 1220 1730
2020-11-05 22:30 4.91 1710 3290 (2010) 70 (1960) 567 184 217 297 308 383 680 733 1220 1730
2020-11-05 21:30 4.91 1710 3290 (2010) 70 (1960) 567 184 217 297 308 383 680 733 1220 1730
2020-11-05 20:30 4.93 1730 3290 (2010) 70 (1960) 567 184 217 297 308 383 680 733 1220 1730
2020-11-05 19:30 4.93 1730 3290 (2010) 70 (1960) 567 184 217 297 308 383 680 733 1220 1730
2020-11-05 18:30 4.92 1720 3290 (2010) 70 (1960) 567 184 217 297 308 383 680 733 1220 1730
2020-11-05 17:30 4.94 1730 3290 (2010) 70 (1960) 567 184 217 297 308 383 680 733 1220 1730
2020-11-05 16:30 4.93 1730 3290 (2010) 70 (1960) 567 184 217 297 308 383 680 733 1220 1730
2020-11-05 15:30 4.93 1730 3290 (2010) 70 (1960) 567 184 217 297 308 383 680 733 1220 1730
2020-11-05 14:30 4.93 1730 3290 (2010) 70 (1960) 567 184 217 297 308 383 680 733 1220 1730
2020-11-05 13:30 4.93 1730 3290 (2010) 70 (1960) 567 184 217 297 308 383 680 733 1220 1730
2020-11-05 12:30 4.94 1730 3290 (2010) 70 (1960) 567 184 217 297 308 383 680 733 1220 1730
2020-11-05 11:30 4.94 1730 3290 (2010) 70 (1960) 567 184 217 297 308 383 680 733 1220 1730
2020-11-05 10:30 4.95 1740 3290 (2010) 70 (1960) 567 184 217 297 308 383 680 733 1220 1730
2020-11-05 09:30 4.95 1740 3290 (2010) 70 (1960) 567 184 217 297 308 383 680 733 1220 1730
2020-11-05 08:30 4.96 1750 3290 (2010) 70 (1960) 567 184 217 297 308 383 680 733 1220 1730
2020-11-05 07:30 4.95 1740 3290 (2010) 70 (1960) 567 184 217 297 308 383 680 733 1220 1730
2020-11-05 06:30 4.96 1750 3290 (2010) 70 (1960) 567 184 217 297 308 383 680 733 1220 1730
2020-11-05 05:30 4.97 1750 3290 (2010) 70 (1960) 567 184 217 297 308 383 680 733 1220 1730
2020-11-05 04:30 4.95 1740 3290 (2010) 70 (1960) 567 184 217 297 308 383 680 733 1220 1730
2020-11-05 03:30 4.96 1750 3290 (2010) 70 (1960) 567 184 217 297 308 383 680 733 1220 1730
2020-11-05 02:30 4.98 1760 3290 (2010) 70 (1960) 567 184 217 297 308 383 680 733 1220 1730
2020-11-05 01:30 4.98 1760 3290 (2010) 70 (1960) 567 184 217 297 308 383 680 733 1220 1730
2020-11-05 00:30 4.97 1750 3290 (2010) 70 (1960) 567 184 217 297 308 383 680 733 1220 1730
2020-11-04 23:30 4.98 1760 3150 (2010) 80 (1960) 548 182 218 296 309 380 557 595 1140 1780
2020-11-04 22:30 4.97 1750 3150 (2010) 80 (1960) 548 182 218 296 309 380 557 595 1140 1780
2020-11-04 21:30 4.98 1760 3150 (2010) 80 (1960) 548 182 218 296 309 380 557 595 1140 1780
2020-11-04 20:30 4.99 1770 3150 (2010) 80 (1960) 548 182 218 296 309 380 557 595 1140 1780
2020-11-04 19:30 4.98 1760 3150 (2010) 80 (1960) 548 182 218 296 309 380 557 595 1140 1780
2020-11-04 18:30 4.99 1770 3150 (2010) 80 (1960) 548 182 218 296 309 380 557 595 1140 1780
2020-11-04 17:30 4.99 1770 3150 (2010) 80 (1960) 548 182 218 296 309 380 557 595 1140 1780
2020-11-04 16:30 4.99 1770 3150 (2010) 80 (1960) 548 182 218 296 309 380 557 595 1140 1780
2020-11-04 15:30 5.00 1770 3150 (2010) 80 (1960) 548 182 218 296 309 380 557 595 1140 1780
2020-11-04 14:30 5.00 1770 3150 (2010) 80 (1960) 548 182 218 296 309 380 557 595 1140 1780
2020-11-04 13:30 5.02 1790 3150 (2010) 80 (1960) 548 182 218 296 309 380 557 595 1140 1780
2020-11-04 12:30 5.02 1790 3150 (2010) 80 (1960) 548 182 218 296 309 380 557 595 1140 1780
2020-11-04 11:30 5.01 1780 3150 (2010) 80 (1960) 548 182 218 296 309 380 557 595 1140 1780
2020-11-04 10:30 5.02 1790 3150 (2010) 80 (1960) 548 182 218 296 309 380 557 595 1140 1780
2020-11-04 09:30 5.01 1780 3150 (2010) 80 (1960) 548 182 218 296 309 380 557 595 1140 1780
2020-11-04 08:30 5.03 1800 3150 (2010) 80 (1960) 548 182 218 296 309 380 557 595 1140 1780
2020-11-04 07:30 5.03 1800 3150 (2010) 80 (1960) 548 182 218 296 309 380 557 595 1140 1780
2020-11-04 06:30 5.02 1790 3150 (2010) 80 (1960) 548 182 218 296 309 380 557 595 1140 1780
2020-11-04 05:30 5.03 1800 3150 (2010) 80 (1960) 548 182 218 296 309 380 557 595 1140 1780
2020-11-04 04:30 5.03 1800 3150 (2010) 80 (1960) 548 182 218 296 309 380 557 595 1140 1780
2020-11-04 03:30 5.02 1790 3150 (2010) 80 (1960) 548 182 218 296 309 380 557 595 1140 1780
2020-11-04 02:30 5.03 1800 3150 (2010) 80 (1960) 548 182 218 296 309 380 557 595 1140 1780
2020-11-04 01:30 5.03 1800 3150 (2010) 80 (1960) 548 182 218 296 309 380 557 595 1140 1780
2020-11-04 00:30 5.03 1800 3150 (2010) 80 (1960) 548 182 218 296 309 380 557 595 1140 1780
2020-11-03 23:30 5.05 1810 2980 (2010) 100 (1960) 524 178 218 280 293 362 518 538 962 1820
2020-11-03 22:30 5.04 1800 2980 (2010) 100 (1960) 524 178 218 280 293 362 518 538 962 1820
2020-11-03 21:30 5.04 1800 2980 (2010) 100 (1960) 524 178 218 280 293 362 518 538 962 1820
2020-11-03 20:30 5.04 1800 2980 (2010) 100 (1960) 524 178 218 280 293 362 518 538 962 1820
2020-11-03 19:30 5.05 1810 2980 (2010) 100 (1960) 524 178 218 280 293 362 518 538 962 1820
2020-11-03 18:30 5.05 1810 2980 (2010) 100 (1960) 524 178 218 280 293 362 518 538 962 1820
2020-11-03 17:30 5.06 1820 2980 (2010) 100 (1960) 524 178 218 280 293 362 518 538 962 1820
2020-11-03 16:30 5.05 1810 2980 (2010) 100 (1960) 524 178 218 280 293 362 518 538 962 1820
2020-11-03 15:30 5.06 1820 2980 (2010) 100 (1960) 524 178 218 280 293 362 518 538 962 1820
2020-11-03 14:30 5.07 1820 2980 (2010) 100 (1960) 524 178 218 280 293 362 518 538 962 1820
2020-11-03 13:30 5.07 1820 2980 (2010) 100 (1960) 524 178 218 280 293 362 518 538 962 1820
2020-11-03 12:30 5.06 1820 2980 (2010) 100 (1960) 524 178 218 280 293 362 518 538 962 1820
2020-11-03 11:30 5.05 1810 2980 (2010) 100 (1960) 524 178 218 280 293 362 518 538 962 1820
2020-11-03 10:30 5.05 1810 2980 (2010) 100 (1960) 524 178 218 280 293 362 518 538 962 1820
2020-11-03 09:30 5.07 1820 2980 (2010) 100 (1960) 524 178 218 280 293 362 518 538 962 1820
2020-11-03 08:30 5.07 1820 2980 (2010) 100 (1960) 524 178 218 280 293 362 518 538 962 1820
2020-11-03 07:30 5.08 1830 2980 (2010) 100 (1960) 524 178 218 280 293 362 518 538 962 1820
2020-11-03 06:30 5.07 1820 2980 (2010) 100 (1960) 524 178 218 280 293 362 518 538 962 1820
2020-11-03 05:30 5.08 1830 2980 (2010) 100 (1960) 524 178 218 280 293 362 518 538 962 1820
2020-11-03 04:30 5.07 1820 2980 (2010) 100 (1960) 524 178 218 280 293 362 518 538 962 1820
2020-11-03 03:30 5.07 1820 2980 (2010) 100 (1960) 524 178 218 280 293 362 518 538 962 1820
2020-11-03 02:30 5.07 1820 2980 (2010) 100 (1960) 524 178 218 280 293 362 518 538 962 1820
2020-11-03 01:30 5.07 1820 2980 (2010) 100 (1960) 524 178 218 280 293 362 518 538 962 1820
2020-11-03 00:30 5.06 1820 2980 (2010) 100 (1960) 524 178 218 280 293 362 518 538 962 1820
2020-11-02 23:30 5.08 1830 2500 (2010) 178 (1964) 488 184 218 262 276 355 556 609 945 1340
2020-11-02 22:30 5.05 1810 2500 (2010) 178 (1964) 488 184 218 262 276 355 556 609 945 1340
2020-11-02 21:30 5.05 1810 2500 (2010) 178 (1964) 488 184 218 262 276 355 556 609 945 1340
2020-11-02 20:30 5.03 1800 2500 (2010) 178 (1964) 488 184 218 262 276 355 556 609 945 1340
2020-11-02 19:30 5.03 1800 2500 (2010) 178 (1964) 488 184 218 262 276 355 556 609 945 1340
2020-11-02 18:30 5.02 1790 2500 (2010) 178 (1964) 488 184 218 262 276 355 556 609 945 1340
2020-11-02 17:30 4.99 1770 2500 (2010) 178 (1964) 488 184 218 262 276 355 556 609 945 1340
2020-11-02 16:30 4.95 1740 2500 (2010) 178 (1964) 488 184 218 262 276 355 556 609 945 1340
2020-11-02 15:30 4.90 1700 2500 (2010) 178 (1964) 488 184 218 262 276 355 556 609 945 1340
2020-11-02 14:30 4.83 1660 2500 (2010) 178 (1964) 488 184 218 262 276 355 556 609 945 1340
2020-11-02 13:30 4.74 1590 2500 (2010) 178 (1964) 488 184 218 262 276 355 556 609 945 1340
2020-11-02 12:30 4.62 1510 2500 (2010) 178 (1964) 488 184 218 262 276 355 556 609 945 1340
2020-11-02 11:30 4.51 1440 2500 (2010) 178 (1964) 488 184 218 262 276 355 556 609 945 1340
2020-11-02 10:30 4.46 1410 2500 (2010) 178 (1964) 488 184 218 262 276 355 556 609 945 1340
2020-11-02 09:30 4.47 1410 2500 (2010) 178 (1964) 488 184 218 262 276 355 556 609 945 1340
2020-11-02 08:30 4.48 1420 2500 (2010) 178 (1964) 488 184 218 262 276 355 556 609 945 1340
2020-11-02 07:30 4.46 1410 2500 (2010) 178 (1964) 488 184 218 262 276 355 556 609 945 1340
2020-11-02 06:30 4.47 1410 2500 (2010) 178 (1964) 488 184 218 262 276 355 556 609 945 1340
2020-11-02 05:30 4.48 1420 2500 (2010) 178 (1964) 488 184 218 262 276 355 556 609 945 1340
2020-11-02 04:30 4.48 1420 2500 (2010) 178 (1964) 488 184 218 262 276 355 556 609 945 1340
2020-11-02 03:30 4.46 1410 2500 (2010) 178 (1964) 488 184 218 262 276 355 556 609 945 1340
2020-11-02 02:30 4.46 1410 2500 (2010) 178 (1964) 488 184 218 262 276 355 556 609 945 1340
2020-11-02 01:30 4.50 1430 2500 (2010) 178 (1964) 488 184 218 262 276 355 556 609 945 1340
2020-11-02 00:30 4.48 1420 2500 (2010) 178 (1964) 488 184 218 262 276 355 556 609 945 1340
2020-11-01 23:30 4.48 1420 1440 (2021) 179 (1954) 462 184 224 273 274 356 552 663 920 1140
2020-11-01 22:30 4.49 1430 1440 (2021) 179 (1954) 462 184 224 273 274 356 552 663 920 1140
2020-11-01 21:30 4.49 1430 1440 (2021) 179 (1954) 462 184 224 273 274 356 552 663 920 1140
2020-11-01 20:30 4.49 1430 1440 (2021) 179 (1954) 462 184 224 273 274 356 552 663 920 1140
2020-11-01 19:30 4.48 1420 1440 (2021) 179 (1954) 462 184 224 273 274 356 552 663 920 1140
2020-11-01 18:30 4.49 1430 1440 (2021) 179 (1954) 462 184 224 273 274 356 552 663 920 1140
2020-11-01 17:30 4.48 1420 1440 (2021) 179 (1954) 462 184 224 273 274 356 552 663 920 1140
2020-11-01 16:30 4.49 1430 1440 (2021) 179 (1954) 462 184 224 273 274 356 552 663 920 1140
2020-11-01 15:30 4.51 1440 1440 (2021) 179 (1954) 462 184 224 273 274 356 552 663 920 1140
2020-11-01 14:30 4.49 1430 1440 (2021) 179 (1954) 462 184 224 273 274 356 552 663 920 1140
2020-11-01 07:30 4.53 1450 1440 (2021) 179 (1954) 462 184 224 273 274 356 552 663 920 1140
2020-11-01 06:30 4.55 1470 1440 (2021) 179 (1954) 462 184 224 273 274 356 552 663 920 1140
2020-11-01 05:30 4.55 1470 1440 (2021) 179 (1954) 462 184 224 273 274 356 552 663 920 1140
2020-11-01 03:30 4.53 1450 1440 (2021) 179 (1954) 462 184 224 273 274 356 552 663 920 1140
2020-11-01 01:30 4.55 1470 1440 (2021) 179 (1954) 462 184 224 273 274 356 552 663 920 1140
2020-11-01 00:30 4.57 1480 1440 (2021) 179 (1954) 462 184 224 273 274 356 552 663 920 1140
2020-10-31 23:30 4.57 1480 2420 (1952) 179 (1954) 488 190 225 271 281 350 551 660 1090 1280
2020-10-31 22:30 4.57 1480 2420 (1952) 179 (1954) 488 190 225 271 281 350 551 660 1090 1280
2020-10-31 21:30 4.57 1480 2420 (1952) 179 (1954) 488 190 225 271 281 350 551 660 1090 1280
2020-10-31 20:30 4.58 1490 2420 (1952) 179 (1954) 488 190 225 271 281 350 551 660 1090 1280
2020-10-31 19:30 4.57 1480 2420 (1952) 179 (1954) 488 190 225 271 281 350 551 660 1090 1280
2020-10-31 18:30 4.57 1480 2420 (1952) 179 (1954) 488 190 225 271 281 350 551 660 1090 1280
2020-10-31 17:30 4.58 1490 2420 (1952) 179 (1954) 488 190 225 271 281 350 551 660 1090 1280
2020-10-31 16:30 4.59 1490 2420 (1952) 179 (1954) 488 190 225 271 281 350 551 660 1090 1280
2020-10-31 15:30 4.59 1490 2420 (1952) 179 (1954) 488 190 225 271 281 350 551 660 1090 1280
2020-10-31 14:30 4.60 1500 2420 (1952) 179 (1954) 488 190 225 271 281 350 551 660 1090 1280
2020-10-31 13:30 4.60 1500 2420 (1952) 179 (1954) 488 190 225 271 281 350 551 660 1090 1280
2020-10-31 12:30 4.59 1490 2420 (1952) 179 (1954) 488 190 225 271 281 350 551 660 1090 1280
2020-10-31 11:30 4.61 1510 2420 (1952) 179 (1954) 488 190 225 271 281 350 551 660 1090 1280
2020-10-31 10:30 4.61 1510 2420 (1952) 179 (1954) 488 190 225 271 281 350 551 660 1090 1280
2020-10-31 09:30 4.62 1510 2420 (1952) 179 (1954) 488 190 225 271 281 350 551 660 1090 1280
2020-10-31 08:30 4.61 1510 2420 (1952) 179 (1954) 488 190 225 271 281 350 551 660 1090 1280
2020-10-31 07:30 4.64 1530 2420 (1952) 179 (1954) 488 190 225 271 281 350 551 660 1090 1280
2020-10-31 06:30 4.63 1520 2420 (1952) 179 (1954) 488 190 225 271 281 350 551 660 1090 1280
2020-10-31 05:30 4.65 1530 2420 (1952) 179 (1954) 488 190 225 271 281 350 551 660 1090 1280
2020-10-31 04:30 4.65 1530 2420 (1952) 179 (1954) 488 190 225 271 281 350 551 660 1090 1280
2020-10-31 03:30 4.65 1530 2420 (1952) 179 (1954) 488 190 225 271 281 350 551 660 1090 1280
2020-10-31 02:30 4.66 1540 2420 (1952) 179 (1954) 488 190 225 271 281 350 551 660 1090 1280
2020-10-31 01:30 4.67 1550 2420 (1952) 179 (1954) 488 190 225 271 281 350 551 660 1090 1280
2020-10-31 00:30 4.69 1560 2420 (1952) 179 (1954) 488 190 225 271 281 350 551 660 1090 1280
2020-10-30 23:30 4.69 1560 4170 (2010) 179 (1954) 531 184 226 260 271 350 456 646 904 1650
2020-10-30 22:30 4.71 1570 4170 (2010) 179 (1954) 531 184 226 260 271 350 456 646 904 1650
2020-10-30 21:30 4.71 1570 4170 (2010) 179 (1954) 531 184 226 260 271 350 456 646 904 1650
2020-10-30 20:30 4.71 1570 4170 (2010) 179 (1954) 531 184 226 260 271 350 456 646 904 1650
2020-10-30 19:30 4.73 1590 4170 (2010) 179 (1954) 531 184 226 260 271 350 456 646 904 1650
2020-10-30 18:30 4.75 1600 4170 (2010) 179 (1954) 531 184 226 260 271 350 456 646 904 1650
2020-10-30 17:30 4.75 1600 4170 (2010) 179 (1954) 531 184 226 260 271 350 456 646 904 1650
2020-10-30 16:30 4.76 1610 4170 (2010) 179 (1954) 531 184 226 260 271 350 456 646 904 1650
2020-10-30 15:30 4.78 1620 4170 (2010) 179 (1954) 531 184 226 260 271 350 456 646 904 1650
2020-10-30 14:30 4.79 1630 4170 (2010) 179 (1954) 531 184 226 260 271 350 456 646 904 1650
2020-10-30 13:30 4.79 1630 4170 (2010) 179 (1954) 531 184 226 260 271 350 456 646 904 1650
2020-10-30 12:30 4.81 1640 4170 (2010) 179 (1954) 531 184 226 260 271 350 456 646 904 1650
2020-10-30 11:30 4.82 1650 4170 (2010) 179 (1954) 531 184 226 260 271 350 456 646 904 1650
2020-10-30 10:30 4.85 1670 4170 (2010) 179 (1954) 531 184 226 260 271 350 456 646 904 1650
2020-10-30 09:30 4.86 1680 4170 (2010) 179 (1954) 531 184 226 260 271 350 456 646 904 1650
2020-10-30 08:30 4.88 1690 4170 (2010) 179 (1954) 531 184 226 260 271 350 456 646 904 1650
2020-10-30 07:30 4.89 1700 4170 (2010) 179 (1954) 531 184 226 260 271 350 456 646 904 1650
2020-10-30 06:30 4.94 1730 4170 (2010) 179 (1954) 531 184 226 260 271 350 456 646 904 1650
2020-10-30 05:30 4.94 1730 4170 (2010) 179 (1954) 531 184 226 260 271 350 456 646 904 1650
2020-10-30 04:30 4.97 1750 4170 (2010) 179 (1954) 531 184 226 260 271 350 456 646 904 1650
2020-10-30 03:30 4.98 1760 4170 (2010) 179 (1954) 531 184 226 260 271 350 456 646 904 1650
2020-10-30 02:30 5.00 1770 4170 (2010) 179 (1954) 531 184 226 260 271 350 456 646 904 1650
2020-10-30 01:30 5.01 1780 4170 (2010) 179 (1954) 531 184 226 260 271 350 456 646 904 1650
2020-10-30 00:30 5.02 1790 4170 (2010) 179 (1954) 531 184 226 260 271 350 456 646 904 1650
2020-10-29 23:30 5.04 1800 2820 (2010) 180 (1956) 513 185 226 264 283 351 516 642 1050 1520
2020-10-29 22:30 5.01 1780 2820 (2010) 180 (1956) 513 185 226 264 283 351 516 642 1050 1520
2020-10-29 21:30 4.98 1760 2820 (2010) 180 (1956) 513 185 226 264 283 351 516 642 1050 1520
2020-10-29 20:30 4.92 1720 2820 (2010) 180 (1956) 513 185 226 264 283 351 516 642 1050 1520
2020-10-29 19:30 4.84 1660 2820 (2010) 180 (1956) 513 185 226 264 283 351 516 642 1050 1520
2020-10-29 18:30 4.72 1580 2820 (2010) 180 (1956) 513 185 226 264 283 351 516 642 1050 1520
2020-10-29 17:30 4.63 1520 2820 (2010) 180 (1956) 513 185 226 264 283 351 516 642 1050 1520
2020-10-29 16:30 4.61 1510 2820 (2010) 180 (1956) 513 185 226 264 283 351 516 642 1050 1520
2020-10-29 15:30 4.54 1460 2820 (2010) 180 (1956) 513 185 226 264 283 351 516 642 1050 1520
2020-10-29 14:30 4.45 1400 2820 (2010) 180 (1956) 513 185 226 264 283 351 516 642 1050 1520
2020-10-29 13:30 4.54 1460 2820 (2010) 180 (1956) 513 185 226 264 283 351 516 642 1050 1520
2020-10-29 12:30 4.75 1600 2820 (2010) 180 (1956) 513 185 226 264 283 351 516 642 1050 1520
2020-10-29 11:30 5.01 1780 2820 (2010) 180 (1956) 513 185 226 264 283 351 516 642 1050 1520
2020-10-29 10:30 5.29 1990 2820 (2010) 180 (1956) 513 185 226 264 283 351 516 642 1050 1520
2020-10-29 09:30 5.58 2210 2820 (2010) 180 (1956) 513 185 226 264 283 351 516 642 1050 1520
2020-10-29 08:30 5.82 2400 2820 (2010) 180 (1956) 513 185 226 264 283 351 516 642 1050 1520
2020-10-29 07:30 6.03 2570 2820 (2010) 180 (1956) 513 185 226 264 283 351 516 642 1050 1520
2020-10-29 06:30 6.16 2680 2820 (2010) 180 (1956) 513 185 226 264 283 351 516 642 1050 1520
2020-10-29 05:30 6.16 2680 2820 (2010) 180 (1956) 513 185 226 264 283 351 516 642 1050 1520
2020-10-29 04:30 6.04 2580 2820 (2010) 180 (1956) 513 185 226 264 283 351 516 642 1050 1520
2020-10-29 03:30 5.70 2300 2820 (2010) 180 (1956) 513 185 226 264 283 351 516 642 1050 1520
2020-10-29 02:30 4.93 1730 2820 (2010) 180 (1956) 513 185 226 264 283 351 516 642 1050 1520
2020-10-29 01:30 4.32 1320 2820 (2010) 180 (1956) 513 185 226 264 283 351 516 642 1050 1520
2020-10-29 00:30 3.99 1110 2820 (2010) 180 (1956) 513 185 226 264 283 351 516 642 1050 1520
2020-10-28 23:30 3.81 1010 2970 (1950) 180 (1956) 501 188 213 271 290 354 505 526 760 1730
2020-10-28 22:30 3.67 930 2970 (1950) 180 (1956) 501 188 213 271 290 354 505 526 760 1730
2020-10-28 21:30 3.59 886 2970 (1950) 180 (1956) 501 188 213 271 290 354 505 526 760 1730
2020-10-28 20:30 3.54 859 2970 (1950) 180 (1956) 501 188 213 271 290 354 505 526 760 1730
2020-10-28 19:30 3.50 837 2970 (1950) 180 (1956) 501 188 213 271 290 354 505 526 760 1730
2020-10-28 18:30 3.44 806 2970 (1950) 180 (1956) 501 188 213 271 290 354 505 526 760 1730
2020-10-28 17:30 3.39 780 2970 (1950) 180 (1956) 501 188 213 271 290 354 505 526 760 1730
2020-10-28 16:30 3.33 749 2970 (1950) 180 (1956) 501 188 213 271 290 354 505 526 760 1730
2020-10-28 15:30 3.27 719 2970 (1950) 180 (1956) 501 188 213 271 290 354 505 526 760 1730
2020-10-28 14:30 3.19 679 2970 (1950) 180 (1956) 501 188 213 271 290 354 505 526 760 1730
2020-10-28 13:30 3.07 621 2970 (1950) 180 (1956) 501 188 213 271 290 354 505 526 760 1730
2020-10-28 12:30 2.94 561 2970 (1950) 180 (1956) 501 188 213 271 290 354 505 526 760 1730
2020-10-28 11:30 2.83 512 2970 (1950) 180 (1956) 501 188 213 271 290 354 505 526 760 1730
2020-10-28 10:30 2.79 494 2970 (1950) 180 (1956) 501 188 213 271 290 354 505 526 760 1730
2020-10-28 09:30 2.78 490 2970 (1950) 180 (1956) 501 188 213 271 290 354 505 526 760 1730
2020-10-28 08:30 2.79 494 2970 (1950) 180 (1956) 501 188 213 271 290 354 505 526 760 1730
2020-10-28 07:30 2.79 494 2970 (1950) 180 (1956) 501 188 213 271 290 354 505 526 760 1730
2020-10-28 06:30 2.80 499 2970 (1950) 180 (1956) 501 188 213 271 290 354 505 526 760 1730
2020-10-28 05:30 2.80 499 2970 (1950) 180 (1956) 501 188 213 271 290 354 505 526 760 1730
2020-10-28 04:30 2.80 499 2970 (1950) 180 (1956) 501 188 213 271 290 354 505 526 760 1730
2020-10-28 03:30 2.81 503 2970 (1950) 180 (1956) 501 188 213 271 290 354 505 526 760 1730
2020-10-28 02:30 2.81 503 2970 (1950) 180 (1956) 501 188 213 271 290 354 505 526 760 1730
2020-10-28 01:30 2.82 507 2970 (1950) 180 (1956) 501 188 213 271 290 354 505 526 760 1730
2020-10-28 00:30 2.82 507 2970 (1950) 180 (1956) 501 188 213 271 290 354 505 526 760 1730
2020-10-27 23:30 2.83 512 3410 (2010) 171 (1956) 533 192 219 262 300 355 457 526 906 2010
2020-10-27 22:30 2.84 516 3410 (2010) 171 (1956) 533 192 219 262 300 355 457 526 906 2010
2020-10-27 21:30 2.85 521 3410 (2010) 171 (1956) 533 192 219 262 300 355 457 526 906 2010
2020-10-27 20:30 2.87 530 3410 (2010) 171 (1956) 533 192 219 262 300 355 457 526 906 2010
2020-10-27 19:30 2.88 534 3410 (2010) 171 (1956) 533 192 219 262 300 355 457 526 906 2010
2020-10-27 18:30 2.88 534 3410 (2010) 171 (1956) 533 192 219 262 300 355 457 526 906 2010
2020-10-27 17:30 2.91 547 3410 (2010) 171 (1956) 533 192 219 262 300 355 457 526 906 2010
2020-10-27 16:30 2.94 561 3410 (2010) 171 (1956) 533 192 219 262 300 355 457 526 906 2010
2020-10-27 15:30 2.96 570 3410 (2010) 171 (1956) 533 192 219 262 300 355 457 526 906 2010
2020-10-27 14:30 2.99 584 3410 (2010) 171 (1956) 533 192 219 262 300 355 457 526 906 2010
2020-10-27 13:30 3.04 607 3410 (2010) 171 (1956) 533 192 219 262 300 355 457 526 906 2010
2020-10-27 12:30 3.07 621 3410 (2010) 171 (1956) 533 192 219 262 300 355 457 526 906 2010
2020-10-27 11:30 3.10 635 3410 (2010) 171 (1956) 533 192 219 262 300 355 457 526 906 2010
2020-10-27 10:30 3.11 640 3410 (2010) 171 (1956) 533 192 219 262 300 355 457 526 906 2010
2020-10-27 09:30 3.09 631 3410 (2010) 171 (1956) 533 192 219 262 300 355 457 526 906 2010
2020-10-27 08:30 3.04 607 3410 (2010) 171 (1956) 533 192 219 262 300 355 457 526 906 2010
2020-10-27 07:30 2.97 575 3410 (2010) 171 (1956) 533 192 219 262 300 355 457 526 906 2010
2020-10-27 06:30 2.90 543 3410 (2010) 171 (1956) 533 192 219 262 300 355 457 526 906 2010
2020-10-27 05:30 2.85 521 3410 (2010) 171 (1956) 533 192 219 262 300 355 457 526 906 2010
2020-10-27 04:30 2.81 503 3410 (2010) 171 (1956) 533 192 219 262 300 355 457 526 906 2010
2020-10-27 03:30 2.79 494 3410 (2010) 171 (1956) 533 192 219 262 300 355 457 526 906 2010
2020-10-27 02:30 2.76 482 3410 (2010) 171 (1956) 533 192 219 262 300 355 457 526 906 2010
2020-10-27 01:30 2.75 477 3410 (2010) 171 (1956) 533 192 219 262 300 355 457 526 906 2010
2020-10-27 00:30 2.73 469 3410 (2010) 171 (1956) 533 192 219 262 300 355 457 526 906 2010
2020-10-26 23:30 2.73 469 3370 (1950) 171 (1956) 547 201 229 279 290 352 476 515 1050 2740
2020-10-26 22:30 2.72 465 3370 (1950) 171 (1956) 547 201 229 279 290 352 476 515 1050 2740
2020-10-26 21:30 2.73 469 3370 (1950) 171 (1956) 547 201 229 279 290 352 476 515 1050 2740
2020-10-26 20:30 2.73 469 3370 (1950) 171 (1956) 547 201 229 279 290 352 476 515 1050 2740
2020-10-26 19:30 2.74 473 3370 (1950) 171 (1956) 547 201 229 279 290 352 476 515 1050 2740
2020-10-26 18:30 2.76 482 3370 (1950) 171 (1956) 547 201 229 279 290 352 476 515 1050 2740
2020-10-26 17:30 2.77 486 3370 (1950) 171 (1956) 547 201 229 279 290 352 476 515 1050 2740
2020-10-26 16:30 2.77 486 3370 (1950) 171 (1956) 547 201 229 279 290 352 476 515 1050 2740
2020-10-26 15:30 2.78 490 3370 (1950) 171 (1956) 547 201 229 279 290 352 476 515 1050 2740
2020-10-26 14:30 2.81 503 3370 (1950) 171 (1956) 547 201 229 279 290 352 476 515 1050 2740
2020-10-26 13:30 2.83 512 3370 (1950) 171 (1956) 547 201 229 279 290 352 476 515 1050 2740
2020-10-26 12:30 2.87 530 3370 (1950) 171 (1956) 547 201 229 279 290 352 476 515 1050 2740
2020-10-26 11:30 2.90 543 3370 (1950) 171 (1956) 547 201 229 279 290 352 476 515 1050 2740
2020-10-26 10:30 2.92 552 3370 (1950) 171 (1956) 547 201 229 279 290 352 476 515 1050 2740
2020-10-26 09:30 2.92 552 3370 (1950) 171 (1956) 547 201 229 279 290 352 476 515 1050 2740
2020-10-26 08:30 2.92 552 3370 (1950) 171 (1956) 547 201 229 279 290 352 476 515 1050 2740
2020-10-26 07:30 2.93 556 3370 (1950) 171 (1956) 547 201 229 279 290 352 476 515 1050 2740
2020-10-26 06:30 2.93 556 3370 (1950) 171 (1956) 547 201 229 279 290 352 476 515 1050 2740
2020-10-26 05:30 2.92 552 3370 (1950) 171 (1956) 547 201 229 279 290 352 476 515 1050 2740
2020-10-26 04:30 2.92 552 3370 (1950) 171 (1956) 547 201 229 279 290 352 476 515 1050 2740
2020-10-26 03:30 2.92 552 3370 (1950) 171 (1956) 547 201 229 279 290 352 476 515 1050 2740
2020-10-26 02:30 2.92 552 3370 (1950) 171 (1956) 547 201 229 279 290 352 476 515 1050 2740
2020-10-26 01:30 2.92 552 3370 (1950) 171 (1956) 547 201 229 279 290 352 476 515 1050 2740
2020-10-26 00:30 2.93 556 3370 (1950) 171 (1956) 547 201 229 279 290 352 476 515 1050 2740
2020-10-25 23:30 2.93 556 3460 (1950) 171 (1956) 558 196 230 261 284 352 501 511 1070 2740
2020-10-25 22:30 2.93 556 3460 (1950) 171 (1956) 558 196 230 261 284 352 501 511 1070 2740
2020-10-25 21:30 2.93 556 3460 (1950) 171 (1956) 558 196 230 261 284 352 501 511 1070 2740
2020-10-25 20:30 2.92 552 3460 (1950) 171 (1956) 558 196 230 261 284 352 501 511 1070 2740
2020-10-25 19:30 2.93 556 3460 (1950) 171 (1956) 558 196 230 261 284 352 501 511 1070 2740
2020-10-25 18:30 2.92 552 3460 (1950) 171 (1956) 558 196 230 261 284 352 501 511 1070 2740
2020-10-25 17:30 2.92 552 3460 (1950) 171 (1956) 558 196 230 261 284 352 501 511 1070 2740
2020-10-25 16:30 2.92 552 3460 (1950) 171 (1956) 558 196 230 261 284 352 501 511 1070 2740
2020-10-25 15:30 2.92 552 3460 (1950) 171 (1956) 558 196 230 261 284 352 501 511 1070 2740
2020-10-25 14:30 2.93 556 3460 (1950) 171 (1956) 558 196 230 261 284 352 501 511 1070 2740
2020-10-25 13:30 2.93 556 3460 (1950) 171 (1956) 558 196 230 261 284 352 501 511 1070 2740
2020-10-25 12:30 2.92 552 3460 (1950) 171 (1956) 558 196 230 261 284 352 501 511 1070 2740
2020-10-25 11:30 2.93 556 3460 (1950) 171 (1956) 558 196 230 261 284 352 501 511 1070 2740
2020-10-25 10:30 2.93 556 3460 (1950) 171 (1956) 558 196 230 261 284 352 501 511 1070 2740
2020-10-25 09:30 2.93 556 3460 (1950) 171 (1956) 558 196 230 261 284 352 501 511 1070 2740
2020-10-25 08:30 2.93 556 3460 (1950) 171 (1956) 558 196 230 261 284 352 501 511 1070 2740
2020-10-25 07:30 2.92 552 3460 (1950) 171 (1956) 558 196 230 261 284 352 501 511 1070 2740
2020-10-25 06:30 2.92 552 3460 (1950) 171 (1956) 558 196 230 261 284 352 501 511 1070 2740
2020-10-25 05:30 2.94 561 3460 (1950) 171 (1956) 558 196 230 261 284 352 501 511 1070 2740
2020-10-25 04:30 2.93 556 3460 (1950) 171 (1956) 558 196 230 261 284 352 501 511 1070 2740
2020-10-25 03:30 2.93 556 3460 (1950) 171 (1956) 558 196 230 261 284 352 501 511 1070 2740
2020-10-25 02:30 2.92 552 3460 (1950) 171 (1956) 558 196 230 261 284 352 501 511 1070 2740
2020-10-25 01:30 2.93 556 3460 (1950) 171 (1956) 558 196 230 261 284 352 501 511 1070 2740
2020-10-25 00:30 2.93 556 3460 (1950) 171 (1956) 558 196 230 261 284 352 501 511 1070 2740
2020-10-24 23:30 2.92 552 3460 (1950) 173 (1956) 508 194 216 259 280 369 492 515 828 1900
2020-10-24 22:30 2.93 556 3460 (1950) 173 (1956) 508 194 216 259 280 369 492 515 828 1900
2020-10-24 21:30 2.93 556 3460 (1950) 173 (1956) 508 194 216 259 280 369 492 515 828 1900
2020-10-24 20:30 2.93 556 3460 (1950) 173 (1956) 508 194 216 259 280 369 492 515 828 1900
2020-10-24 19:30 2.94 561 3460 (1950) 173 (1956) 508 194 216 259 280 369 492 515 828 1900
2020-10-24 18:30 2.94 561 3460 (1950) 173 (1956) 508 194 216 259 280 369 492 515 828 1900
2020-10-24 17:30 2.93 556 3460 (1950) 173 (1956) 508 194 216 259 280 369 492 515 828 1900
2020-10-24 16:30 2.94 561 3460 (1950) 173 (1956) 508 194 216 259 280 369 492 515 828 1900
2020-10-24 15:30 2.93 556 3460 (1950) 173 (1956) 508 194 216 259 280 369 492 515 828 1900
2020-10-24 14:30 2.93 556 3460 (1950) 173 (1956) 508 194 216 259 280 369 492 515 828 1900
2020-10-24 13:30 2.93 556 3460 (1950) 173 (1956) 508 194 216 259 280 369 492 515 828 1900
2020-10-24 12:30 2.94 561 3460 (1950) 173 (1956) 508 194 216 259 280 369 492 515 828 1900
2020-10-24 11:30 2.94 561 3460 (1950) 173 (1956) 508 194 216 259 280 369 492 515 828 1900
2020-10-24 10:30 2.93 556 3460 (1950) 173 (1956) 508 194 216 259 280 369 492 515 828 1900
2020-10-24 09:30 2.94 561 3460 (1950) 173 (1956) 508 194 216 259 280 369 492 515 828 1900
2020-10-24 08:30 2.94 561 3460 (1950) 173 (1956) 508 194 216 259 280 369 492 515 828 1900
2020-10-24 07:30 2.94 561 3460 (1950) 173 (1956) 508 194 216 259 280 369 492 515 828 1900
2020-10-24 06:30 2.94 561 3460 (1950) 173 (1956) 508 194 216 259 280 369 492 515 828 1900
2020-10-24 05:30 2.95 566 3460 (1950) 173 (1956) 508 194 216 259 280 369 492 515 828 1900
2020-10-24 04:30 2.95 566 3460 (1950) 173 (1956) 508 194 216 259 280 369 492 515 828 1900
2020-10-24 03:30 2.96 570 3460 (1950) 173 (1956) 508 194 216 259 280 369 492 515 828 1900
2020-10-24 02:30 2.97 575 3460 (1950) 173 (1956) 508 194 216 259 280 369 492 515 828 1900
2020-10-24 01:30 2.96 570 3460 (1950) 173 (1956) 508 194 216 259 280 369 492 515 828 1900
2020-10-24 00:30 2.97 575 3460 (1950) 173 (1956) 508 194 216 259 280 369 492 515 828 1900
2020-10-23 23:30 2.98 579 3050 (1950) 173 (1956) 471 192 215 258 286 355 469 491 749 1420
2020-10-23 22:30 2.98 579 3050 (1950) 173 (1956) 471 192 215 258 286 355 469 491 749 1420
2020-10-23 21:30 2.99 58